<?xml version="1.0" encoding="UTF-8" standalone="no" ?>
<gpx xmlns="http://www.topografix.com/GPX/1/1" xmlns:xsi="http://www.w3.org/2001/XMLSchema-instance" xsi:schemaLocation="http://www.topografix.com/GPX/1/1 http://www.topografix.com/GPX/1/1/gpx.xsd" version="1.1" creator="VisuGPX - https://www.visugpx.com">
  <metadata>
    <name>Rando organisée Vernosc-lès-Annonay</name>
    <desc><![CDATA[Randonnée organisée au départ de Vernosc les Annonay; 48km pour 1300m de D+. Tout passe sur le vélo, descente dans la vallée de la cance et traversée sur le pont suspendu de moulin de cancepuis montée sur St alban d'Ay puis la roche des vents, redescente sur roiffieux par des single track ludique et des moments très techniques puis traversée dAnnonay et retour par l'ancienne voie ferrée]]></desc>
  </metadata>
  <trk>
    <name><![CDATA[Rando organisée Vernosc-lès-Annonay]]></name>
    <trkseg>
      <trkpt lat="45.22437" lon="4.71896">
        <ele>398</ele>
        <time>2022-05-01T06:27:42Z</time>
      </trkpt>
      <trkpt lat="45.22437" lon="4.71896">
        <ele>397.39999389648</ele>
        <time>2022-05-01T06:27:43Z</time>
      </trkpt>
      <trkpt lat="45.22438" lon="4.71897">
        <ele>399.60000610352</ele>
        <time>2022-05-01T06:28:04Z</time>
      </trkpt>
      <trkpt lat="45.22435" lon="4.71892">
        <ele>399.39999389648</ele>
        <time>2022-05-01T06:29:11Z</time>
      </trkpt>
      <trkpt lat="45.22434" lon="4.71892">
        <ele>399.20001220703</ele>
        <time>2022-05-01T06:29:37Z</time>
      </trkpt>
      <trkpt lat="45.22439" lon="4.71891">
        <ele>399.20001220703</ele>
        <time>2022-05-01T06:30:25Z</time>
      </trkpt>
      <trkpt lat="45.22447" lon="4.71872">
        <ele>399.20001220703</ele>
        <time>2022-05-01T06:30:34Z</time>
      </trkpt>
      <trkpt lat="45.2245" lon="4.71828">
        <ele>399.79998779297</ele>
        <time>2022-05-01T06:30:49Z</time>
      </trkpt>
      <trkpt lat="45.22474" lon="4.71821">
        <ele>400.39999389648</ele>
        <time>2022-05-01T06:31:00Z</time>
      </trkpt>
      <trkpt lat="45.22468" lon="4.71805">
        <ele>400.79998779297</ele>
        <time>2022-05-01T06:31:08Z</time>
      </trkpt>
      <trkpt lat="45.22458" lon="4.718">
        <ele>400.79998779297</ele>
        <time>2022-05-01T06:31:11Z</time>
      </trkpt>
      <trkpt lat="45.22363" lon="4.71735">
        <ele>401.60000610352</ele>
        <time>2022-05-01T06:31:42Z</time>
      </trkpt>
      <trkpt lat="45.22313" lon="4.71698">
        <ele>404.60000610352</ele>
        <time>2022-05-01T06:32:01Z</time>
      </trkpt>
      <trkpt lat="45.22266" lon="4.71679">
        <ele>406.79998779297</ele>
        <time>2022-05-01T06:32:17Z</time>
      </trkpt>
      <trkpt lat="45.22225" lon="4.71667">
        <ele>407.60000610352</ele>
        <time>2022-05-01T06:32:31Z</time>
      </trkpt>
      <trkpt lat="45.22158" lon="4.71657">
        <ele>407.20001220703</ele>
        <time>2022-05-01T06:32:46Z</time>
      </trkpt>
      <trkpt lat="45.2206" lon="4.71603">
        <ele>405.39999389648</ele>
        <time>2022-05-01T06:33:05Z</time>
      </trkpt>
      <trkpt lat="45.22045" lon="4.71595">
        <ele>405.20001220703</ele>
        <time>2022-05-01T06:33:08Z</time>
      </trkpt>
      <trkpt lat="45.21971" lon="4.71545">
        <ele>405</ele>
        <time>2022-05-01T06:33:24Z</time>
      </trkpt>
      <trkpt lat="45.21921" lon="4.71514">
        <ele>404.79998779297</ele>
        <time>2022-05-01T06:33:35Z</time>
      </trkpt>
      <trkpt lat="45.21914" lon="4.71475">
        <ele>404</ele>
        <time>2022-05-01T06:33:42Z</time>
      </trkpt>
      <trkpt lat="45.21917" lon="4.71419">
        <ele>404.79998779297</ele>
        <time>2022-05-01T06:33:53Z</time>
      </trkpt>
      <trkpt lat="45.21919" lon="4.71402">
        <ele>405.20001220703</ele>
        <time>2022-05-01T06:33:56Z</time>
      </trkpt>
      <trkpt lat="45.21925" lon="4.71345">
        <ele>405.79998779297</ele>
        <time>2022-05-01T06:34:05Z</time>
      </trkpt>
      <trkpt lat="45.21937" lon="4.71313">
        <ele>406.39999389648</ele>
        <time>2022-05-01T06:34:11Z</time>
      </trkpt>
      <trkpt lat="45.21961" lon="4.71271">
        <ele>409.60000610352</ele>
        <time>2022-05-01T06:34:25Z</time>
      </trkpt>
      <trkpt lat="45.21993" lon="4.71245">
        <ele>412.60000610352</ele>
        <time>2022-05-01T06:34:37Z</time>
      </trkpt>
      <trkpt lat="45.2204" lon="4.71198">
        <ele>414.39999389648</ele>
        <time>2022-05-01T06:34:53Z</time>
      </trkpt>
      <trkpt lat="45.22065" lon="4.71166">
        <ele>414.20001220703</ele>
        <time>2022-05-01T06:35:00Z</time>
      </trkpt>
      <trkpt lat="45.22055" lon="4.71147">
        <ele>413.39999389648</ele>
        <time>2022-05-01T06:35:05Z</time>
      </trkpt>
      <trkpt lat="45.2201" lon="4.71133">
        <ele>410.20001220703</ele>
        <time>2022-05-01T06:35:11Z</time>
      </trkpt>
      <trkpt lat="45.21978" lon="4.71124">
        <ele>406.79998779297</ele>
        <time>2022-05-01T06:35:15Z</time>
      </trkpt>
      <trkpt lat="45.21972" lon="4.71121">
        <ele>406.39999389648</ele>
        <time>2022-05-01T06:35:16Z</time>
      </trkpt>
      <trkpt lat="45.21962" lon="4.71098">
        <ele>403.60000610352</ele>
        <time>2022-05-01T06:35:20Z</time>
      </trkpt>
      <trkpt lat="45.21946" lon="4.71076">
        <ele>401</ele>
        <time>2022-05-01T06:35:24Z</time>
      </trkpt>
      <trkpt lat="45.21937" lon="4.71039">
        <ele>398.20001220703</ele>
        <time>2022-05-01T06:35:29Z</time>
      </trkpt>
      <trkpt lat="45.21933" lon="4.70916">
        <ele>396.20001220703</ele>
        <time>2022-05-01T06:35:43Z</time>
      </trkpt>
      <trkpt lat="45.21916" lon="4.70906">
        <ele>396</ele>
        <time>2022-05-01T06:35:48Z</time>
      </trkpt>
      <trkpt lat="45.21905" lon="4.70914">
        <ele>395.79998779297</ele>
        <time>2022-05-01T06:35:51Z</time>
      </trkpt>
      <trkpt lat="45.2181" lon="4.70987">
        <ele>396.20001220703</ele>
        <time>2022-05-01T06:36:14Z</time>
      </trkpt>
      <trkpt lat="45.21778" lon="4.71011">
        <ele>396.79998779297</ele>
        <time>2022-05-01T06:36:22Z</time>
      </trkpt>
      <trkpt lat="45.2177" lon="4.70999">
        <ele>396.79998779297</ele>
        <time>2022-05-01T06:36:26Z</time>
      </trkpt>
      <trkpt lat="45.21764" lon="4.70978">
        <ele>397</ele>
        <time>2022-05-01T06:36:30Z</time>
      </trkpt>
      <trkpt lat="45.21746" lon="4.70927">
        <ele>397</ele>
        <time>2022-05-01T06:36:38Z</time>
      </trkpt>
      <trkpt lat="45.21743" lon="4.70895">
        <ele>397.20001220703</ele>
        <time>2022-05-01T06:36:43Z</time>
      </trkpt>
      <trkpt lat="45.21749" lon="4.70862">
        <ele>397.39999389648</ele>
        <time>2022-05-01T06:36:48Z</time>
      </trkpt>
      <trkpt lat="45.21773" lon="4.70848">
        <ele>397.39999389648</ele>
        <time>2022-05-01T06:36:54Z</time>
      </trkpt>
      <trkpt lat="45.21788" lon="4.70848">
        <ele>397.20001220703</ele>
        <time>2022-05-01T06:36:58Z</time>
      </trkpt>
      <trkpt lat="45.21786" lon="4.7084">
        <ele>396.79998779297</ele>
        <time>2022-05-01T06:37:02Z</time>
      </trkpt>
      <trkpt lat="45.21785" lon="4.70836">
        <ele>396.60000610352</ele>
        <time>2022-05-01T06:37:04Z</time>
      </trkpt>
      <trkpt lat="45.21787" lon="4.70784">
        <ele>397.20001220703</ele>
        <time>2022-05-01T06:37:16Z</time>
      </trkpt>
      <trkpt lat="45.21788" lon="4.7075">
        <ele>398</ele>
        <time>2022-05-01T06:37:23Z</time>
      </trkpt>
      <trkpt lat="45.2177" lon="4.70741">
        <ele>398.60000610352</ele>
        <time>2022-05-01T06:37:29Z</time>
      </trkpt>
      <trkpt lat="45.21747" lon="4.70743">
        <ele>399.39999389648</ele>
        <time>2022-05-01T06:37:36Z</time>
      </trkpt>
      <trkpt lat="45.21745" lon="4.70724">
        <ele>400</ele>
        <time>2022-05-01T06:37:41Z</time>
      </trkpt>
      <trkpt lat="45.21751" lon="4.70704">
        <ele>400.79998779297</ele>
        <time>2022-05-01T06:37:45Z</time>
      </trkpt>
      <trkpt lat="45.21762" lon="4.70682">
        <ele>401.20001220703</ele>
        <time>2022-05-01T06:37:49Z</time>
      </trkpt>
      <trkpt lat="45.21767" lon="4.70634">
        <ele>400.79998779297</ele>
        <time>2022-05-01T06:37:55Z</time>
      </trkpt>
      <trkpt lat="45.21766" lon="4.70626">
        <ele>400.79998779297</ele>
        <time>2022-05-01T06:37:56Z</time>
      </trkpt>
      <trkpt lat="45.21765" lon="4.70563">
        <ele>398.39999389648</ele>
        <time>2022-05-01T06:38:03Z</time>
      </trkpt>
      <trkpt lat="45.21767" lon="4.70539">
        <ele>398</ele>
        <time>2022-05-01T06:38:07Z</time>
      </trkpt>
      <trkpt lat="45.21763" lon="4.7049">
        <ele>399.39999389648</ele>
        <time>2022-05-01T06:38:16Z</time>
      </trkpt>
      <trkpt lat="45.21759" lon="4.70471">
        <ele>400.20001220703</ele>
        <time>2022-05-01T06:38:20Z</time>
      </trkpt>
      <trkpt lat="45.21756" lon="4.70438">
        <ele>401.39999389648</ele>
        <time>2022-05-01T06:38:25Z</time>
      </trkpt>
      <trkpt lat="45.21745" lon="4.7038">
        <ele>401.20001220703</ele>
        <time>2022-05-01T06:38:32Z</time>
      </trkpt>
      <trkpt lat="45.21741" lon="4.70373">
        <ele>401</ele>
        <time>2022-05-01T06:38:33Z</time>
      </trkpt>
      <trkpt lat="45.21734" lon="4.70343">
        <ele>399.20001220703</ele>
        <time>2022-05-01T06:38:36Z</time>
      </trkpt>
      <trkpt lat="45.21728" lon="4.7033">
        <ele>398.20001220703</ele>
        <time>2022-05-01T06:38:38Z</time>
      </trkpt>
      <trkpt lat="45.21719" lon="4.70322">
        <ele>396.39999389648</ele>
        <time>2022-05-01T06:38:41Z</time>
      </trkpt>
      <trkpt lat="45.21684" lon="4.70295">
        <ele>392.79998779297</ele>
        <time>2022-05-01T06:38:48Z</time>
      </trkpt>
      <trkpt lat="45.21673" lon="4.70291">
        <ele>392</ele>
        <time>2022-05-01T06:38:50Z</time>
      </trkpt>
      <trkpt lat="45.21664" lon="4.7027">
        <ele>389</ele>
        <time>2022-05-01T06:38:54Z</time>
      </trkpt>
      <trkpt lat="45.21663" lon="4.70266">
        <ele>388.39999389648</ele>
        <time>2022-05-01T06:38:55Z</time>
      </trkpt>
      <trkpt lat="45.21647" lon="4.70227">
        <ele>387</ele>
        <time>2022-05-01T06:39:00Z</time>
      </trkpt>
      <trkpt lat="45.21638" lon="4.70229">
        <ele>386</ele>
        <time>2022-05-01T06:39:02Z</time>
      </trkpt>
      <trkpt lat="45.21603" lon="4.70246">
        <ele>382.60000610352</ele>
        <time>2022-05-01T06:39:09Z</time>
      </trkpt>
      <trkpt lat="45.21593" lon="4.7025">
        <ele>381.60000610352</ele>
        <time>2022-05-01T06:39:11Z</time>
      </trkpt>
      <trkpt lat="45.21583" lon="4.70261">
        <ele>379</ele>
        <time>2022-05-01T06:39:14Z</time>
      </trkpt>
      <trkpt lat="45.21582" lon="4.70263">
        <ele>378.39999389648</ele>
        <time>2022-05-01T06:39:15Z</time>
      </trkpt>
      <trkpt lat="45.21579" lon="4.70273">
        <ele>375.79998779297</ele>
        <time>2022-05-01T06:39:20Z</time>
      </trkpt>
      <trkpt lat="45.21564" lon="4.70298">
        <ele>377.20001220703</ele>
        <time>2022-05-01T06:39:30Z</time>
      </trkpt>
      <trkpt lat="45.21559" lon="4.70309">
        <ele>379.20001220703</ele>
        <time>2022-05-01T06:39:35Z</time>
      </trkpt>
      <trkpt lat="45.21556" lon="4.70318">
        <ele>380.60000610352</ele>
        <time>2022-05-01T06:39:39Z</time>
      </trkpt>
      <trkpt lat="45.21548" lon="4.70328">
        <ele>382</ele>
        <time>2022-05-01T06:39:44Z</time>
      </trkpt>
      <trkpt lat="45.21543" lon="4.70336">
        <ele>383</ele>
        <time>2022-05-01T06:39:47Z</time>
      </trkpt>
      <trkpt lat="45.21533" lon="4.70352">
        <ele>385.79998779297</ele>
        <time>2022-05-01T06:39:54Z</time>
      </trkpt>
      <trkpt lat="45.21532" lon="4.70355">
        <ele>386</ele>
        <time>2022-05-01T06:39:55Z</time>
      </trkpt>
      <trkpt lat="45.2153" lon="4.70361">
        <ele>386.60000610352</ele>
        <time>2022-05-01T06:39:59Z</time>
      </trkpt>
      <trkpt lat="45.21533" lon="4.70376">
        <ele>388.20001220703</ele>
        <time>2022-05-01T06:40:06Z</time>
      </trkpt>
      <trkpt lat="45.21535" lon="4.70404">
        <ele>389.79998779297</ele>
        <time>2022-05-01T06:40:17Z</time>
      </trkpt>
      <trkpt lat="45.21536" lon="4.70432">
        <ele>391</ele>
        <time>2022-05-01T06:40:26Z</time>
      </trkpt>
      <trkpt lat="45.21542" lon="4.70454">
        <ele>392.20001220703</ele>
        <time>2022-05-01T06:40:32Z</time>
      </trkpt>
      <trkpt lat="45.21549" lon="4.70471">
        <ele>393.79998779297</ele>
        <time>2022-05-01T06:40:38Z</time>
      </trkpt>
      <trkpt lat="45.21551" lon="4.70484">
        <ele>394.39999389648</ele>
        <time>2022-05-01T06:40:42Z</time>
      </trkpt>
      <trkpt lat="45.21551" lon="4.70487">
        <ele>394.60000610352</ele>
        <time>2022-05-01T06:40:43Z</time>
      </trkpt>
      <trkpt lat="45.21551" lon="4.70491">
        <ele>395.20001220703</ele>
        <time>2022-05-01T06:40:45Z</time>
      </trkpt>
      <trkpt lat="45.21557" lon="4.70504">
        <ele>395.79998779297</ele>
        <time>2022-05-01T06:40:50Z</time>
      </trkpt>
      <trkpt lat="45.21569" lon="4.70547">
        <ele>397</ele>
        <time>2022-05-01T06:41:04Z</time>
      </trkpt>
      <trkpt lat="45.21567" lon="4.7055">
        <ele>396.79998779297</ele>
        <time>2022-05-01T06:41:07Z</time>
      </trkpt>
      <trkpt lat="45.2155" lon="4.70537">
        <ele>396.39999389648</ele>
        <time>2022-05-01T06:41:14Z</time>
      </trkpt>
      <trkpt lat="45.21534" lon="4.70517">
        <ele>394.79998779297</ele>
        <time>2022-05-01T06:41:19Z</time>
      </trkpt>
      <trkpt lat="45.2153" lon="4.70514">
        <ele>394.20001220703</ele>
        <time>2022-05-01T06:41:20Z</time>
      </trkpt>
      <trkpt lat="45.21513" lon="4.70502">
        <ele>392.20001220703</ele>
        <time>2022-05-01T06:41:24Z</time>
      </trkpt>
      <trkpt lat="45.21496" lon="4.705">
        <ele>389.20001220703</ele>
        <time>2022-05-01T06:41:27Z</time>
      </trkpt>
      <trkpt lat="45.21475" lon="4.7049">
        <ele>385.39999389648</ele>
        <time>2022-05-01T06:41:32Z</time>
      </trkpt>
      <trkpt lat="45.21473" lon="4.70486">
        <ele>385.20001220703</ele>
        <time>2022-05-01T06:41:33Z</time>
      </trkpt>
      <trkpt lat="45.2147" lon="4.70481">
        <ele>384.39999389648</ele>
        <time>2022-05-01T06:41:34Z</time>
      </trkpt>
      <trkpt lat="45.21463" lon="4.70453">
        <ele>379.60000610352</ele>
        <time>2022-05-01T06:41:38Z</time>
      </trkpt>
      <trkpt lat="45.2146" lon="4.70432">
        <ele>378</ele>
        <time>2022-05-01T06:41:41Z</time>
      </trkpt>
      <trkpt lat="45.21457" lon="4.70428">
        <ele>377.79998779297</ele>
        <time>2022-05-01T06:41:42Z</time>
      </trkpt>
      <trkpt lat="45.21434" lon="4.70402">
        <ele>374</ele>
        <time>2022-05-01T06:41:47Z</time>
      </trkpt>
      <trkpt lat="45.21414" lon="4.7037">
        <ele>372.79998779297</ele>
        <time>2022-05-01T06:41:52Z</time>
      </trkpt>
      <trkpt lat="45.21411" lon="4.70365">
        <ele>372.39999389648</ele>
        <time>2022-05-01T06:41:53Z</time>
      </trkpt>
      <trkpt lat="45.21398" lon="4.70315">
        <ele>371.20001220703</ele>
        <time>2022-05-01T06:42:02Z</time>
      </trkpt>
      <trkpt lat="45.21376" lon="4.70301">
        <ele>369.60000610352</ele>
        <time>2022-05-01T06:42:07Z</time>
      </trkpt>
      <trkpt lat="45.2137" lon="4.70301">
        <ele>369.39999389648</ele>
        <time>2022-05-01T06:42:08Z</time>
      </trkpt>
      <trkpt lat="45.21355" lon="4.70309">
        <ele>367.60000610352</ele>
        <time>2022-05-01T06:42:12Z</time>
      </trkpt>
      <trkpt lat="45.21351" lon="4.70313">
        <ele>366.79998779297</ele>
        <time>2022-05-01T06:42:13Z</time>
      </trkpt>
      <trkpt lat="45.2134" lon="4.70327">
        <ele>364.79998779297</ele>
        <time>2022-05-01T06:42:17Z</time>
      </trkpt>
      <trkpt lat="45.21336" lon="4.70331">
        <ele>364.39999389648</ele>
        <time>2022-05-01T06:42:18Z</time>
      </trkpt>
      <trkpt lat="45.21324" lon="4.7035">
        <ele>362.79998779297</ele>
        <time>2022-05-01T06:42:22Z</time>
      </trkpt>
      <trkpt lat="45.2132" lon="4.70367">
        <ele>360</ele>
        <time>2022-05-01T06:42:26Z</time>
      </trkpt>
      <trkpt lat="45.21318" lon="4.70381">
        <ele>358.60000610352</ele>
        <time>2022-05-01T06:42:29Z</time>
      </trkpt>
      <trkpt lat="45.21319" lon="4.70388">
        <ele>357.39999389648</ele>
        <time>2022-05-01T06:42:30Z</time>
      </trkpt>
      <trkpt lat="45.2132" lon="4.704">
        <ele>355.60000610352</ele>
        <time>2022-05-01T06:42:32Z</time>
      </trkpt>
      <trkpt lat="45.21315" lon="4.70422">
        <ele>353.39999389648</ele>
        <time>2022-05-01T06:42:36Z</time>
      </trkpt>
      <trkpt lat="45.2128" lon="4.70438">
        <ele>351.39999389648</ele>
        <time>2022-05-01T06:42:43Z</time>
      </trkpt>
      <trkpt lat="45.21254" lon="4.70463">
        <ele>349.79998779297</ele>
        <time>2022-05-01T06:42:51Z</time>
      </trkpt>
      <trkpt lat="45.21255" lon="4.70509">
        <ele>349</ele>
        <time>2022-05-01T06:42:59Z</time>
      </trkpt>
      <trkpt lat="45.21262" lon="4.7052">
        <ele>348.20001220703</ele>
        <time>2022-05-01T06:43:04Z</time>
      </trkpt>
      <trkpt lat="45.21261" lon="4.70525">
        <ele>347.20001220703</ele>
        <time>2022-05-01T06:43:09Z</time>
      </trkpt>
      <trkpt lat="45.21247" lon="4.70502">
        <ele>345</ele>
        <time>2022-05-01T06:43:18Z</time>
      </trkpt>
      <trkpt lat="45.21244" lon="4.70501">
        <ele>345</ele>
        <time>2022-05-01T06:43:19Z</time>
      </trkpt>
      <trkpt lat="45.21243" lon="4.705">
        <ele>344.39999389648</ele>
        <time>2022-05-01T06:43:20Z</time>
      </trkpt>
      <trkpt lat="45.21238" lon="4.7048">
        <ele>342</ele>
        <time>2022-05-01T06:43:26Z</time>
      </trkpt>
      <trkpt lat="45.2123" lon="4.70482">
        <ele>339.20001220703</ele>
        <time>2022-05-01T06:43:31Z</time>
      </trkpt>
      <trkpt lat="45.21228" lon="4.70486">
        <ele>339</ele>
        <time>2022-05-01T06:43:32Z</time>
      </trkpt>
      <trkpt lat="45.21217" lon="4.70505">
        <ele>336.79998779297</ele>
        <time>2022-05-01T06:43:38Z</time>
      </trkpt>
      <trkpt lat="45.21216" lon="4.70504">
        <ele>336.60000610352</ele>
        <time>2022-05-01T06:43:39Z</time>
      </trkpt>
      <trkpt lat="45.21215" lon="4.70494">
        <ele>335</ele>
        <time>2022-05-01T06:43:42Z</time>
      </trkpt>
      <trkpt lat="45.21213" lon="4.70479">
        <ele>333.79998779297</ele>
        <time>2022-05-01T06:43:46Z</time>
      </trkpt>
      <trkpt lat="45.21214" lon="4.70462">
        <ele>330.79998779297</ele>
        <time>2022-05-01T06:43:50Z</time>
      </trkpt>
      <trkpt lat="45.21213" lon="4.70458">
        <ele>329.79998779297</ele>
        <time>2022-05-01T06:43:51Z</time>
      </trkpt>
      <trkpt lat="45.21203" lon="4.70465">
        <ele>327.20001220703</ele>
        <time>2022-05-01T06:43:58Z</time>
      </trkpt>
      <trkpt lat="45.212" lon="4.70472">
        <ele>326.20001220703</ele>
        <time>2022-05-01T06:44:00Z</time>
      </trkpt>
      <trkpt lat="45.21195" lon="4.70479">
        <ele>324.20001220703</ele>
        <time>2022-05-01T06:44:03Z</time>
      </trkpt>
      <trkpt lat="45.21193" lon="4.70479">
        <ele>323.20001220703</ele>
        <time>2022-05-01T06:44:05Z</time>
      </trkpt>
      <trkpt lat="45.21197" lon="4.70449">
        <ele>319.60000610352</ele>
        <time>2022-05-01T06:44:15Z</time>
      </trkpt>
      <trkpt lat="45.21199" lon="4.70426">
        <ele>316.39999389648</ele>
        <time>2022-05-01T06:44:21Z</time>
      </trkpt>
      <trkpt lat="45.212" lon="4.70418">
        <ele>315.60000610352</ele>
        <time>2022-05-01T06:44:23Z</time>
      </trkpt>
      <trkpt lat="45.21201" lon="4.70396">
        <ele>312.39999389648</ele>
        <time>2022-05-01T06:44:29Z</time>
      </trkpt>
      <trkpt lat="45.21203" lon="4.70376">
        <ele>309.39999389648</ele>
        <time>2022-05-01T06:44:35Z</time>
      </trkpt>
      <trkpt lat="45.21203" lon="4.70373">
        <ele>308.60000610352</ele>
        <time>2022-05-01T06:44:36Z</time>
      </trkpt>
      <trkpt lat="45.21202" lon="4.70362">
        <ele>305.60000610352</ele>
        <time>2022-05-01T06:44:43Z</time>
      </trkpt>
      <trkpt lat="45.21193" lon="4.70369">
        <ele>304.20001220703</ele>
        <time>2022-05-01T06:44:48Z</time>
      </trkpt>
      <trkpt lat="45.21184" lon="4.70384">
        <ele>301.79998779297</ele>
        <time>2022-05-01T06:44:53Z</time>
      </trkpt>
      <trkpt lat="45.21175" lon="4.70399">
        <ele>299.79998779297</ele>
        <time>2022-05-01T06:44:58Z</time>
      </trkpt>
      <trkpt lat="45.21163" lon="4.7041">
        <ele>296.60000610352</ele>
        <time>2022-05-01T06:45:05Z</time>
      </trkpt>
      <trkpt lat="45.21159" lon="4.70418">
        <ele>294.39999389648</ele>
        <time>2022-05-01T06:45:08Z</time>
      </trkpt>
      <trkpt lat="45.21157" lon="4.70421">
        <ele>294.20001220703</ele>
        <time>2022-05-01T06:45:09Z</time>
      </trkpt>
      <trkpt lat="45.21138" lon="4.70443">
        <ele>290.39999389648</ele>
        <time>2022-05-01T06:45:16Z</time>
      </trkpt>
      <trkpt lat="45.21128" lon="4.70445">
        <ele>288.60000610352</ele>
        <time>2022-05-01T06:45:19Z</time>
      </trkpt>
      <trkpt lat="45.21115" lon="4.70452">
        <ele>286.79998779297</ele>
        <time>2022-05-01T06:45:23Z</time>
      </trkpt>
      <trkpt lat="45.21103" lon="4.70462">
        <ele>283.60000610352</ele>
        <time>2022-05-01T06:45:29Z</time>
      </trkpt>
      <trkpt lat="45.21091" lon="4.70469">
        <ele>280.20001220703</ele>
        <time>2022-05-01T06:45:34Z</time>
      </trkpt>
      <trkpt lat="45.21084" lon="4.7047">
        <ele>278.79998779297</ele>
        <time>2022-05-01T06:45:37Z</time>
      </trkpt>
      <trkpt lat="45.21078" lon="4.70477">
        <ele>277.20001220703</ele>
        <time>2022-05-01T06:45:40Z</time>
      </trkpt>
      <trkpt lat="45.21072" lon="4.70483">
        <ele>276</ele>
        <time>2022-05-01T06:45:42Z</time>
      </trkpt>
      <trkpt lat="45.21042" lon="4.70499">
        <ele>272.20001220703</ele>
        <time>2022-05-01T06:45:50Z</time>
      </trkpt>
      <trkpt lat="45.21038" lon="4.70503">
        <ele>272.20001220703</ele>
        <time>2022-05-01T06:45:51Z</time>
      </trkpt>
      <trkpt lat="45.2103" lon="4.70512">
        <ele>271.20001220703</ele>
        <time>2022-05-01T06:45:53Z</time>
      </trkpt>
      <trkpt lat="45.2102" lon="4.70526">
        <ele>269.79998779297</ele>
        <time>2022-05-01T06:45:56Z</time>
      </trkpt>
      <trkpt lat="45.21017" lon="4.70525">
        <ele>266.79998779297</ele>
        <time>2022-05-01T06:46:00Z</time>
      </trkpt>
      <trkpt lat="45.21019" lon="4.70524">
        <ele>266.60000610352</ele>
        <time>2022-05-01T06:46:01Z</time>
      </trkpt>
      <trkpt lat="45.21026" lon="4.70515">
        <ele>265.60000610352</ele>
        <time>2022-05-01T06:46:05Z</time>
      </trkpt>
      <trkpt lat="45.21052" lon="4.70479">
        <ele>265.39999389648</ele>
        <time>2022-05-01T06:46:16Z</time>
      </trkpt>
      <trkpt lat="45.21068" lon="4.70458">
        <ele>265.60000610352</ele>
        <time>2022-05-01T06:46:23Z</time>
      </trkpt>
      <trkpt lat="45.2108" lon="4.70413">
        <ele>261.79998779297</ele>
        <time>2022-05-01T06:46:30Z</time>
      </trkpt>
      <trkpt lat="45.21083" lon="4.70409">
        <ele>261</ele>
        <time>2022-05-01T06:46:31Z</time>
      </trkpt>
      <trkpt lat="45.21084" lon="4.70406">
        <ele>260</ele>
        <time>2022-05-01T06:46:32Z</time>
      </trkpt>
      <trkpt lat="45.21081" lon="4.70403">
        <ele>256.39999389648</ele>
        <time>2022-05-01T06:46:35Z</time>
      </trkpt>
      <trkpt lat="45.2108" lon="4.70407">
        <ele>256</ele>
        <time>2022-05-01T06:46:36Z</time>
      </trkpt>
      <trkpt lat="45.21069" lon="4.70427">
        <ele>254.39999389648</ele>
        <time>2022-05-01T06:46:41Z</time>
      </trkpt>
      <trkpt lat="45.21066" lon="4.70431">
        <ele>253.60000610352</ele>
        <time>2022-05-01T06:46:43Z</time>
      </trkpt>
      <trkpt lat="45.21066" lon="4.70431">
        <ele>251.60000610352</ele>
        <time>2022-05-01T06:47:07Z</time>
      </trkpt>
      <trkpt lat="45.21066" lon="4.7043">
        <ele>251.60000610352</ele>
        <time>2022-05-01T06:47:56Z</time>
      </trkpt>
      <trkpt lat="45.21075" lon="4.70406">
        <ele>251.19999694824</ele>
        <time>2022-05-01T06:48:03Z</time>
      </trkpt>
      <trkpt lat="45.21084" lon="4.70384">
        <ele>250.19999694824</ele>
        <time>2022-05-01T06:48:07Z</time>
      </trkpt>
      <trkpt lat="45.21089" lon="4.70364">
        <ele>248.60000610352</ele>
        <time>2022-05-01T06:48:10Z</time>
      </trkpt>
      <trkpt lat="45.21097" lon="4.7034">
        <ele>246.39999389648</ele>
        <time>2022-05-01T06:48:14Z</time>
      </trkpt>
      <trkpt lat="45.21079" lon="4.70316">
        <ele>243.19999694824</ele>
        <time>2022-05-01T06:48:20Z</time>
      </trkpt>
      <trkpt lat="45.21071" lon="4.70307">
        <ele>242.39999389648</ele>
        <time>2022-05-01T06:48:22Z</time>
      </trkpt>
      <trkpt lat="45.21051" lon="4.70295">
        <ele>241.60000610352</ele>
        <time>2022-05-01T06:48:29Z</time>
      </trkpt>
      <trkpt lat="45.21038" lon="4.70311">
        <ele>242.19999694824</ele>
        <time>2022-05-01T06:48:35Z</time>
      </trkpt>
      <trkpt lat="45.21035" lon="4.70318">
        <ele>242.80000305176</ele>
        <time>2022-05-01T06:48:39Z</time>
      </trkpt>
      <trkpt lat="45.21032" lon="4.70341">
        <ele>245</ele>
        <time>2022-05-01T06:48:47Z</time>
      </trkpt>
      <trkpt lat="45.21024" lon="4.70363">
        <ele>246</ele>
        <time>2022-05-01T06:48:53Z</time>
      </trkpt>
      <trkpt lat="45.2102" lon="4.70369">
        <ele>246.39999389648</ele>
        <time>2022-05-01T06:48:54Z</time>
      </trkpt>
      <trkpt lat="45.21016" lon="4.70379">
        <ele>247.19999694824</ele>
        <time>2022-05-01T06:48:58Z</time>
      </trkpt>
      <trkpt lat="45.21004" lon="4.70391">
        <ele>248.39999389648</ele>
        <time>2022-05-01T06:49:05Z</time>
      </trkpt>
      <trkpt lat="45.20987" lon="4.70407">
        <ele>251</ele>
        <time>2022-05-01T06:49:13Z</time>
      </trkpt>
      <trkpt lat="45.20969" lon="4.70407">
        <ele>254.39999389648</ele>
        <time>2022-05-01T06:49:22Z</time>
      </trkpt>
      <trkpt lat="45.20964" lon="4.70408">
        <ele>255.19999694824</ele>
        <time>2022-05-01T06:49:24Z</time>
      </trkpt>
      <trkpt lat="45.20963" lon="4.70407">
        <ele>255.80000305176</ele>
        <time>2022-05-01T06:49:25Z</time>
      </trkpt>
      <trkpt lat="45.20965" lon="4.70404">
        <ele>258.39999389648</ele>
        <time>2022-05-01T06:49:34Z</time>
      </trkpt>
      <trkpt lat="45.20969" lon="4.70402">
        <ele>259.79998779297</ele>
        <time>2022-05-01T06:49:40Z</time>
      </trkpt>
      <trkpt lat="45.20979" lon="4.70385">
        <ele>262</ele>
        <time>2022-05-01T06:49:49Z</time>
      </trkpt>
      <trkpt lat="45.20987" lon="4.70359">
        <ele>264.39999389648</ele>
        <time>2022-05-01T06:50:03Z</time>
      </trkpt>
      <trkpt lat="45.2099" lon="4.70348">
        <ele>265.79998779297</ele>
        <time>2022-05-01T06:50:08Z</time>
      </trkpt>
      <trkpt lat="45.20988" lon="4.70334">
        <ele>267.20001220703</ele>
        <time>2022-05-01T06:50:14Z</time>
      </trkpt>
      <trkpt lat="45.20989" lon="4.70326">
        <ele>267.60000610352</ele>
        <time>2022-05-01T06:50:18Z</time>
      </trkpt>
      <trkpt lat="45.20989" lon="4.70323">
        <ele>267.79998779297</ele>
        <time>2022-05-01T06:50:19Z</time>
      </trkpt>
      <trkpt lat="45.20989" lon="4.70312">
        <ele>269</ele>
        <time>2022-05-01T06:50:25Z</time>
      </trkpt>
      <trkpt lat="45.20993" lon="4.70302">
        <ele>270.60000610352</ele>
        <time>2022-05-01T06:50:31Z</time>
      </trkpt>
      <trkpt lat="45.20988" lon="4.70284">
        <ele>273.39999389648</ele>
        <time>2022-05-01T06:50:40Z</time>
      </trkpt>
      <trkpt lat="45.2099" lon="4.70272">
        <ele>275.60000610352</ele>
        <time>2022-05-01T06:50:48Z</time>
      </trkpt>
      <trkpt lat="45.20985" lon="4.7026">
        <ele>276.60000610352</ele>
        <time>2022-05-01T06:50:53Z</time>
      </trkpt>
      <trkpt lat="45.20983" lon="4.70255">
        <ele>277.60000610352</ele>
        <time>2022-05-01T06:50:57Z</time>
      </trkpt>
      <trkpt lat="45.20984" lon="4.7025">
        <ele>278.60000610352</ele>
        <time>2022-05-01T06:51:01Z</time>
      </trkpt>
      <trkpt lat="45.20981" lon="4.70245">
        <ele>279.79998779297</ele>
        <time>2022-05-01T06:51:06Z</time>
      </trkpt>
      <trkpt lat="45.20981" lon="4.70239">
        <ele>281</ele>
        <time>2022-05-01T06:51:12Z</time>
      </trkpt>
      <trkpt lat="45.20981" lon="4.70241">
        <ele>281.60000610352</ele>
        <time>2022-05-01T06:51:15Z</time>
      </trkpt>
      <trkpt lat="45.2098" lon="4.70254">
        <ele>284.39999389648</ele>
        <time>2022-05-01T06:51:27Z</time>
      </trkpt>
      <trkpt lat="45.2098" lon="4.70256">
        <ele>285</ele>
        <time>2022-05-01T06:51:29Z</time>
      </trkpt>
      <trkpt lat="45.20977" lon="4.70264">
        <ele>286</ele>
        <time>2022-05-01T06:51:34Z</time>
      </trkpt>
      <trkpt lat="45.20976" lon="4.70269">
        <ele>286.79998779297</ele>
        <time>2022-05-01T06:51:38Z</time>
      </trkpt>
      <trkpt lat="45.20971" lon="4.70275">
        <ele>287.60000610352</ele>
        <time>2022-05-01T06:51:42Z</time>
      </trkpt>
      <trkpt lat="45.20955" lon="4.70291">
        <ele>288.79998779297</ele>
        <time>2022-05-01T06:51:53Z</time>
      </trkpt>
      <trkpt lat="45.20949" lon="4.70294">
        <ele>290</ele>
        <time>2022-05-01T06:52:01Z</time>
      </trkpt>
      <trkpt lat="45.20936" lon="4.70291">
        <ele>291.20001220703</ele>
        <time>2022-05-01T06:52:10Z</time>
      </trkpt>
      <trkpt lat="45.20923" lon="4.70294">
        <ele>292.39999389648</ele>
        <time>2022-05-01T06:52:16Z</time>
      </trkpt>
      <trkpt lat="45.20921" lon="4.70293">
        <ele>292.60000610352</ele>
        <time>2022-05-01T06:52:19Z</time>
      </trkpt>
      <trkpt lat="45.20909" lon="4.70297">
        <ele>293.60000610352</ele>
        <time>2022-05-01T06:52:23Z</time>
      </trkpt>
      <trkpt lat="45.2089" lon="4.70309">
        <ele>295.60000610352</ele>
        <time>2022-05-01T06:52:31Z</time>
      </trkpt>
      <trkpt lat="45.20873" lon="4.70325">
        <ele>298</ele>
        <time>2022-05-01T06:52:40Z</time>
      </trkpt>
      <trkpt lat="45.20854" lon="4.70335">
        <ele>299</ele>
        <time>2022-05-01T06:52:48Z</time>
      </trkpt>
      <trkpt lat="45.20851" lon="4.70336">
        <ele>299.39999389648</ele>
        <time>2022-05-01T06:52:49Z</time>
      </trkpt>
      <trkpt lat="45.20848" lon="4.70345">
        <ele>301.39999389648</ele>
        <time>2022-05-01T06:52:57Z</time>
      </trkpt>
      <trkpt lat="45.20841" lon="4.70356">
        <ele>303.60000610352</ele>
        <time>2022-05-01T06:53:04Z</time>
      </trkpt>
      <trkpt lat="45.20826" lon="4.7037">
        <ele>305</ele>
        <time>2022-05-01T06:53:12Z</time>
      </trkpt>
      <trkpt lat="45.20826" lon="4.70369">
        <ele>305.39999389648</ele>
        <time>2022-05-01T06:53:13Z</time>
      </trkpt>
      <trkpt lat="45.2083" lon="4.7036">
        <ele>306.79998779297</ele>
        <time>2022-05-01T06:53:18Z</time>
      </trkpt>
      <trkpt lat="45.20832" lon="4.70351">
        <ele>307.39999389648</ele>
        <time>2022-05-01T06:53:22Z</time>
      </trkpt>
      <trkpt lat="45.20833" lon="4.7034">
        <ele>308.39999389648</ele>
        <time>2022-05-01T06:53:27Z</time>
      </trkpt>
      <trkpt lat="45.20837" lon="4.70327">
        <ele>309.39999389648</ele>
        <time>2022-05-01T06:53:33Z</time>
      </trkpt>
      <trkpt lat="45.20842" lon="4.70315">
        <ele>310.79998779297</ele>
        <time>2022-05-01T06:53:38Z</time>
      </trkpt>
      <trkpt lat="45.20846" lon="4.70305">
        <ele>311.39999389648</ele>
        <time>2022-05-01T06:53:43Z</time>
      </trkpt>
      <trkpt lat="45.20849" lon="4.70296">
        <ele>312.39999389648</ele>
        <time>2022-05-01T06:53:48Z</time>
      </trkpt>
      <trkpt lat="45.2085" lon="4.70288">
        <ele>313.20001220703</ele>
        <time>2022-05-01T06:53:52Z</time>
      </trkpt>
      <trkpt lat="45.20851" lon="4.70276">
        <ele>314.79998779297</ele>
        <time>2022-05-01T06:53:59Z</time>
      </trkpt>
      <trkpt lat="45.20849" lon="4.70251">
        <ele>317.79998779297</ele>
        <time>2022-05-01T06:54:13Z</time>
      </trkpt>
      <trkpt lat="45.20841" lon="4.70223">
        <ele>320</ele>
        <time>2022-05-01T06:54:25Z</time>
      </trkpt>
      <trkpt lat="45.2084" lon="4.70217">
        <ele>320.60000610352</ele>
        <time>2022-05-01T06:54:28Z</time>
      </trkpt>
      <trkpt lat="45.20832" lon="4.70204">
        <ele>321.60000610352</ele>
        <time>2022-05-01T06:54:32Z</time>
      </trkpt>
      <trkpt lat="45.20831" lon="4.70201">
        <ele>322</ele>
        <time>2022-05-01T06:54:34Z</time>
      </trkpt>
      <trkpt lat="45.20832" lon="4.70194">
        <ele>323</ele>
        <time>2022-05-01T06:54:38Z</time>
      </trkpt>
      <trkpt lat="45.2083" lon="4.70179">
        <ele>324.79998779297</ele>
        <time>2022-05-01T06:54:45Z</time>
      </trkpt>
      <trkpt lat="45.20824" lon="4.70162">
        <ele>326.60000610352</ele>
        <time>2022-05-01T06:54:52Z</time>
      </trkpt>
      <trkpt lat="45.20822" lon="4.70152">
        <ele>327.39999389648</ele>
        <time>2022-05-01T06:54:58Z</time>
      </trkpt>
      <trkpt lat="45.20822" lon="4.70151">
        <ele>327.79998779297</ele>
        <time>2022-05-01T06:54:59Z</time>
      </trkpt>
      <trkpt lat="45.20822" lon="4.70144">
        <ele>328.60000610352</ele>
        <time>2022-05-01T06:55:03Z</time>
      </trkpt>
      <trkpt lat="45.20819" lon="4.70131">
        <ele>329.20001220703</ele>
        <time>2022-05-01T06:55:06Z</time>
      </trkpt>
      <trkpt lat="45.20808" lon="4.70125">
        <ele>330.60000610352</ele>
        <time>2022-05-01T06:55:14Z</time>
      </trkpt>
      <trkpt lat="45.20805" lon="4.70123">
        <ele>331</ele>
        <time>2022-05-01T06:55:17Z</time>
      </trkpt>
      <trkpt lat="45.20792" lon="4.70122">
        <ele>333.39999389648</ele>
        <time>2022-05-01T06:55:27Z</time>
      </trkpt>
      <trkpt lat="45.20778" lon="4.70121">
        <ele>334.60000610352</ele>
        <time>2022-05-01T06:55:34Z</time>
      </trkpt>
      <trkpt lat="45.20756" lon="4.70115">
        <ele>335.79998779297</ele>
        <time>2022-05-01T06:55:43Z</time>
      </trkpt>
      <trkpt lat="45.20744" lon="4.70116">
        <ele>336.60000610352</ele>
        <time>2022-05-01T06:55:48Z</time>
      </trkpt>
      <trkpt lat="45.20739" lon="4.70114">
        <ele>337</ele>
        <time>2022-05-01T06:55:50Z</time>
      </trkpt>
      <trkpt lat="45.20735" lon="4.7011">
        <ele>337.39999389648</ele>
        <time>2022-05-01T06:55:52Z</time>
      </trkpt>
      <trkpt lat="45.2073" lon="4.70108">
        <ele>338</ele>
        <time>2022-05-01T06:55:55Z</time>
      </trkpt>
      <trkpt lat="45.20718" lon="4.70096">
        <ele>340</ele>
        <time>2022-05-01T06:56:04Z</time>
      </trkpt>
      <trkpt lat="45.20709" lon="4.70088">
        <ele>341.39999389648</ele>
        <time>2022-05-01T06:56:12Z</time>
      </trkpt>
      <trkpt lat="45.20703" lon="4.70081">
        <ele>342.79998779297</ele>
        <time>2022-05-01T06:56:18Z</time>
      </trkpt>
      <trkpt lat="45.207" lon="4.70078">
        <ele>343.60000610352</ele>
        <time>2022-05-01T06:56:22Z</time>
      </trkpt>
      <trkpt lat="45.2069" lon="4.70075">
        <ele>345.39999389648</ele>
        <time>2022-05-01T06:56:29Z</time>
      </trkpt>
      <trkpt lat="45.2069" lon="4.70084">
        <ele>346.79998779297</ele>
        <time>2022-05-01T06:56:34Z</time>
      </trkpt>
      <trkpt lat="45.20687" lon="4.70109">
        <ele>349.39999389648</ele>
        <time>2022-05-01T06:56:47Z</time>
      </trkpt>
      <trkpt lat="45.20678" lon="4.70114">
        <ele>350.60000610352</ele>
        <time>2022-05-01T06:56:54Z</time>
      </trkpt>
      <trkpt lat="45.20672" lon="4.701">
        <ele>353.20001220703</ele>
        <time>2022-05-01T06:57:02Z</time>
      </trkpt>
      <trkpt lat="45.20665" lon="4.70088">
        <ele>354.39999389648</ele>
        <time>2022-05-01T06:57:09Z</time>
      </trkpt>
      <trkpt lat="45.20653" lon="4.70077">
        <ele>356.39999389648</ele>
        <time>2022-05-01T06:57:19Z</time>
      </trkpt>
      <trkpt lat="45.20643" lon="4.70062">
        <ele>358.39999389648</ele>
        <time>2022-05-01T06:57:29Z</time>
      </trkpt>
      <trkpt lat="45.20633" lon="4.70048">
        <ele>359.60000610352</ele>
        <time>2022-05-01T06:57:36Z</time>
      </trkpt>
      <trkpt lat="45.20618" lon="4.70025">
        <ele>361</ele>
        <time>2022-05-01T06:57:45Z</time>
      </trkpt>
      <trkpt lat="45.20612" lon="4.7001">
        <ele>361.39999389648</ele>
        <time>2022-05-01T06:57:50Z</time>
      </trkpt>
      <trkpt lat="45.20611" lon="4.69981">
        <ele>362.20001220703</ele>
        <time>2022-05-01T06:57:56Z</time>
      </trkpt>
      <trkpt lat="45.20611" lon="4.69976">
        <ele>362.39999389648</ele>
        <time>2022-05-01T06:57:57Z</time>
      </trkpt>
      <trkpt lat="45.20615" lon="4.69939">
        <ele>362.60000610352</ele>
        <time>2022-05-01T06:58:04Z</time>
      </trkpt>
      <trkpt lat="45.2062" lon="4.69921">
        <ele>362.79998779297</ele>
        <time>2022-05-01T06:58:08Z</time>
      </trkpt>
      <trkpt lat="45.20644" lon="4.69818">
        <ele>364.39999389648</ele>
        <time>2022-05-01T06:58:30Z</time>
      </trkpt>
      <trkpt lat="45.20646" lon="4.69801">
        <ele>364.60000610352</ele>
        <time>2022-05-01T06:58:33Z</time>
      </trkpt>
      <trkpt lat="45.20664" lon="4.69736">
        <ele>365.39999389648</ele>
        <time>2022-05-01T06:58:45Z</time>
      </trkpt>
      <trkpt lat="45.20681" lon="4.69634">
        <ele>367.60000610352</ele>
        <time>2022-05-01T06:59:05Z</time>
      </trkpt>
      <trkpt lat="45.2067" lon="4.69577">
        <ele>369.39999389648</ele>
        <time>2022-05-01T06:59:18Z</time>
      </trkpt>
      <trkpt lat="45.20659" lon="4.695">
        <ele>371.79998779297</ele>
        <time>2022-05-01T06:59:35Z</time>
      </trkpt>
      <trkpt lat="45.20652" lon="4.69417">
        <ele>373.79998779297</ele>
        <time>2022-05-01T06:59:52Z</time>
      </trkpt>
      <trkpt lat="45.20649" lon="4.69387">
        <ele>374.20001220703</ele>
        <time>2022-05-01T06:59:57Z</time>
      </trkpt>
      <trkpt lat="45.20643" lon="4.69328">
        <ele>373.60000610352</ele>
        <time>2022-05-01T07:00:05Z</time>
      </trkpt>
      <trkpt lat="45.20628" lon="4.69281">
        <ele>372.39999389648</ele>
        <time>2022-05-01T07:00:12Z</time>
      </trkpt>
      <trkpt lat="45.20601" lon="4.69245">
        <ele>372</ele>
        <time>2022-05-01T07:00:19Z</time>
      </trkpt>
      <trkpt lat="45.20591" lon="4.69196">
        <ele>372.20001220703</ele>
        <time>2022-05-01T07:00:26Z</time>
      </trkpt>
      <trkpt lat="45.20593" lon="4.69182">
        <ele>372.20001220703</ele>
        <time>2022-05-01T07:00:28Z</time>
      </trkpt>
      <trkpt lat="45.20607" lon="4.69121">
        <ele>372</ele>
        <time>2022-05-01T07:00:37Z</time>
      </trkpt>
      <trkpt lat="45.20595" lon="4.69083">
        <ele>372.60000610352</ele>
        <time>2022-05-01T07:00:45Z</time>
      </trkpt>
      <trkpt lat="45.20569" lon="4.69039">
        <ele>375.79998779297</ele>
        <time>2022-05-01T07:00:58Z</time>
      </trkpt>
      <trkpt lat="45.20555" lon="4.68982">
        <ele>378.79998779297</ele>
        <time>2022-05-01T07:01:13Z</time>
      </trkpt>
      <trkpt lat="45.20555" lon="4.68928">
        <ele>381.79998779297</ele>
        <time>2022-05-01T07:01:27Z</time>
      </trkpt>
      <trkpt lat="45.20554" lon="4.68893">
        <ele>384</ele>
        <time>2022-05-01T07:01:37Z</time>
      </trkpt>
      <trkpt lat="45.20549" lon="4.68833">
        <ele>386.60000610352</ele>
        <time>2022-05-01T07:01:52Z</time>
      </trkpt>
      <trkpt lat="45.20541" lon="4.68796">
        <ele>387.20001220703</ele>
        <time>2022-05-01T07:02:01Z</time>
      </trkpt>
      <trkpt lat="45.20532" lon="4.68794">
        <ele>387.39999389648</ele>
        <time>2022-05-01T07:02:05Z</time>
      </trkpt>
      <trkpt lat="45.20519" lon="4.68798">
        <ele>387.79998779297</ele>
        <time>2022-05-01T07:02:11Z</time>
      </trkpt>
      <trkpt lat="45.20506" lon="4.68822">
        <ele>390</ele>
        <time>2022-05-01T07:02:20Z</time>
      </trkpt>
      <trkpt lat="45.20484" lon="4.68829">
        <ele>392.20001220703</ele>
        <time>2022-05-01T07:02:28Z</time>
      </trkpt>
      <trkpt lat="45.20461" lon="4.68838">
        <ele>394.39999389648</ele>
        <time>2022-05-01T07:02:37Z</time>
      </trkpt>
      <trkpt lat="45.20441" lon="4.6886">
        <ele>394.60000610352</ele>
        <time>2022-05-01T07:02:45Z</time>
      </trkpt>
      <trkpt lat="45.20419" lon="4.68883">
        <ele>394</ele>
        <time>2022-05-01T07:02:51Z</time>
      </trkpt>
      <trkpt lat="45.20359" lon="4.68922">
        <ele>392</ele>
        <time>2022-05-01T07:03:03Z</time>
      </trkpt>
      <trkpt lat="45.20286" lon="4.68993">
        <ele>392.20001220703</ele>
        <time>2022-05-01T07:03:20Z</time>
      </trkpt>
      <trkpt lat="45.20277" lon="4.69005">
        <ele>392.20001220703</ele>
        <time>2022-05-01T07:03:23Z</time>
      </trkpt>
      <trkpt lat="45.20263" lon="4.69012">
        <ele>392.39999389648</ele>
        <time>2022-05-01T07:03:27Z</time>
      </trkpt>
      <trkpt lat="45.20235" lon="4.69015">
        <ele>394.39999389648</ele>
        <time>2022-05-01T07:03:39Z</time>
      </trkpt>
      <trkpt lat="45.20213" lon="4.69022">
        <ele>396.79998779297</ele>
        <time>2022-05-01T07:03:50Z</time>
      </trkpt>
      <trkpt lat="45.20189" lon="4.69008">
        <ele>398.79998779297</ele>
        <time>2022-05-01T07:04:02Z</time>
      </trkpt>
      <trkpt lat="45.20187" lon="4.69005">
        <ele>399</ele>
        <time>2022-05-01T07:04:03Z</time>
      </trkpt>
      <trkpt lat="45.20174" lon="4.68991">
        <ele>399.79998779297</ele>
        <time>2022-05-01T07:04:08Z</time>
      </trkpt>
      <trkpt lat="45.2016" lon="4.68977">
        <ele>400.60000610352</ele>
        <time>2022-05-01T07:04:12Z</time>
      </trkpt>
      <trkpt lat="45.20138" lon="4.6896">
        <ele>401.79998779297</ele>
        <time>2022-05-01T07:04:19Z</time>
      </trkpt>
      <trkpt lat="45.20133" lon="4.68954">
        <ele>402</ele>
        <time>2022-05-01T07:04:21Z</time>
      </trkpt>
      <trkpt lat="45.20122" lon="4.68945">
        <ele>402</ele>
        <time>2022-05-01T07:04:24Z</time>
      </trkpt>
      <trkpt lat="45.20107" lon="4.68928">
        <ele>402</ele>
        <time>2022-05-01T07:04:28Z</time>
      </trkpt>
      <trkpt lat="45.20102" lon="4.68924">
        <ele>402</ele>
        <time>2022-05-01T07:04:29Z</time>
      </trkpt>
      <trkpt lat="45.20087" lon="4.68913">
        <ele>402</ele>
        <time>2022-05-01T07:04:33Z</time>
      </trkpt>
      <trkpt lat="45.20081" lon="4.68903">
        <ele>402</ele>
        <time>2022-05-01T07:04:37Z</time>
      </trkpt>
      <trkpt lat="45.20095" lon="4.68892">
        <ele>402.39999389648</ele>
        <time>2022-05-01T07:04:46Z</time>
      </trkpt>
      <trkpt lat="45.20102" lon="4.68891">
        <ele>403.20001220703</ele>
        <time>2022-05-01T07:04:50Z</time>
      </trkpt>
      <trkpt lat="45.20108" lon="4.68888">
        <ele>403.60000610352</ele>
        <time>2022-05-01T07:04:54Z</time>
      </trkpt>
      <trkpt lat="45.20132" lon="4.68865">
        <ele>405.39999389648</ele>
        <time>2022-05-01T07:05:08Z</time>
      </trkpt>
      <trkpt lat="45.20147" lon="4.68853">
        <ele>406.79998779297</ele>
        <time>2022-05-01T07:05:18Z</time>
      </trkpt>
      <trkpt lat="45.2016" lon="4.68837">
        <ele>409.20001220703</ele>
        <time>2022-05-01T07:05:26Z</time>
      </trkpt>
      <trkpt lat="45.20159" lon="4.68811">
        <ele>410</ele>
        <time>2022-05-01T07:05:33Z</time>
      </trkpt>
      <trkpt lat="45.20153" lon="4.68788">
        <ele>410.60000610352</ele>
        <time>2022-05-01T07:05:40Z</time>
      </trkpt>
      <trkpt lat="45.20147" lon="4.68778">
        <ele>410.79998779297</ele>
        <time>2022-05-01T07:05:42Z</time>
      </trkpt>
      <trkpt lat="45.20142" lon="4.6876">
        <ele>411.39999389648</ele>
        <time>2022-05-01T07:05:47Z</time>
      </trkpt>
      <trkpt lat="45.20124" lon="4.68733">
        <ele>411.79998779297</ele>
        <time>2022-05-01T07:05:53Z</time>
      </trkpt>
      <trkpt lat="45.20114" lon="4.68717">
        <ele>412.20001220703</ele>
        <time>2022-05-01T07:05:59Z</time>
      </trkpt>
      <trkpt lat="45.20104" lon="4.68696">
        <ele>413</ele>
        <time>2022-05-01T07:06:04Z</time>
      </trkpt>
      <trkpt lat="45.20102" lon="4.68695">
        <ele>413.60000610352</ele>
        <time>2022-05-01T07:06:06Z</time>
      </trkpt>
      <trkpt lat="45.20083" lon="4.68692">
        <ele>414.79998779297</ele>
        <time>2022-05-01T07:06:13Z</time>
      </trkpt>
      <trkpt lat="45.2007" lon="4.68688">
        <ele>415.20001220703</ele>
        <time>2022-05-01T07:06:17Z</time>
      </trkpt>
      <trkpt lat="45.20067" lon="4.68688">
        <ele>415.20001220703</ele>
        <time>2022-05-01T07:06:18Z</time>
      </trkpt>
      <trkpt lat="45.20048" lon="4.68683">
        <ele>415.60000610352</ele>
        <time>2022-05-01T07:06:23Z</time>
      </trkpt>
      <trkpt lat="45.20039" lon="4.68678">
        <ele>415.60000610352</ele>
        <time>2022-05-01T07:06:26Z</time>
      </trkpt>
      <trkpt lat="45.2003" lon="4.68673">
        <ele>415.60000610352</ele>
        <time>2022-05-01T07:06:28Z</time>
      </trkpt>
      <trkpt lat="45.20024" lon="4.6864">
        <ele>415.79998779297</ele>
        <time>2022-05-01T07:06:35Z</time>
      </trkpt>
      <trkpt lat="45.20026" lon="4.68633">
        <ele>416</ele>
        <time>2022-05-01T07:06:37Z</time>
      </trkpt>
      <trkpt lat="45.20039" lon="4.68582">
        <ele>416.39999389648</ele>
        <time>2022-05-01T07:06:48Z</time>
      </trkpt>
      <trkpt lat="45.2005" lon="4.68555">
        <ele>416.39999389648</ele>
        <time>2022-05-01T07:06:54Z</time>
      </trkpt>
      <trkpt lat="45.20053" lon="4.68543">
        <ele>416.39999389648</ele>
        <time>2022-05-01T07:06:56Z</time>
      </trkpt>
      <trkpt lat="45.20058" lon="4.68528">
        <ele>417.20001220703</ele>
        <time>2022-05-01T07:06:59Z</time>
      </trkpt>
      <trkpt lat="45.20059" lon="4.68522">
        <ele>417.39999389648</ele>
        <time>2022-05-01T07:07:00Z</time>
      </trkpt>
      <trkpt lat="45.20063" lon="4.68501">
        <ele>418.79998779297</ele>
        <time>2022-05-01T07:07:04Z</time>
      </trkpt>
      <trkpt lat="45.20065" lon="4.68471">
        <ele>419.60000610352</ele>
        <time>2022-05-01T07:07:08Z</time>
      </trkpt>
      <trkpt lat="45.20079" lon="4.68413">
        <ele>419.60000610352</ele>
        <time>2022-05-01T07:07:13Z</time>
      </trkpt>
      <trkpt lat="45.20082" lon="4.68401">
        <ele>419.39999389648</ele>
        <time>2022-05-01T07:07:14Z</time>
      </trkpt>
      <trkpt lat="45.20101" lon="4.68373">
        <ele>416.79998779297</ele>
        <time>2022-05-01T07:07:19Z</time>
      </trkpt>
      <trkpt lat="45.20106" lon="4.68369">
        <ele>416.60000610352</ele>
        <time>2022-05-01T07:07:20Z</time>
      </trkpt>
      <trkpt lat="45.20121" lon="4.68359">
        <ele>415</ele>
        <time>2022-05-01T07:07:24Z</time>
      </trkpt>
      <trkpt lat="45.20119" lon="4.68351">
        <ele>413.60000610352</ele>
        <time>2022-05-01T07:07:27Z</time>
      </trkpt>
      <trkpt lat="45.20127" lon="4.68321">
        <ele>412</ele>
        <time>2022-05-01T07:07:33Z</time>
      </trkpt>
      <trkpt lat="45.20129" lon="4.68307">
        <ele>411.60000610352</ele>
        <time>2022-05-01T07:07:35Z</time>
      </trkpt>
      <trkpt lat="45.20121" lon="4.6828">
        <ele>410.79998779297</ele>
        <time>2022-05-01T07:07:39Z</time>
      </trkpt>
      <trkpt lat="45.2011" lon="4.68241">
        <ele>410.20001220703</ele>
        <time>2022-05-01T07:07:44Z</time>
      </trkpt>
      <trkpt lat="45.20097" lon="4.68189">
        <ele>409.20001220703</ele>
        <time>2022-05-01T07:07:50Z</time>
      </trkpt>
      <trkpt lat="45.20094" lon="4.68157">
        <ele>408.60000610352</ele>
        <time>2022-05-01T07:07:54Z</time>
      </trkpt>
      <trkpt lat="45.20093" lon="4.68149">
        <ele>408.60000610352</ele>
        <time>2022-05-01T07:07:55Z</time>
      </trkpt>
      <trkpt lat="45.20078" lon="4.68076">
        <ele>408.79998779297</ele>
        <time>2022-05-01T07:08:03Z</time>
      </trkpt>
      <trkpt lat="45.20076" lon="4.68047">
        <ele>408.79998779297</ele>
        <time>2022-05-01T07:08:07Z</time>
      </trkpt>
      <trkpt lat="45.2007" lon="4.68029">
        <ele>408.79998779297</ele>
        <time>2022-05-01T07:08:10Z</time>
      </trkpt>
      <trkpt lat="45.2006" lon="4.67995">
        <ele>409</ele>
        <time>2022-05-01T07:08:15Z</time>
      </trkpt>
      <trkpt lat="45.20048" lon="4.67936">
        <ele>410.60000610352</ele>
        <time>2022-05-01T07:08:27Z</time>
      </trkpt>
      <trkpt lat="45.20037" lon="4.67881">
        <ele>413.60000610352</ele>
        <time>2022-05-01T07:08:39Z</time>
      </trkpt>
      <trkpt lat="45.20021" lon="4.67815">
        <ele>416.39999389648</ele>
        <time>2022-05-01T07:08:53Z</time>
      </trkpt>
      <trkpt lat="45.20017" lon="4.67799">
        <ele>417</ele>
        <time>2022-05-01T07:08:56Z</time>
      </trkpt>
      <trkpt lat="45.20012" lon="4.67764">
        <ele>417.60000610352</ele>
        <time>2022-05-01T07:09:02Z</time>
      </trkpt>
      <trkpt lat="45.20007" lon="4.67736">
        <ele>417.79998779297</ele>
        <time>2022-05-01T07:09:06Z</time>
      </trkpt>
      <trkpt lat="45.19999" lon="4.67693">
        <ele>417.79998779297</ele>
        <time>2022-05-01T07:09:12Z</time>
      </trkpt>
      <trkpt lat="45.19994" lon="4.67667">
        <ele>418</ele>
        <time>2022-05-01T07:09:16Z</time>
      </trkpt>
      <trkpt lat="45.19988" lon="4.67639">
        <ele>418.60000610352</ele>
        <time>2022-05-01T07:09:20Z</time>
      </trkpt>
      <trkpt lat="45.19981" lon="4.6761">
        <ele>418.79998779297</ele>
        <time>2022-05-01T07:09:24Z</time>
      </trkpt>
      <trkpt lat="45.19951" lon="4.67507">
        <ele>417.60000610352</ele>
        <time>2022-05-01T07:09:37Z</time>
      </trkpt>
      <trkpt lat="45.19907" lon="4.67437">
        <ele>413.79998779297</ele>
        <time>2022-05-01T07:09:45Z</time>
      </trkpt>
      <trkpt lat="45.19835" lon="4.67351">
        <ele>409.79998779297</ele>
        <time>2022-05-01T07:09:55Z</time>
      </trkpt>
      <trkpt lat="45.19788" lon="4.67293">
        <ele>406.20001220703</ele>
        <time>2022-05-01T07:10:01Z</time>
      </trkpt>
      <trkpt lat="45.19765" lon="4.67264">
        <ele>404.79998779297</ele>
        <time>2022-05-01T07:10:04Z</time>
      </trkpt>
      <trkpt lat="45.19744" lon="4.67238">
        <ele>404.39999389648</ele>
        <time>2022-05-01T07:10:07Z</time>
      </trkpt>
      <trkpt lat="45.19727" lon="4.67215">
        <ele>404</ele>
        <time>2022-05-01T07:10:10Z</time>
      </trkpt>
      <trkpt lat="45.19713" lon="4.67196">
        <ele>404</ele>
        <time>2022-05-01T07:10:12Z</time>
      </trkpt>
      <trkpt lat="45.19679" lon="4.67156">
        <ele>406.60000610352</ele>
        <time>2022-05-01T07:10:20Z</time>
      </trkpt>
      <trkpt lat="45.19659" lon="4.67129">
        <ele>408.20001220703</ele>
        <time>2022-05-01T07:10:26Z</time>
      </trkpt>
      <trkpt lat="45.19635" lon="4.671">
        <ele>411.20001220703</ele>
        <time>2022-05-01T07:10:34Z</time>
      </trkpt>
      <trkpt lat="45.19603" lon="4.6709">
        <ele>413.39999389648</ele>
        <time>2022-05-01T07:10:44Z</time>
      </trkpt>
      <trkpt lat="45.19544" lon="4.67089">
        <ele>415.39999389648</ele>
        <time>2022-05-01T07:10:59Z</time>
      </trkpt>
      <trkpt lat="45.19531" lon="4.67089">
        <ele>415.60000610352</ele>
        <time>2022-05-01T07:11:02Z</time>
      </trkpt>
      <trkpt lat="45.19513" lon="4.6709">
        <ele>415.79998779297</ele>
        <time>2022-05-01T07:11:05Z</time>
      </trkpt>
      <trkpt lat="45.19492" lon="4.6709">
        <ele>416.20001220703</ele>
        <time>2022-05-01T07:11:10Z</time>
      </trkpt>
      <trkpt lat="45.19419" lon="4.67087">
        <ele>418.39999389648</ele>
        <time>2022-05-01T07:11:28Z</time>
      </trkpt>
      <trkpt lat="45.19373" lon="4.67083">
        <ele>421.60000610352</ele>
        <time>2022-05-01T07:11:41Z</time>
      </trkpt>
      <trkpt lat="45.19326" lon="4.6708">
        <ele>424.60000610352</ele>
        <time>2022-05-01T07:11:55Z</time>
      </trkpt>
      <trkpt lat="45.19268" lon="4.67076">
        <ele>427.79998779297</ele>
        <time>2022-05-01T07:12:12Z</time>
      </trkpt>
      <trkpt lat="45.19237" lon="4.67071">
        <ele>429.39999389648</ele>
        <time>2022-05-01T07:12:21Z</time>
      </trkpt>
      <trkpt lat="45.19182" lon="4.67038">
        <ele>431.79998779297</ele>
        <time>2022-05-01T07:12:38Z</time>
      </trkpt>
      <trkpt lat="45.1917" lon="4.6702">
        <ele>432.79998779297</ele>
        <time>2022-05-01T07:12:43Z</time>
      </trkpt>
      <trkpt lat="45.19138" lon="4.67011">
        <ele>434.20001220703</ele>
        <time>2022-05-01T07:12:52Z</time>
      </trkpt>
      <trkpt lat="45.19062" lon="4.67019">
        <ele>434.60000610352</ele>
        <time>2022-05-01T07:13:08Z</time>
      </trkpt>
      <trkpt lat="45.19034" lon="4.6702">
        <ele>434.39999389648</ele>
        <time>2022-05-01T07:13:13Z</time>
      </trkpt>
      <trkpt lat="45.1899" lon="4.67012">
        <ele>433.60000610352</ele>
        <time>2022-05-01T07:13:21Z</time>
      </trkpt>
      <trkpt lat="45.18944" lon="4.67002">
        <ele>432.79998779297</ele>
        <time>2022-05-01T07:13:32Z</time>
      </trkpt>
      <trkpt lat="45.18794" lon="4.66974">
        <ele>431.20001220703</ele>
        <time>2022-05-01T07:13:59Z</time>
      </trkpt>
      <trkpt lat="45.18655" lon="4.66948">
        <ele>429</ele>
        <time>2022-05-01T07:14:23Z</time>
      </trkpt>
      <trkpt lat="45.18643" lon="4.66946">
        <ele>429</ele>
        <time>2022-05-01T07:14:24Z</time>
      </trkpt>
      <trkpt lat="45.18601" lon="4.66929">
        <ele>428.39999389648</ele>
        <time>2022-05-01T07:14:31Z</time>
      </trkpt>
      <trkpt lat="45.18561" lon="4.66914">
        <ele>428</ele>
        <time>2022-05-01T07:14:38Z</time>
      </trkpt>
      <trkpt lat="45.18545" lon="4.66911">
        <ele>427.60000610352</ele>
        <time>2022-05-01T07:14:41Z</time>
      </trkpt>
      <trkpt lat="45.18469" lon="4.66914">
        <ele>427.20001220703</ele>
        <time>2022-05-01T07:14:54Z</time>
      </trkpt>
      <trkpt lat="45.18429" lon="4.66918">
        <ele>427.60000610352</ele>
        <time>2022-05-01T07:15:01Z</time>
      </trkpt>
      <trkpt lat="45.18381" lon="4.66917">
        <ele>428</ele>
        <time>2022-05-01T07:15:10Z</time>
      </trkpt>
      <trkpt lat="45.18337" lon="4.66914">
        <ele>429</ele>
        <time>2022-05-01T07:15:19Z</time>
      </trkpt>
      <trkpt lat="45.18291" lon="4.66905">
        <ele>430</ele>
        <time>2022-05-01T07:15:30Z</time>
      </trkpt>
      <trkpt lat="45.18262" lon="4.66905">
        <ele>432</ele>
        <time>2022-05-01T07:15:38Z</time>
      </trkpt>
      <trkpt lat="45.18233" lon="4.66917">
        <ele>433.79998779297</ele>
        <time>2022-05-01T07:15:49Z</time>
      </trkpt>
      <trkpt lat="45.18229" lon="4.66905">
        <ele>434.39999389648</ele>
        <time>2022-05-01T07:15:53Z</time>
      </trkpt>
      <trkpt lat="45.18224" lon="4.66885">
        <ele>435.79998779297</ele>
        <time>2022-05-01T07:16:00Z</time>
      </trkpt>
      <trkpt lat="45.18211" lon="4.66856">
        <ele>437.79998779297</ele>
        <time>2022-05-01T07:16:11Z</time>
      </trkpt>
      <trkpt lat="45.18201" lon="4.66829">
        <ele>439.79998779297</ele>
        <time>2022-05-01T07:16:21Z</time>
      </trkpt>
      <trkpt lat="45.18188" lon="4.66809">
        <ele>442.20001220703</ele>
        <time>2022-05-01T07:16:30Z</time>
      </trkpt>
      <trkpt lat="45.18175" lon="4.66795">
        <ele>443.39999389648</ele>
        <time>2022-05-01T07:16:39Z</time>
      </trkpt>
      <trkpt lat="45.18153" lon="4.66774">
        <ele>445.79998779297</ele>
        <time>2022-05-01T07:16:51Z</time>
      </trkpt>
      <trkpt lat="45.18133" lon="4.66758">
        <ele>448.60000610352</ele>
        <time>2022-05-01T07:17:03Z</time>
      </trkpt>
      <trkpt lat="45.18114" lon="4.66742">
        <ele>451.20001220703</ele>
        <time>2022-05-01T07:17:16Z</time>
      </trkpt>
      <trkpt lat="45.18112" lon="4.66738">
        <ele>451.39999389648</ele>
        <time>2022-05-01T07:17:18Z</time>
      </trkpt>
      <trkpt lat="45.18111" lon="4.66732">
        <ele>452</ele>
        <time>2022-05-01T07:17:21Z</time>
      </trkpt>
      <trkpt lat="45.18126" lon="4.66718">
        <ele>453.39999389648</ele>
        <time>2022-05-01T07:17:29Z</time>
      </trkpt>
      <trkpt lat="45.18139" lon="4.66705">
        <ele>453.60000610352</ele>
        <time>2022-05-01T07:17:32Z</time>
      </trkpt>
      <trkpt lat="45.1819" lon="4.66659">
        <ele>452.39999389648</ele>
        <time>2022-05-01T07:17:43Z</time>
      </trkpt>
      <trkpt lat="45.18195" lon="4.66654">
        <ele>452.20001220703</ele>
        <time>2022-05-01T07:17:44Z</time>
      </trkpt>
      <trkpt lat="45.18229" lon="4.66607">
        <ele>451</ele>
        <time>2022-05-01T07:17:56Z</time>
      </trkpt>
      <trkpt lat="45.18229" lon="4.66608">
        <ele>450.79998779297</ele>
        <time>2022-05-01T07:17:57Z</time>
      </trkpt>
      <trkpt lat="45.18234" lon="4.66626">
        <ele>450.20001220703</ele>
        <time>2022-05-01T07:18:09Z</time>
      </trkpt>
      <trkpt lat="45.18255" lon="4.66632">
        <ele>449.60000610352</ele>
        <time>2022-05-01T07:18:13Z</time>
      </trkpt>
      <trkpt lat="45.18324" lon="4.66651">
        <ele>447.20001220703</ele>
        <time>2022-05-01T07:18:24Z</time>
      </trkpt>
      <trkpt lat="45.18336" lon="4.66655">
        <ele>446.79998779297</ele>
        <time>2022-05-01T07:18:26Z</time>
      </trkpt>
      <trkpt lat="45.18341" lon="4.66655">
        <ele>446.60000610352</ele>
        <time>2022-05-01T07:18:28Z</time>
      </trkpt>
      <trkpt lat="45.18362" lon="4.66649">
        <ele>446</ele>
        <time>2022-05-01T07:18:31Z</time>
      </trkpt>
      <trkpt lat="45.1839" lon="4.66646">
        <ele>445.20001220703</ele>
        <time>2022-05-01T07:18:35Z</time>
      </trkpt>
      <trkpt lat="45.18405" lon="4.66645">
        <ele>444.79998779297</ele>
        <time>2022-05-01T07:18:37Z</time>
      </trkpt>
      <trkpt lat="45.18444" lon="4.6663">
        <ele>443.60000610352</ele>
        <time>2022-05-01T07:18:42Z</time>
      </trkpt>
      <trkpt lat="45.18463" lon="4.66607">
        <ele>442.39999389648</ele>
        <time>2022-05-01T07:18:45Z</time>
      </trkpt>
      <trkpt lat="45.18474" lon="4.66579">
        <ele>441</ele>
        <time>2022-05-01T07:18:48Z</time>
      </trkpt>
      <trkpt lat="45.18488" lon="4.66563">
        <ele>440</ele>
        <time>2022-05-01T07:18:53Z</time>
      </trkpt>
      <trkpt lat="45.18513" lon="4.66544">
        <ele>438</ele>
        <time>2022-05-01T07:19:00Z</time>
      </trkpt>
      <trkpt lat="45.1852" lon="4.66521">
        <ele>438.60000610352</ele>
        <time>2022-05-01T07:19:07Z</time>
      </trkpt>
      <trkpt lat="45.18521" lon="4.66518">
        <ele>439</ele>
        <time>2022-05-01T07:19:08Z</time>
      </trkpt>
      <trkpt lat="45.18533" lon="4.66507">
        <ele>441.39999389648</ele>
        <time>2022-05-01T07:19:17Z</time>
      </trkpt>
      <trkpt lat="45.18549" lon="4.66496">
        <ele>443.60000610352</ele>
        <time>2022-05-01T07:19:26Z</time>
      </trkpt>
      <trkpt lat="45.18551" lon="4.66481">
        <ele>445.60000610352</ele>
        <time>2022-05-01T07:19:32Z</time>
      </trkpt>
      <trkpt lat="45.1855" lon="4.6647">
        <ele>446.39999389648</ele>
        <time>2022-05-01T07:19:36Z</time>
      </trkpt>
      <trkpt lat="45.18549" lon="4.66451">
        <ele>446.79998779297</ele>
        <time>2022-05-01T07:19:40Z</time>
      </trkpt>
      <trkpt lat="45.18548" lon="4.66439">
        <ele>447.60000610352</ele>
        <time>2022-05-01T07:19:44Z</time>
      </trkpt>
      <trkpt lat="45.18545" lon="4.66429">
        <ele>448.79998779297</ele>
        <time>2022-05-01T07:19:49Z</time>
      </trkpt>
      <trkpt lat="45.18546" lon="4.66427">
        <ele>449</ele>
        <time>2022-05-01T07:19:50Z</time>
      </trkpt>
      <trkpt lat="45.18544" lon="4.66421">
        <ele>449.79998779297</ele>
        <time>2022-05-01T07:19:53Z</time>
      </trkpt>
      <trkpt lat="45.18538" lon="4.66408">
        <ele>451.39999389648</ele>
        <time>2022-05-01T07:20:00Z</time>
      </trkpt>
      <trkpt lat="45.18536" lon="4.66397">
        <ele>452.60000610352</ele>
        <time>2022-05-01T07:20:04Z</time>
      </trkpt>
      <trkpt lat="45.1853" lon="4.66384">
        <ele>453.60000610352</ele>
        <time>2022-05-01T07:20:09Z</time>
      </trkpt>
      <trkpt lat="45.18528" lon="4.66371">
        <ele>454.60000610352</ele>
        <time>2022-05-01T07:20:13Z</time>
      </trkpt>
      <trkpt lat="45.18523" lon="4.66344">
        <ele>456.39999389648</ele>
        <time>2022-05-01T07:20:23Z</time>
      </trkpt>
      <trkpt lat="45.18523" lon="4.66336">
        <ele>457</ele>
        <time>2022-05-01T07:20:26Z</time>
      </trkpt>
      <trkpt lat="45.18521" lon="4.66323">
        <ele>457.60000610352</ele>
        <time>2022-05-01T07:20:30Z</time>
      </trkpt>
      <trkpt lat="45.18519" lon="4.6632">
        <ele>457.79998779297</ele>
        <time>2022-05-01T07:20:31Z</time>
      </trkpt>
      <trkpt lat="45.18521" lon="4.663">
        <ele>459</ele>
        <time>2022-05-01T07:20:37Z</time>
      </trkpt>
      <trkpt lat="45.18524" lon="4.66293">
        <ele>459.60000610352</ele>
        <time>2022-05-01T07:20:40Z</time>
      </trkpt>
      <trkpt lat="45.18525" lon="4.66274">
        <ele>461</ele>
        <time>2022-05-01T07:20:47Z</time>
      </trkpt>
      <trkpt lat="45.18527" lon="4.66264">
        <ele>462.20001220703</ele>
        <time>2022-05-01T07:20:53Z</time>
      </trkpt>
      <trkpt lat="45.18522" lon="4.66232">
        <ele>464.39999389648</ele>
        <time>2022-05-01T07:21:05Z</time>
      </trkpt>
      <trkpt lat="45.1852" lon="4.66221">
        <ele>465.39999389648</ele>
        <time>2022-05-01T07:21:10Z</time>
      </trkpt>
      <trkpt lat="45.18524" lon="4.66215">
        <ele>466</ele>
        <time>2022-05-01T07:21:14Z</time>
      </trkpt>
      <trkpt lat="45.18534" lon="4.66222">
        <ele>467</ele>
        <time>2022-05-01T07:21:20Z</time>
      </trkpt>
      <trkpt lat="45.18539" lon="4.66223">
        <ele>467.20001220703</ele>
        <time>2022-05-01T07:21:24Z</time>
      </trkpt>
      <trkpt lat="45.18557" lon="4.66238">
        <ele>467</ele>
        <time>2022-05-01T07:21:27Z</time>
      </trkpt>
      <trkpt lat="45.18574" lon="4.66248">
        <ele>466.60000610352</ele>
        <time>2022-05-01T07:21:31Z</time>
      </trkpt>
      <trkpt lat="45.18609" lon="4.66277">
        <ele>465.79998779297</ele>
        <time>2022-05-01T07:21:38Z</time>
      </trkpt>
      <trkpt lat="45.18614" lon="4.66281">
        <ele>465.60000610352</ele>
        <time>2022-05-01T07:21:39Z</time>
      </trkpt>
      <trkpt lat="45.18644" lon="4.6631">
        <ele>464.60000610352</ele>
        <time>2022-05-01T07:21:46Z</time>
      </trkpt>
      <trkpt lat="45.1867" lon="4.66311">
        <ele>464.39999389648</ele>
        <time>2022-05-01T07:21:52Z</time>
      </trkpt>
      <trkpt lat="45.18673" lon="4.66311">
        <ele>464.39999389648</ele>
        <time>2022-05-01T07:21:53Z</time>
      </trkpt>
      <trkpt lat="45.18742" lon="4.66302">
        <ele>464.20001220703</ele>
        <time>2022-05-01T07:22:05Z</time>
      </trkpt>
      <trkpt lat="45.18773" lon="4.6628">
        <ele>462.79998779297</ele>
        <time>2022-05-01T07:22:12Z</time>
      </trkpt>
      <trkpt lat="45.18772" lon="4.66277">
        <ele>462.79998779297</ele>
        <time>2022-05-01T07:22:13Z</time>
      </trkpt>
      <trkpt lat="45.18757" lon="4.66209">
        <ele>464.39999389648</ele>
        <time>2022-05-01T07:22:29Z</time>
      </trkpt>
      <trkpt lat="45.18736" lon="4.66142">
        <ele>466.79998779297</ele>
        <time>2022-05-01T07:22:44Z</time>
      </trkpt>
      <trkpt lat="45.18735" lon="4.66135">
        <ele>467.20001220703</ele>
        <time>2022-05-01T07:22:46Z</time>
      </trkpt>
      <trkpt lat="45.18722" lon="4.66102">
        <ele>468</ele>
        <time>2022-05-01T07:22:53Z</time>
      </trkpt>
      <trkpt lat="45.18712" lon="4.66071">
        <ele>468.39999389648</ele>
        <time>2022-05-01T07:22:59Z</time>
      </trkpt>
      <trkpt lat="45.18702" lon="4.66052">
        <ele>468.79998779297</ele>
        <time>2022-05-01T07:23:03Z</time>
      </trkpt>
      <trkpt lat="45.18692" lon="4.6604">
        <ele>469.20001220703</ele>
        <time>2022-05-01T07:23:05Z</time>
      </trkpt>
      <trkpt lat="45.18683" lon="4.66012">
        <ele>469.20001220703</ele>
        <time>2022-05-01T07:23:10Z</time>
      </trkpt>
      <trkpt lat="45.18659" lon="4.65998">
        <ele>469.39999389648</ele>
        <time>2022-05-01T07:23:16Z</time>
      </trkpt>
      <trkpt lat="45.18655" lon="4.65996">
        <ele>469.39999389648</ele>
        <time>2022-05-01T07:23:17Z</time>
      </trkpt>
      <trkpt lat="45.18644" lon="4.65991">
        <ele>470</ele>
        <time>2022-05-01T07:23:20Z</time>
      </trkpt>
      <trkpt lat="45.18611" lon="4.65986">
        <ele>471.20001220703</ele>
        <time>2022-05-01T07:23:29Z</time>
      </trkpt>
      <trkpt lat="45.18562" lon="4.65981">
        <ele>473.39999389648</ele>
        <time>2022-05-01T07:23:42Z</time>
      </trkpt>
      <trkpt lat="45.18533" lon="4.65978">
        <ele>474.79998779297</ele>
        <time>2022-05-01T07:23:50Z</time>
      </trkpt>
      <trkpt lat="45.18481" lon="4.65969">
        <ele>477.60000610352</ele>
        <time>2022-05-01T07:24:06Z</time>
      </trkpt>
      <trkpt lat="45.18449" lon="4.65963">
        <ele>480.60000610352</ele>
        <time>2022-05-01T07:24:18Z</time>
      </trkpt>
      <trkpt lat="45.18399" lon="4.65956">
        <ele>483.39999389648</ele>
        <time>2022-05-01T07:24:35Z</time>
      </trkpt>
      <trkpt lat="45.18353" lon="4.65949">
        <ele>486.20001220703</ele>
        <time>2022-05-01T07:24:51Z</time>
      </trkpt>
      <trkpt lat="45.18338" lon="4.65947">
        <ele>487.60000610352</ele>
        <time>2022-05-01T07:24:57Z</time>
      </trkpt>
      <trkpt lat="45.18339" lon="4.65935">
        <ele>488.60000610352</ele>
        <time>2022-05-01T07:25:01Z</time>
      </trkpt>
      <trkpt lat="45.18374" lon="4.65874">
        <ele>489.60000610352</ele>
        <time>2022-05-01T07:25:17Z</time>
      </trkpt>
      <trkpt lat="45.18399" lon="4.65836">
        <ele>489.60000610352</ele>
        <time>2022-05-01T07:25:25Z</time>
      </trkpt>
      <trkpt lat="45.18431" lon="4.6574">
        <ele>487.39999389648</ele>
        <time>2022-05-01T07:25:38Z</time>
      </trkpt>
      <trkpt lat="45.1844" lon="4.65703">
        <ele>486.39999389648</ele>
        <time>2022-05-01T07:25:42Z</time>
      </trkpt>
      <trkpt lat="45.18452" lon="4.65583">
        <ele>483.39999389648</ele>
        <time>2022-05-01T07:25:54Z</time>
      </trkpt>
      <trkpt lat="45.1843" lon="4.65513">
        <ele>481.79998779297</ele>
        <time>2022-05-01T07:26:02Z</time>
      </trkpt>
      <trkpt lat="45.18399" lon="4.65477">
        <ele>480.39999389648</ele>
        <time>2022-05-01T07:26:08Z</time>
      </trkpt>
      <trkpt lat="45.18378" lon="4.65461">
        <ele>479.39999389648</ele>
        <time>2022-05-01T07:26:12Z</time>
      </trkpt>
      <trkpt lat="45.18369" lon="4.65456">
        <ele>479.20001220703</ele>
        <time>2022-05-01T07:26:14Z</time>
      </trkpt>
      <trkpt lat="45.18351" lon="4.65407">
        <ele>479.20001220703</ele>
        <time>2022-05-01T07:26:22Z</time>
      </trkpt>
      <trkpt lat="45.18352" lon="4.65388">
        <ele>479.60000610352</ele>
        <time>2022-05-01T07:26:25Z</time>
      </trkpt>
      <trkpt lat="45.18348" lon="4.65352">
        <ele>480.39999389648</ele>
        <time>2022-05-01T07:26:31Z</time>
      </trkpt>
      <trkpt lat="45.18317" lon="4.65297">
        <ele>483.20001220703</ele>
        <time>2022-05-01T07:26:45Z</time>
      </trkpt>
      <trkpt lat="45.18302" lon="4.65226">
        <ele>485.60000610352</ele>
        <time>2022-05-01T07:26:58Z</time>
      </trkpt>
      <trkpt lat="45.18297" lon="4.65189">
        <ele>485.79998779297</ele>
        <time>2022-05-01T07:27:04Z</time>
      </trkpt>
      <trkpt lat="45.18297" lon="4.65165">
        <ele>486</ele>
        <time>2022-05-01T07:27:08Z</time>
      </trkpt>
      <trkpt lat="45.18299" lon="4.65147">
        <ele>486.60000610352</ele>
        <time>2022-05-01T07:27:11Z</time>
      </trkpt>
      <trkpt lat="45.18297" lon="4.65105">
        <ele>486.79998779297</ele>
        <time>2022-05-01T07:27:17Z</time>
      </trkpt>
      <trkpt lat="45.18297" lon="4.6509">
        <ele>486.79998779297</ele>
        <time>2022-05-01T07:27:19Z</time>
      </trkpt>
      <trkpt lat="45.18276" lon="4.65049">
        <ele>486.79998779297</ele>
        <time>2022-05-01T07:27:26Z</time>
      </trkpt>
      <trkpt lat="45.1826" lon="4.65032">
        <ele>486.60000610352</ele>
        <time>2022-05-01T07:27:30Z</time>
      </trkpt>
      <trkpt lat="45.18241" lon="4.65019">
        <ele>486.79998779297</ele>
        <time>2022-05-01T07:27:35Z</time>
      </trkpt>
      <trkpt lat="45.1822" lon="4.65003">
        <ele>487.79998779297</ele>
        <time>2022-05-01T07:27:41Z</time>
      </trkpt>
      <trkpt lat="45.18195" lon="4.64974">
        <ele>490</ele>
        <time>2022-05-01T07:27:52Z</time>
      </trkpt>
      <trkpt lat="45.18171" lon="4.64929">
        <ele>492.20001220703</ele>
        <time>2022-05-01T07:28:04Z</time>
      </trkpt>
      <trkpt lat="45.18162" lon="4.64884">
        <ele>493.79998779297</ele>
        <time>2022-05-01T07:28:14Z</time>
      </trkpt>
      <trkpt lat="45.18153" lon="4.6485">
        <ele>495.20001220703</ele>
        <time>2022-05-01T07:28:23Z</time>
      </trkpt>
      <trkpt lat="45.18144" lon="4.64813">
        <ele>498.20001220703</ele>
        <time>2022-05-01T07:28:34Z</time>
      </trkpt>
      <trkpt lat="45.18127" lon="4.64774">
        <ele>501.20001220703</ele>
        <time>2022-05-01T07:28:46Z</time>
      </trkpt>
      <trkpt lat="45.18109" lon="4.64729">
        <ele>504.20001220703</ele>
        <time>2022-05-01T07:29:00Z</time>
      </trkpt>
      <trkpt lat="45.1808" lon="4.64681">
        <ele>507.20001220703</ele>
        <time>2022-05-01T07:29:15Z</time>
      </trkpt>
      <trkpt lat="45.18041" lon="4.64615">
        <ele>509</ele>
        <time>2022-05-01T07:29:34Z</time>
      </trkpt>
      <trkpt lat="45.18003" lon="4.64579">
        <ele>511.60000610352</ele>
        <time>2022-05-01T07:29:49Z</time>
      </trkpt>
      <trkpt lat="45.17969" lon="4.64541">
        <ele>513.40002441406</ele>
        <time>2022-05-01T07:30:03Z</time>
      </trkpt>
      <trkpt lat="45.17947" lon="4.64516">
        <ele>516.40002441406</ele>
        <time>2022-05-01T07:30:15Z</time>
      </trkpt>
      <trkpt lat="45.17906" lon="4.6448">
        <ele>518.20001220703</ele>
        <time>2022-05-01T07:30:30Z</time>
      </trkpt>
      <trkpt lat="45.17861" lon="4.64477">
        <ele>521</ele>
        <time>2022-05-01T07:30:46Z</time>
      </trkpt>
      <trkpt lat="45.17843" lon="4.64482">
        <ele>521.79998779297</ele>
        <time>2022-05-01T07:30:52Z</time>
      </trkpt>
      <trkpt lat="45.17836" lon="4.64463">
        <ele>522</ele>
        <time>2022-05-01T07:30:57Z</time>
      </trkpt>
      <trkpt lat="45.17837" lon="4.64457">
        <ele>522</ele>
        <time>2022-05-01T07:30:58Z</time>
      </trkpt>
      <trkpt lat="45.17856" lon="4.64437">
        <ele>522</ele>
        <time>2022-05-01T07:31:06Z</time>
      </trkpt>
      <trkpt lat="45.17891" lon="4.64417">
        <ele>523.20001220703</ele>
        <time>2022-05-01T07:31:18Z</time>
      </trkpt>
      <trkpt lat="45.17911" lon="4.64351">
        <ele>526.40002441406</ele>
        <time>2022-05-01T07:31:35Z</time>
      </trkpt>
      <trkpt lat="45.17932" lon="4.64299">
        <ele>529.40002441406</ele>
        <time>2022-05-01T07:31:50Z</time>
      </trkpt>
      <trkpt lat="45.17958" lon="4.64265">
        <ele>532.40002441406</ele>
        <time>2022-05-01T07:32:03Z</time>
      </trkpt>
      <trkpt lat="45.1797" lon="4.64228">
        <ele>535.40002441406</ele>
        <time>2022-05-01T07:32:15Z</time>
      </trkpt>
      <trkpt lat="45.17979" lon="4.64185">
        <ele>538.40002441406</ele>
        <time>2022-05-01T07:32:30Z</time>
      </trkpt>
      <trkpt lat="45.17985" lon="4.64155">
        <ele>541.59997558594</ele>
        <time>2022-05-01T07:32:43Z</time>
      </trkpt>
      <trkpt lat="45.17994" lon="4.64127">
        <ele>544.59997558594</ele>
        <time>2022-05-01T07:32:56Z</time>
      </trkpt>
      <trkpt lat="45.17995" lon="4.64099">
        <ele>548</ele>
        <time>2022-05-01T07:33:09Z</time>
      </trkpt>
      <trkpt lat="45.17988" lon="4.6408">
        <ele>551</ele>
        <time>2022-05-01T07:33:20Z</time>
      </trkpt>
      <trkpt lat="45.17981" lon="4.64061">
        <ele>554.20001220703</ele>
        <time>2022-05-01T07:33:30Z</time>
      </trkpt>
      <trkpt lat="45.17974" lon="4.64034">
        <ele>556.79998779297</ele>
        <time>2022-05-01T07:33:42Z</time>
      </trkpt>
      <trkpt lat="45.17973" lon="4.64032">
        <ele>557.20001220703</ele>
        <time>2022-05-01T07:33:43Z</time>
      </trkpt>
      <trkpt lat="45.17976" lon="4.64025">
        <ele>557.79998779297</ele>
        <time>2022-05-01T07:33:46Z</time>
      </trkpt>
      <trkpt lat="45.17974" lon="4.64021">
        <ele>558</ele>
        <time>2022-05-01T07:33:48Z</time>
      </trkpt>
      <trkpt lat="45.17974" lon="4.64016">
        <ele>558.40002441406</ele>
        <time>2022-05-01T07:33:50Z</time>
      </trkpt>
      <trkpt lat="45.17969" lon="4.64004">
        <ele>559</ele>
        <time>2022-05-01T07:33:54Z</time>
      </trkpt>
      <trkpt lat="45.17968" lon="4.64001">
        <ele>559.40002441406</ele>
        <time>2022-05-01T07:33:55Z</time>
      </trkpt>
      <trkpt lat="45.17968" lon="4.63989">
        <ele>560.59997558594</ele>
        <time>2022-05-01T07:34:00Z</time>
      </trkpt>
      <trkpt lat="45.17973" lon="4.63982">
        <ele>561.20001220703</ele>
        <time>2022-05-01T07:34:02Z</time>
      </trkpt>
      <trkpt lat="45.17966" lon="4.63968">
        <ele>562.59997558594</ele>
        <time>2022-05-01T07:34:08Z</time>
      </trkpt>
      <trkpt lat="45.17963" lon="4.63966">
        <ele>563.20001220703</ele>
        <time>2022-05-01T07:34:12Z</time>
      </trkpt>
      <trkpt lat="45.17962" lon="4.63961">
        <ele>564.20001220703</ele>
        <time>2022-05-01T07:34:15Z</time>
      </trkpt>
      <trkpt lat="45.17955" lon="4.6394">
        <ele>566.79998779297</ele>
        <time>2022-05-01T07:34:25Z</time>
      </trkpt>
      <trkpt lat="45.17954" lon="4.63935">
        <ele>567</ele>
        <time>2022-05-01T07:34:27Z</time>
      </trkpt>
      <trkpt lat="45.17952" lon="4.63929">
        <ele>567.40002441406</ele>
        <time>2022-05-01T07:34:30Z</time>
      </trkpt>
      <trkpt lat="45.17952" lon="4.63926">
        <ele>567.79998779297</ele>
        <time>2022-05-01T07:34:32Z</time>
      </trkpt>
      <trkpt lat="45.17942" lon="4.63913">
        <ele>569.79998779297</ele>
        <time>2022-05-01T07:34:41Z</time>
      </trkpt>
      <trkpt lat="45.17938" lon="4.63908">
        <ele>570.40002441406</ele>
        <time>2022-05-01T07:34:44Z</time>
      </trkpt>
      <trkpt lat="45.17933" lon="4.63901">
        <ele>571.20001220703</ele>
        <time>2022-05-01T07:34:48Z</time>
      </trkpt>
      <trkpt lat="45.17921" lon="4.6388">
        <ele>573</ele>
        <time>2022-05-01T07:34:59Z</time>
      </trkpt>
      <trkpt lat="45.17909" lon="4.63856">
        <ele>574.79998779297</ele>
        <time>2022-05-01T07:35:09Z</time>
      </trkpt>
      <trkpt lat="45.17907" lon="4.63845">
        <ele>575.59997558594</ele>
        <time>2022-05-01T07:35:13Z</time>
      </trkpt>
      <trkpt lat="45.17901" lon="4.63814">
        <ele>576.79998779297</ele>
        <time>2022-05-01T07:35:25Z</time>
      </trkpt>
      <trkpt lat="45.17899" lon="4.63777">
        <ele>579.40002441406</ele>
        <time>2022-05-01T07:35:39Z</time>
      </trkpt>
      <trkpt lat="45.17891" lon="4.63749">
        <ele>580.59997558594</ele>
        <time>2022-05-01T07:35:50Z</time>
      </trkpt>
      <trkpt lat="45.17885" lon="4.63736">
        <ele>581.59997558594</ele>
        <time>2022-05-01T07:36:04Z</time>
      </trkpt>
      <trkpt lat="45.17884" lon="4.63734">
        <ele>581.59997558594</ele>
        <time>2022-05-01T07:36:06Z</time>
      </trkpt>
      <trkpt lat="45.17886" lon="4.63732">
        <ele>582.40002441406</ele>
        <time>2022-05-01T07:36:28Z</time>
      </trkpt>
      <trkpt lat="45.17886" lon="4.63732">
        <ele>581.79998779297</ele>
        <time>2022-05-01T07:37:41Z</time>
      </trkpt>
      <trkpt lat="45.17887" lon="4.63732">
        <ele>580.79998779297</ele>
        <time>2022-05-01T07:40:56Z</time>
      </trkpt>
      <trkpt lat="45.17888" lon="4.63732">
        <ele>582</ele>
        <time>2022-05-01T07:43:16Z</time>
      </trkpt>
      <trkpt lat="45.17886" lon="4.63732">
        <ele>582.40002441406</ele>
        <time>2022-05-01T07:44:34Z</time>
      </trkpt>
      <trkpt lat="45.17871" lon="4.637">
        <ele>583.40002441406</ele>
        <time>2022-05-01T07:45:28Z</time>
      </trkpt>
      <trkpt lat="45.17811" lon="4.63575">
        <ele>583.20001220703</ele>
        <time>2022-05-01T07:45:53Z</time>
      </trkpt>
      <trkpt lat="45.17808" lon="4.63566">
        <ele>583</ele>
        <time>2022-05-01T07:45:54Z</time>
      </trkpt>
      <trkpt lat="45.17791" lon="4.63529">
        <ele>581.79998779297</ele>
        <time>2022-05-01T07:45:59Z</time>
      </trkpt>
      <trkpt lat="45.17741" lon="4.63447">
        <ele>580</ele>
        <time>2022-05-01T07:46:13Z</time>
      </trkpt>
      <trkpt lat="45.17738" lon="4.63442">
        <ele>580</ele>
        <time>2022-05-01T07:46:14Z</time>
      </trkpt>
      <trkpt lat="45.17705" lon="4.63359">
        <ele>580.79998779297</ele>
        <time>2022-05-01T07:46:27Z</time>
      </trkpt>
      <trkpt lat="45.17699" lon="4.63339">
        <ele>580.59997558594</ele>
        <time>2022-05-01T07:46:30Z</time>
      </trkpt>
      <trkpt lat="45.17695" lon="4.63264">
        <ele>579</ele>
        <time>2022-05-01T07:46:39Z</time>
      </trkpt>
      <trkpt lat="45.17716" lon="4.63171">
        <ele>576.40002441406</ele>
        <time>2022-05-01T07:46:50Z</time>
      </trkpt>
      <trkpt lat="45.17739" lon="4.63051">
        <ele>575.79998779297</ele>
        <time>2022-05-01T07:47:06Z</time>
      </trkpt>
      <trkpt lat="45.17781" lon="4.62924">
        <ele>574</ele>
        <time>2022-05-01T07:47:22Z</time>
      </trkpt>
      <trkpt lat="45.17793" lon="4.62896">
        <ele>573</ele>
        <time>2022-05-01T07:47:26Z</time>
      </trkpt>
      <trkpt lat="45.178" lon="4.62867">
        <ele>572.79998779297</ele>
        <time>2022-05-01T07:47:30Z</time>
      </trkpt>
      <trkpt lat="45.17801" lon="4.62861">
        <ele>572.79998779297</ele>
        <time>2022-05-01T07:47:31Z</time>
      </trkpt>
      <trkpt lat="45.17811" lon="4.62819">
        <ele>574</ele>
        <time>2022-05-01T07:47:40Z</time>
      </trkpt>
      <trkpt lat="45.17822" lon="4.62776">
        <ele>577</ele>
        <time>2022-05-01T07:47:53Z</time>
      </trkpt>
      <trkpt lat="45.17826" lon="4.62751">
        <ele>580</ele>
        <time>2022-05-01T07:48:02Z</time>
      </trkpt>
      <trkpt lat="45.17829" lon="4.62717">
        <ele>583.20001220703</ele>
        <time>2022-05-01T07:48:14Z</time>
      </trkpt>
      <trkpt lat="45.17849" lon="4.62702">
        <ele>586.40002441406</ele>
        <time>2022-05-01T07:48:27Z</time>
      </trkpt>
      <trkpt lat="45.17863" lon="4.62694">
        <ele>589.40002441406</ele>
        <time>2022-05-01T07:48:38Z</time>
      </trkpt>
      <trkpt lat="45.17884" lon="4.62683">
        <ele>592.40002441406</ele>
        <time>2022-05-01T07:48:51Z</time>
      </trkpt>
      <trkpt lat="45.17893" lon="4.62679">
        <ele>594</ele>
        <time>2022-05-01T07:48:57Z</time>
      </trkpt>
      <trkpt lat="45.17896" lon="4.6268">
        <ele>594.20001220703</ele>
        <time>2022-05-01T07:49:38Z</time>
      </trkpt>
      <trkpt lat="45.17896" lon="4.6268">
        <ele>594.40002441406</ele>
        <time>2022-05-01T07:50:02Z</time>
      </trkpt>
      <trkpt lat="45.17924" lon="4.62665">
        <ele>596.20001220703</ele>
        <time>2022-05-01T07:50:15Z</time>
      </trkpt>
      <trkpt lat="45.17927" lon="4.62665">
        <ele>596.40002441406</ele>
        <time>2022-05-01T07:50:16Z</time>
      </trkpt>
      <trkpt lat="45.17936" lon="4.62667">
        <ele>597.20001220703</ele>
        <time>2022-05-01T07:50:20Z</time>
      </trkpt>
      <trkpt lat="45.17962" lon="4.62673">
        <ele>599.59997558594</ele>
        <time>2022-05-01T07:50:33Z</time>
      </trkpt>
      <trkpt lat="45.17985" lon="4.62677">
        <ele>602</ele>
        <time>2022-05-01T07:50:46Z</time>
      </trkpt>
      <trkpt lat="45.18011" lon="4.62683">
        <ele>605</ele>
        <time>2022-05-01T07:51:02Z</time>
      </trkpt>
      <trkpt lat="45.18038" lon="4.62685">
        <ele>608</ele>
        <time>2022-05-01T07:51:16Z</time>
      </trkpt>
      <trkpt lat="45.18059" lon="4.6269">
        <ele>609.59997558594</ele>
        <time>2022-05-01T07:51:26Z</time>
      </trkpt>
      <trkpt lat="45.18083" lon="4.62699">
        <ele>611.59997558594</ele>
        <time>2022-05-01T07:51:39Z</time>
      </trkpt>
      <trkpt lat="45.18105" lon="4.62707">
        <ele>614.59997558594</ele>
        <time>2022-05-01T07:51:50Z</time>
      </trkpt>
      <trkpt lat="45.18132" lon="4.62722">
        <ele>617.20001220703</ele>
        <time>2022-05-01T07:52:05Z</time>
      </trkpt>
      <trkpt lat="45.18155" lon="4.62739">
        <ele>620.20001220703</ele>
        <time>2022-05-01T07:52:20Z</time>
      </trkpt>
      <trkpt lat="45.18176" lon="4.62761">
        <ele>622.40002441406</ele>
        <time>2022-05-01T07:52:33Z</time>
      </trkpt>
      <trkpt lat="45.18196" lon="4.62781">
        <ele>624.20001220703</ele>
        <time>2022-05-01T07:52:45Z</time>
      </trkpt>
      <trkpt lat="45.182" lon="4.62784">
        <ele>624.59997558594</ele>
        <time>2022-05-01T07:52:47Z</time>
      </trkpt>
      <trkpt lat="45.18216" lon="4.62794">
        <ele>625.79998779297</ele>
        <time>2022-05-01T07:52:56Z</time>
      </trkpt>
      <trkpt lat="45.18238" lon="4.62807">
        <ele>628.59997558594</ele>
        <time>2022-05-01T07:53:09Z</time>
      </trkpt>
      <trkpt lat="45.18254" lon="4.62815">
        <ele>630.59997558594</ele>
        <time>2022-05-01T07:53:19Z</time>
      </trkpt>
      <trkpt lat="45.18256" lon="4.62816">
        <ele>630.59997558594</ele>
        <time>2022-05-01T07:53:20Z</time>
      </trkpt>
      <trkpt lat="45.18266" lon="4.62819">
        <ele>632</ele>
        <time>2022-05-01T07:53:27Z</time>
      </trkpt>
      <trkpt lat="45.18281" lon="4.6282">
        <ele>634</ele>
        <time>2022-05-01T07:53:37Z</time>
      </trkpt>
      <trkpt lat="45.18299" lon="4.62819">
        <ele>635.79998779297</ele>
        <time>2022-05-01T07:53:45Z</time>
      </trkpt>
      <trkpt lat="45.18311" lon="4.62802">
        <ele>637.20001220703</ele>
        <time>2022-05-01T07:53:52Z</time>
      </trkpt>
      <trkpt lat="45.18315" lon="4.62796">
        <ele>637.79998779297</ele>
        <time>2022-05-01T07:53:55Z</time>
      </trkpt>
      <trkpt lat="45.18328" lon="4.62796">
        <ele>639.59997558594</ele>
        <time>2022-05-01T07:54:02Z</time>
      </trkpt>
      <trkpt lat="45.18334" lon="4.62794">
        <ele>640</ele>
        <time>2022-05-01T07:54:09Z</time>
      </trkpt>
      <trkpt lat="45.18318" lon="4.62786">
        <ele>642</ele>
        <time>2022-05-01T07:54:20Z</time>
      </trkpt>
      <trkpt lat="45.18305" lon="4.62789">
        <ele>642.59997558594</ele>
        <time>2022-05-01T07:54:28Z</time>
      </trkpt>
      <trkpt lat="45.18292" lon="4.62782">
        <ele>645.40002441406</ele>
        <time>2022-05-01T07:54:37Z</time>
      </trkpt>
      <trkpt lat="45.1829" lon="4.62776">
        <ele>645.59997558594</ele>
        <time>2022-05-01T07:54:41Z</time>
      </trkpt>
      <trkpt lat="45.18286" lon="4.62769">
        <ele>646</ele>
        <time>2022-05-01T07:54:45Z</time>
      </trkpt>
      <trkpt lat="45.18279" lon="4.62751">
        <ele>647.79998779297</ele>
        <time>2022-05-01T07:54:53Z</time>
      </trkpt>
      <trkpt lat="45.18274" lon="4.62738">
        <ele>649.40002441406</ele>
        <time>2022-05-01T07:54:59Z</time>
      </trkpt>
      <trkpt lat="45.18268" lon="4.62727">
        <ele>650.40002441406</ele>
        <time>2022-05-01T07:55:05Z</time>
      </trkpt>
      <trkpt lat="45.18253" lon="4.62699">
        <ele>651.20001220703</ele>
        <time>2022-05-01T07:55:14Z</time>
      </trkpt>
      <trkpt lat="45.18242" lon="4.62681">
        <ele>651.20001220703</ele>
        <time>2022-05-01T07:55:18Z</time>
      </trkpt>
      <trkpt lat="45.18233" lon="4.62647">
        <ele>651.20001220703</ele>
        <time>2022-05-01T07:55:27Z</time>
      </trkpt>
      <trkpt lat="45.18237" lon="4.62631">
        <ele>652.20001220703</ele>
        <time>2022-05-01T07:55:33Z</time>
      </trkpt>
      <trkpt lat="45.18237" lon="4.62614">
        <ele>654.79998779297</ele>
        <time>2022-05-01T07:55:40Z</time>
      </trkpt>
      <trkpt lat="45.18235" lon="4.62601">
        <ele>656.40002441406</ele>
        <time>2022-05-01T07:55:46Z</time>
      </trkpt>
      <trkpt lat="45.18233" lon="4.62586">
        <ele>657.59997558594</ele>
        <time>2022-05-01T07:55:52Z</time>
      </trkpt>
      <trkpt lat="45.1823" lon="4.62579">
        <ele>658.20001220703</ele>
        <time>2022-05-01T07:55:55Z</time>
      </trkpt>
      <trkpt lat="45.18229" lon="4.62566">
        <ele>659.40002441406</ele>
        <time>2022-05-01T07:56:00Z</time>
      </trkpt>
      <trkpt lat="45.18227" lon="4.62526">
        <ele>661</ele>
        <time>2022-05-01T07:56:10Z</time>
      </trkpt>
      <trkpt lat="45.18252" lon="4.62495">
        <ele>661.79998779297</ele>
        <time>2022-05-01T07:56:21Z</time>
      </trkpt>
      <trkpt lat="45.18278" lon="4.62452">
        <ele>663</ele>
        <time>2022-05-01T07:56:36Z</time>
      </trkpt>
      <trkpt lat="45.18298" lon="4.62404">
        <ele>665.79998779297</ele>
        <time>2022-05-01T07:56:52Z</time>
      </trkpt>
      <trkpt lat="45.18319" lon="4.6235">
        <ele>667.79998779297</ele>
        <time>2022-05-01T07:57:10Z</time>
      </trkpt>
      <trkpt lat="45.1834" lon="4.62304">
        <ele>670.59997558594</ele>
        <time>2022-05-01T07:57:26Z</time>
      </trkpt>
      <trkpt lat="45.18336" lon="4.6226">
        <ele>671</ele>
        <time>2022-05-01T07:57:35Z</time>
      </trkpt>
      <trkpt lat="45.18338" lon="4.62233">
        <ele>671</ele>
        <time>2022-05-01T07:57:43Z</time>
      </trkpt>
      <trkpt lat="45.18349" lon="4.62181">
        <ele>672</ele>
        <time>2022-05-01T07:57:57Z</time>
      </trkpt>
      <trkpt lat="45.18346" lon="4.62146">
        <ele>673.20001220703</ele>
        <time>2022-05-01T07:58:08Z</time>
      </trkpt>
      <trkpt lat="45.18345" lon="4.62112">
        <ele>674.79998779297</ele>
        <time>2022-05-01T07:58:17Z</time>
      </trkpt>
      <trkpt lat="45.18345" lon="4.62085">
        <ele>675.20001220703</ele>
        <time>2022-05-01T07:58:23Z</time>
      </trkpt>
      <trkpt lat="45.18341" lon="4.62055">
        <ele>674.59997558594</ele>
        <time>2022-05-01T07:58:27Z</time>
      </trkpt>
      <trkpt lat="45.18339" lon="4.62014">
        <ele>674.59997558594</ele>
        <time>2022-05-01T07:58:35Z</time>
      </trkpt>
      <trkpt lat="45.18338" lon="4.62005">
        <ele>675</ele>
        <time>2022-05-01T07:58:37Z</time>
      </trkpt>
      <trkpt lat="45.18332" lon="4.61958">
        <ele>675.40002441406</ele>
        <time>2022-05-01T07:58:44Z</time>
      </trkpt>
      <trkpt lat="45.18327" lon="4.61915">
        <ele>674.79998779297</ele>
        <time>2022-05-01T07:58:50Z</time>
      </trkpt>
      <trkpt lat="45.18326" lon="4.61905">
        <ele>674.79998779297</ele>
        <time>2022-05-01T07:58:51Z</time>
      </trkpt>
      <trkpt lat="45.18329" lon="4.61852">
        <ele>674</ele>
        <time>2022-05-01T07:58:58Z</time>
      </trkpt>
      <trkpt lat="45.1833" lon="4.61841">
        <ele>674</ele>
        <time>2022-05-01T07:59:00Z</time>
      </trkpt>
      <trkpt lat="45.18338" lon="4.61805">
        <ele>673</ele>
        <time>2022-05-01T07:59:05Z</time>
      </trkpt>
      <trkpt lat="45.18379" lon="4.61723">
        <ele>671.20001220703</ele>
        <time>2022-05-01T07:59:16Z</time>
      </trkpt>
      <trkpt lat="45.18396" lon="4.61698">
        <ele>669.79998779297</ele>
        <time>2022-05-01T07:59:21Z</time>
      </trkpt>
      <trkpt lat="45.18403" lon="4.6169">
        <ele>668.79998779297</ele>
        <time>2022-05-01T07:59:23Z</time>
      </trkpt>
      <trkpt lat="45.1841" lon="4.61663">
        <ele>666.79998779297</ele>
        <time>2022-05-01T07:59:27Z</time>
      </trkpt>
      <trkpt lat="45.18413" lon="4.61632">
        <ele>666</ele>
        <time>2022-05-01T07:59:31Z</time>
      </trkpt>
      <trkpt lat="45.1842" lon="4.61606">
        <ele>665.59997558594</ele>
        <time>2022-05-01T07:59:35Z</time>
      </trkpt>
      <trkpt lat="45.18423" lon="4.61578">
        <ele>666.20001220703</ele>
        <time>2022-05-01T07:59:42Z</time>
      </trkpt>
      <trkpt lat="45.18425" lon="4.61552">
        <ele>667</ele>
        <time>2022-05-01T07:59:47Z</time>
      </trkpt>
      <trkpt lat="45.18435" lon="4.61501">
        <ele>667.79998779297</ele>
        <time>2022-05-01T07:59:55Z</time>
      </trkpt>
      <trkpt lat="45.18462" lon="4.6146">
        <ele>667.40002441406</ele>
        <time>2022-05-01T08:00:02Z</time>
      </trkpt>
      <trkpt lat="45.1846" lon="4.61424">
        <ele>667</ele>
        <time>2022-05-01T08:00:08Z</time>
      </trkpt>
      <trkpt lat="45.18447" lon="4.61394">
        <ele>667.79998779297</ele>
        <time>2022-05-01T08:00:14Z</time>
      </trkpt>
      <trkpt lat="45.18432" lon="4.61364">
        <ele>668.59997558594</ele>
        <time>2022-05-01T08:00:21Z</time>
      </trkpt>
      <trkpt lat="45.18395" lon="4.61377">
        <ele>667.79998779297</ele>
        <time>2022-05-01T08:00:28Z</time>
      </trkpt>
      <trkpt lat="45.18373" lon="4.61359">
        <ele>667.20001220703</ele>
        <time>2022-05-01T08:00:32Z</time>
      </trkpt>
      <trkpt lat="45.18368" lon="4.61351">
        <ele>667.20001220703</ele>
        <time>2022-05-01T08:00:33Z</time>
      </trkpt>
      <trkpt lat="45.1833" lon="4.61347">
        <ele>665.20001220703</ele>
        <time>2022-05-01T08:00:39Z</time>
      </trkpt>
      <trkpt lat="45.18322" lon="4.61362">
        <ele>664.20001220703</ele>
        <time>2022-05-01T08:00:41Z</time>
      </trkpt>
      <trkpt lat="45.18313" lon="4.6138">
        <ele>662.79998779297</ele>
        <time>2022-05-01T08:00:44Z</time>
      </trkpt>
      <trkpt lat="45.18306" lon="4.61377">
        <ele>662.40002441406</ele>
        <time>2022-05-01T08:00:49Z</time>
      </trkpt>
      <trkpt lat="45.18308" lon="4.61372">
        <ele>662.59997558594</ele>
        <time>2022-05-01T08:00:51Z</time>
      </trkpt>
      <trkpt lat="45.18312" lon="4.61345">
        <ele>665.40002441406</ele>
        <time>2022-05-01T08:01:02Z</time>
      </trkpt>
      <trkpt lat="45.18316" lon="4.61317">
        <ele>668.59997558594</ele>
        <time>2022-05-01T08:01:14Z</time>
      </trkpt>
      <trkpt lat="45.18316" lon="4.61313">
        <ele>669</ele>
        <time>2022-05-01T08:01:16Z</time>
      </trkpt>
      <trkpt lat="45.18312" lon="4.61304">
        <ele>670.20001220703</ele>
        <time>2022-05-01T08:01:23Z</time>
      </trkpt>
      <trkpt lat="45.18315" lon="4.61295">
        <ele>672</ele>
        <time>2022-05-01T08:01:31Z</time>
      </trkpt>
      <trkpt lat="45.18314" lon="4.61271">
        <ele>673.79998779297</ele>
        <time>2022-05-01T08:01:38Z</time>
      </trkpt>
      <trkpt lat="45.18314" lon="4.61268">
        <ele>674</ele>
        <time>2022-05-01T08:01:39Z</time>
      </trkpt>
      <trkpt lat="45.18313" lon="4.61265">
        <ele>674.20001220703</ele>
        <time>2022-05-01T08:01:40Z</time>
      </trkpt>
      <trkpt lat="45.18315" lon="4.61246">
        <ele>676</ele>
        <time>2022-05-01T08:01:48Z</time>
      </trkpt>
      <trkpt lat="45.18315" lon="4.61245">
        <ele>676.40002441406</ele>
        <time>2022-05-01T08:01:49Z</time>
      </trkpt>
      <trkpt lat="45.18317" lon="4.61243">
        <ele>676.79998779297</ele>
        <time>2022-05-01T08:01:51Z</time>
      </trkpt>
      <trkpt lat="45.18313" lon="4.61228">
        <ele>678.20001220703</ele>
        <time>2022-05-01T08:01:57Z</time>
      </trkpt>
      <trkpt lat="45.18309" lon="4.6122">
        <ele>679.20001220703</ele>
        <time>2022-05-01T08:02:00Z</time>
      </trkpt>
      <trkpt lat="45.18313" lon="4.61201">
        <ele>680.20001220703</ele>
        <time>2022-05-01T08:02:06Z</time>
      </trkpt>
      <trkpt lat="45.1831" lon="4.61183">
        <ele>681.40002441406</ele>
        <time>2022-05-01T08:02:13Z</time>
      </trkpt>
      <trkpt lat="45.18305" lon="4.61163">
        <ele>682.59997558594</ele>
        <time>2022-05-01T08:02:20Z</time>
      </trkpt>
      <trkpt lat="45.18304" lon="4.61158">
        <ele>683</ele>
        <time>2022-05-01T08:02:23Z</time>
      </trkpt>
      <trkpt lat="45.18307" lon="4.61148">
        <ele>683.59997558594</ele>
        <time>2022-05-01T08:02:28Z</time>
      </trkpt>
      <trkpt lat="45.18301" lon="4.61141">
        <ele>684.79998779297</ele>
        <time>2022-05-01T08:02:34Z</time>
      </trkpt>
      <trkpt lat="45.18299" lon="4.61135">
        <ele>685.59997558594</ele>
        <time>2022-05-01T08:02:38Z</time>
      </trkpt>
      <trkpt lat="45.18296" lon="4.61128">
        <ele>686.59997558594</ele>
        <time>2022-05-01T08:02:42Z</time>
      </trkpt>
      <trkpt lat="45.18291" lon="4.61121">
        <ele>687.59997558594</ele>
        <time>2022-05-01T08:02:47Z</time>
      </trkpt>
      <trkpt lat="45.18291" lon="4.61116">
        <ele>688.79998779297</ele>
        <time>2022-05-01T08:02:50Z</time>
      </trkpt>
      <trkpt lat="45.1829" lon="4.61111">
        <ele>689.20001220703</ele>
        <time>2022-05-01T08:02:53Z</time>
      </trkpt>
      <trkpt lat="45.18288" lon="4.61108">
        <ele>689.79998779297</ele>
        <time>2022-05-01T08:02:56Z</time>
      </trkpt>
      <trkpt lat="45.18291" lon="4.61101">
        <ele>690.79998779297</ele>
        <time>2022-05-01T08:03:00Z</time>
      </trkpt>
      <trkpt lat="45.18291" lon="4.61099">
        <ele>691</ele>
        <time>2022-05-01T08:03:01Z</time>
      </trkpt>
      <trkpt lat="45.18288" lon="4.61094">
        <ele>691.79998779297</ele>
        <time>2022-05-01T08:03:05Z</time>
      </trkpt>
      <trkpt lat="45.18286" lon="4.61087">
        <ele>693.40002441406</ele>
        <time>2022-05-01T08:03:11Z</time>
      </trkpt>
      <trkpt lat="45.18283" lon="4.61079">
        <ele>695.59997558594</ele>
        <time>2022-05-01T08:03:21Z</time>
      </trkpt>
      <trkpt lat="45.18281" lon="4.61072">
        <ele>697.40002441406</ele>
        <time>2022-05-01T08:03:29Z</time>
      </trkpt>
      <trkpt lat="45.1828" lon="4.6107">
        <ele>697.79998779297</ele>
        <time>2022-05-01T08:03:31Z</time>
      </trkpt>
      <trkpt lat="45.18275" lon="4.61053">
        <ele>699.20001220703</ele>
        <time>2022-05-01T08:03:38Z</time>
      </trkpt>
      <trkpt lat="45.18271" lon="4.61038">
        <ele>700.40002441406</ele>
        <time>2022-05-01T08:03:43Z</time>
      </trkpt>
      <trkpt lat="45.18265" lon="4.61029">
        <ele>701.40002441406</ele>
        <time>2022-05-01T08:03:48Z</time>
      </trkpt>
      <trkpt lat="45.18252" lon="4.61008">
        <ele>703.59997558594</ele>
        <time>2022-05-01T08:03:56Z</time>
      </trkpt>
      <trkpt lat="45.18251" lon="4.61006">
        <ele>703.59997558594</ele>
        <time>2022-05-01T08:03:58Z</time>
      </trkpt>
      <trkpt lat="45.18253" lon="4.61006">
        <ele>704.40002441406</ele>
        <time>2022-05-01T08:04:01Z</time>
      </trkpt>
      <trkpt lat="45.18251" lon="4.61">
        <ele>706.40002441406</ele>
        <time>2022-05-01T08:04:09Z</time>
      </trkpt>
      <trkpt lat="45.1825" lon="4.60999">
        <ele>706.59997558594</ele>
        <time>2022-05-01T08:04:10Z</time>
      </trkpt>
      <trkpt lat="45.18247" lon="4.60983">
        <ele>708.79998779297</ele>
        <time>2022-05-01T08:04:20Z</time>
      </trkpt>
      <trkpt lat="45.18247" lon="4.60962">
        <ele>710.59997558594</ele>
        <time>2022-05-01T08:04:28Z</time>
      </trkpt>
      <trkpt lat="45.18248" lon="4.60952">
        <ele>711</ele>
        <time>2022-05-01T08:04:32Z</time>
      </trkpt>
      <trkpt lat="45.18248" lon="4.60942">
        <ele>711.40002441406</ele>
        <time>2022-05-01T08:04:35Z</time>
      </trkpt>
      <trkpt lat="45.18244" lon="4.6093">
        <ele>711.79998779297</ele>
        <time>2022-05-01T08:04:40Z</time>
      </trkpt>
      <trkpt lat="45.18243" lon="4.60922">
        <ele>712.20001220703</ele>
        <time>2022-05-01T08:04:44Z</time>
      </trkpt>
      <trkpt lat="45.18245" lon="4.60908">
        <ele>713.59997558594</ele>
        <time>2022-05-01T08:04:51Z</time>
      </trkpt>
      <trkpt lat="45.18242" lon="4.60904">
        <ele>714.20001220703</ele>
        <time>2022-05-01T08:04:53Z</time>
      </trkpt>
      <trkpt lat="45.18236" lon="4.60896">
        <ele>715</ele>
        <time>2022-05-01T08:04:58Z</time>
      </trkpt>
      <trkpt lat="45.18236" lon="4.60894">
        <ele>716.20001220703</ele>
        <time>2022-05-01T08:05:02Z</time>
      </trkpt>
      <trkpt lat="45.18233" lon="4.60884">
        <ele>717.79998779297</ele>
        <time>2022-05-01T08:05:09Z</time>
      </trkpt>
      <trkpt lat="45.18231" lon="4.60871">
        <ele>719.20001220703</ele>
        <time>2022-05-01T08:05:18Z</time>
      </trkpt>
      <trkpt lat="45.1823" lon="4.60864">
        <ele>720.79998779297</ele>
        <time>2022-05-01T08:05:24Z</time>
      </trkpt>
      <trkpt lat="45.18229" lon="4.60848">
        <ele>722.20001220703</ele>
        <time>2022-05-01T08:05:31Z</time>
      </trkpt>
      <trkpt lat="45.1823" lon="4.60837">
        <ele>723</ele>
        <time>2022-05-01T08:05:36Z</time>
      </trkpt>
      <trkpt lat="45.18227" lon="4.60825">
        <ele>723.79998779297</ele>
        <time>2022-05-01T08:05:40Z</time>
      </trkpt>
      <trkpt lat="45.18231" lon="4.60816">
        <ele>725.20001220703</ele>
        <time>2022-05-01T08:05:45Z</time>
      </trkpt>
      <trkpt lat="45.18227" lon="4.60805">
        <ele>727</ele>
        <time>2022-05-01T08:05:52Z</time>
      </trkpt>
      <trkpt lat="45.18221" lon="4.60797">
        <ele>727.59997558594</ele>
        <time>2022-05-01T08:05:55Z</time>
      </trkpt>
      <trkpt lat="45.18219" lon="4.60791">
        <ele>728.40002441406</ele>
        <time>2022-05-01T08:05:58Z</time>
      </trkpt>
      <trkpt lat="45.18212" lon="4.60779">
        <ele>730.20001220703</ele>
        <time>2022-05-01T08:06:05Z</time>
      </trkpt>
      <trkpt lat="45.1821" lon="4.60772">
        <ele>732</ele>
        <time>2022-05-01T08:06:12Z</time>
      </trkpt>
      <trkpt lat="45.18203" lon="4.60764">
        <ele>734</ele>
        <time>2022-05-01T08:06:21Z</time>
      </trkpt>
      <trkpt lat="45.18197" lon="4.60757">
        <ele>736.20001220703</ele>
        <time>2022-05-01T08:06:30Z</time>
      </trkpt>
      <trkpt lat="45.1819" lon="4.60752">
        <ele>737.40002441406</ele>
        <time>2022-05-01T08:06:35Z</time>
      </trkpt>
      <trkpt lat="45.18182" lon="4.60745">
        <ele>739.40002441406</ele>
        <time>2022-05-01T08:06:44Z</time>
      </trkpt>
      <trkpt lat="45.18181" lon="4.60744">
        <ele>740.20001220703</ele>
        <time>2022-05-01T08:06:46Z</time>
      </trkpt>
      <trkpt lat="45.18179" lon="4.60741">
        <ele>741</ele>
        <time>2022-05-01T08:06:48Z</time>
      </trkpt>
      <trkpt lat="45.18175" lon="4.60736">
        <ele>742.40002441406</ele>
        <time>2022-05-01T08:06:55Z</time>
      </trkpt>
      <trkpt lat="45.1817" lon="4.60734">
        <ele>743.20001220703</ele>
        <time>2022-05-01T08:06:59Z</time>
      </trkpt>
      <trkpt lat="45.18165" lon="4.60729">
        <ele>744.79998779297</ele>
        <time>2022-05-01T08:07:08Z</time>
      </trkpt>
      <trkpt lat="45.18158" lon="4.60725">
        <ele>747</ele>
        <time>2022-05-01T08:07:17Z</time>
      </trkpt>
      <trkpt lat="45.18158" lon="4.60724">
        <ele>747</ele>
        <time>2022-05-01T08:07:18Z</time>
      </trkpt>
      <trkpt lat="45.18147" lon="4.60718">
        <ele>748.40002441406</ele>
        <time>2022-05-01T08:07:23Z</time>
      </trkpt>
      <trkpt lat="45.18142" lon="4.60713">
        <ele>749.79998779297</ele>
        <time>2022-05-01T08:07:30Z</time>
      </trkpt>
      <trkpt lat="45.18143" lon="4.60713">
        <ele>750.20001220703</ele>
        <time>2022-05-01T08:07:32Z</time>
      </trkpt>
      <trkpt lat="45.18129" lon="4.60698">
        <ele>751.40002441406</ele>
        <time>2022-05-01T08:07:40Z</time>
      </trkpt>
      <trkpt lat="45.18128" lon="4.60694">
        <ele>751.59997558594</ele>
        <time>2022-05-01T08:07:42Z</time>
      </trkpt>
      <trkpt lat="45.18115" lon="4.60682">
        <ele>752</ele>
        <time>2022-05-01T08:07:48Z</time>
      </trkpt>
      <trkpt lat="45.18109" lon="4.6067">
        <ele>752.79998779297</ele>
        <time>2022-05-01T08:07:55Z</time>
      </trkpt>
      <trkpt lat="45.18106" lon="4.60666">
        <ele>753.40002441406</ele>
        <time>2022-05-01T08:07:58Z</time>
      </trkpt>
      <trkpt lat="45.18104" lon="4.6066">
        <ele>753.79998779297</ele>
        <time>2022-05-01T08:08:01Z</time>
      </trkpt>
      <trkpt lat="45.18103" lon="4.60648">
        <ele>754.79998779297</ele>
        <time>2022-05-01T08:08:09Z</time>
      </trkpt>
      <trkpt lat="45.18098" lon="4.60641">
        <ele>755.20001220703</ele>
        <time>2022-05-01T08:08:13Z</time>
      </trkpt>
      <trkpt lat="45.18093" lon="4.60625">
        <ele>757.20001220703</ele>
        <time>2022-05-01T08:08:22Z</time>
      </trkpt>
      <trkpt lat="45.18091" lon="4.6062">
        <ele>757.40002441406</ele>
        <time>2022-05-01T08:08:25Z</time>
      </trkpt>
      <trkpt lat="45.18088" lon="4.60611">
        <ele>758</ele>
        <time>2022-05-01T08:08:29Z</time>
      </trkpt>
      <trkpt lat="45.18084" lon="4.60607">
        <ele>758.79998779297</ele>
        <time>2022-05-01T08:08:33Z</time>
      </trkpt>
      <trkpt lat="45.18084" lon="4.60605">
        <ele>759.40002441406</ele>
        <time>2022-05-01T08:08:35Z</time>
      </trkpt>
      <trkpt lat="45.18083" lon="4.60602">
        <ele>760</ele>
        <time>2022-05-01T08:08:37Z</time>
      </trkpt>
      <trkpt lat="45.18082" lon="4.60597">
        <ele>761.59997558594</ele>
        <time>2022-05-01T08:08:45Z</time>
      </trkpt>
      <trkpt lat="45.18078" lon="4.60594">
        <ele>762</ele>
        <time>2022-05-01T08:08:48Z</time>
      </trkpt>
      <trkpt lat="45.18082" lon="4.60579">
        <ele>763.59997558594</ele>
        <time>2022-05-01T08:08:55Z</time>
      </trkpt>
      <trkpt lat="45.18087" lon="4.6056">
        <ele>766.20001220703</ele>
        <time>2022-05-01T08:09:04Z</time>
      </trkpt>
      <trkpt lat="45.18087" lon="4.60559">
        <ele>766.40002441406</ele>
        <time>2022-05-01T08:09:05Z</time>
      </trkpt>
      <trkpt lat="45.18082" lon="4.60557">
        <ele>767.40002441406</ele>
        <time>2022-05-01T08:09:09Z</time>
      </trkpt>
      <trkpt lat="45.18081" lon="4.60555">
        <ele>768.20001220703</ele>
        <time>2022-05-01T08:09:11Z</time>
      </trkpt>
      <trkpt lat="45.18071" lon="4.60549">
        <ele>769.59997558594</ele>
        <time>2022-05-01T08:09:17Z</time>
      </trkpt>
      <trkpt lat="45.18068" lon="4.60549">
        <ele>770</ele>
        <time>2022-05-01T08:09:20Z</time>
      </trkpt>
      <trkpt lat="45.18061" lon="4.60563">
        <ele>770.79998779297</ele>
        <time>2022-05-01T08:09:28Z</time>
      </trkpt>
      <trkpt lat="45.18059" lon="4.60568">
        <ele>771</ele>
        <time>2022-05-01T08:09:30Z</time>
      </trkpt>
      <trkpt lat="45.18058" lon="4.60584">
        <ele>771.40002441406</ele>
        <time>2022-05-01T08:09:36Z</time>
      </trkpt>
      <trkpt lat="45.18058" lon="4.60599">
        <ele>771.79998779297</ele>
        <time>2022-05-01T08:09:44Z</time>
      </trkpt>
      <trkpt lat="45.18058" lon="4.606">
        <ele>772</ele>
        <time>2022-05-01T08:09:45Z</time>
      </trkpt>
      <trkpt lat="45.18057" lon="4.60604">
        <ele>772.40002441406</ele>
        <time>2022-05-01T08:09:47Z</time>
      </trkpt>
      <trkpt lat="45.18058" lon="4.60612">
        <ele>772.59997558594</ele>
        <time>2022-05-01T08:09:51Z</time>
      </trkpt>
      <trkpt lat="45.18058" lon="4.60616">
        <ele>772.79998779297</ele>
        <time>2022-05-01T08:09:53Z</time>
      </trkpt>
      <trkpt lat="45.18056" lon="4.60631">
        <ele>774.20001220703</ele>
        <time>2022-05-01T08:10:01Z</time>
      </trkpt>
      <trkpt lat="45.18057" lon="4.60653">
        <ele>775.59997558594</ele>
        <time>2022-05-01T08:10:08Z</time>
      </trkpt>
      <trkpt lat="45.18053" lon="4.60671">
        <ele>776.79998779297</ele>
        <time>2022-05-01T08:10:13Z</time>
      </trkpt>
      <trkpt lat="45.18055" lon="4.60695">
        <ele>778.20001220703</ele>
        <time>2022-05-01T08:10:20Z</time>
      </trkpt>
      <trkpt lat="45.18056" lon="4.607">
        <ele>778.20001220703</ele>
        <time>2022-05-01T08:10:21Z</time>
      </trkpt>
      <trkpt lat="45.18057" lon="4.60704">
        <ele>778.40002441406</ele>
        <time>2022-05-01T08:10:22Z</time>
      </trkpt>
      <trkpt lat="45.18049" lon="4.60717">
        <ele>779.20001220703</ele>
        <time>2022-05-01T08:10:27Z</time>
      </trkpt>
      <trkpt lat="45.18047" lon="4.60719">
        <ele>779.40002441406</ele>
        <time>2022-05-01T08:10:28Z</time>
      </trkpt>
      <trkpt lat="45.18043" lon="4.60722">
        <ele>779.79998779297</ele>
        <time>2022-05-01T08:10:31Z</time>
      </trkpt>
      <trkpt lat="45.1804" lon="4.60724">
        <ele>780.59997558594</ele>
        <time>2022-05-01T08:10:35Z</time>
      </trkpt>
      <trkpt lat="45.18029" lon="4.60723">
        <ele>783.59997558594</ele>
        <time>2022-05-01T08:10:46Z</time>
      </trkpt>
      <trkpt lat="45.18009" lon="4.60731">
        <ele>785.79998779297</ele>
        <time>2022-05-01T08:10:57Z</time>
      </trkpt>
      <trkpt lat="45.17994" lon="4.6073">
        <ele>787.20001220703</ele>
        <time>2022-05-01T08:11:05Z</time>
      </trkpt>
      <trkpt lat="45.17977" lon="4.60729">
        <ele>788.79998779297</ele>
        <time>2022-05-01T08:11:15Z</time>
      </trkpt>
      <trkpt lat="45.17956" lon="4.60749">
        <ele>791</ele>
        <time>2022-05-01T08:11:27Z</time>
      </trkpt>
      <trkpt lat="45.17945" lon="4.60759">
        <ele>790.79998779297</ele>
        <time>2022-05-01T08:11:31Z</time>
      </trkpt>
      <trkpt lat="45.1791" lon="4.60738">
        <ele>790.79998779297</ele>
        <time>2022-05-01T08:11:47Z</time>
      </trkpt>
      <trkpt lat="45.17857" lon="4.6073">
        <ele>791.40002441406</ele>
        <time>2022-05-01T08:11:59Z</time>
      </trkpt>
      <trkpt lat="45.17848" lon="4.60728">
        <ele>791.40002441406</ele>
        <time>2022-05-01T08:12:01Z</time>
      </trkpt>
      <trkpt lat="45.17788" lon="4.60709">
        <ele>793</ele>
        <time>2022-05-01T08:12:16Z</time>
      </trkpt>
      <trkpt lat="45.17766" lon="4.60739">
        <ele>793</ele>
        <time>2022-05-01T08:12:22Z</time>
      </trkpt>
      <trkpt lat="45.17737" lon="4.60781">
        <ele>791.59997558594</ele>
        <time>2022-05-01T08:12:27Z</time>
      </trkpt>
      <trkpt lat="45.17708" lon="4.60804">
        <ele>790.20001220703</ele>
        <time>2022-05-01T08:12:31Z</time>
      </trkpt>
      <trkpt lat="45.17691" lon="4.60832">
        <ele>788.20001220703</ele>
        <time>2022-05-01T08:12:37Z</time>
      </trkpt>
      <trkpt lat="45.17672" lon="4.60815">
        <ele>785</ele>
        <time>2022-05-01T08:12:44Z</time>
      </trkpt>
      <trkpt lat="45.1767" lon="4.60793">
        <ele>782</ele>
        <time>2022-05-01T08:12:47Z</time>
      </trkpt>
      <trkpt lat="45.17671" lon="4.60788">
        <ele>781.59997558594</ele>
        <time>2022-05-01T08:12:48Z</time>
      </trkpt>
      <trkpt lat="45.17675" lon="4.60775">
        <ele>780.40002441406</ele>
        <time>2022-05-01T08:12:50Z</time>
      </trkpt>
      <trkpt lat="45.17689" lon="4.6072">
        <ele>780</ele>
        <time>2022-05-01T08:12:58Z</time>
      </trkpt>
      <trkpt lat="45.17675" lon="4.60669">
        <ele>779.79998779297</ele>
        <time>2022-05-01T08:13:05Z</time>
      </trkpt>
      <trkpt lat="45.17643" lon="4.60617">
        <ele>776.79998779297</ele>
        <time>2022-05-01T08:13:11Z</time>
      </trkpt>
      <trkpt lat="45.17603" lon="4.60557">
        <ele>773.79998779297</ele>
        <time>2022-05-01T08:13:17Z</time>
      </trkpt>
      <trkpt lat="45.17589" lon="4.60533">
        <ele>772.40002441406</ele>
        <time>2022-05-01T08:13:19Z</time>
      </trkpt>
      <trkpt lat="45.17564" lon="4.60505">
        <ele>771.20001220703</ele>
        <time>2022-05-01T08:13:22Z</time>
      </trkpt>
      <trkpt lat="45.17529" lon="4.60474">
        <ele>767.59997558594</ele>
        <time>2022-05-01T08:13:26Z</time>
      </trkpt>
      <trkpt lat="45.17522" lon="4.60468">
        <ele>766.59997558594</ele>
        <time>2022-05-01T08:13:27Z</time>
      </trkpt>
      <trkpt lat="45.17502" lon="4.6044">
        <ele>762.40002441406</ele>
        <time>2022-05-01T08:13:30Z</time>
      </trkpt>
      <trkpt lat="45.17493" lon="4.60419">
        <ele>759.40002441406</ele>
        <time>2022-05-01T08:13:32Z</time>
      </trkpt>
      <trkpt lat="45.1749" lon="4.60411">
        <ele>757.20001220703</ele>
        <time>2022-05-01T08:13:33Z</time>
      </trkpt>
      <trkpt lat="45.17469" lon="4.60395">
        <ele>753.40002441406</ele>
        <time>2022-05-01T08:13:36Z</time>
      </trkpt>
      <trkpt lat="45.17454" lon="4.60399">
        <ele>749.40002441406</ele>
        <time>2022-05-01T08:13:38Z</time>
      </trkpt>
      <trkpt lat="45.17446" lon="4.60405">
        <ele>748.59997558594</ele>
        <time>2022-05-01T08:13:39Z</time>
      </trkpt>
      <trkpt lat="45.17417" lon="4.60427">
        <ele>744.20001220703</ele>
        <time>2022-05-01T08:13:42Z</time>
      </trkpt>
      <trkpt lat="45.17399" lon="4.60437">
        <ele>741.59997558594</ele>
        <time>2022-05-01T08:13:44Z</time>
      </trkpt>
      <trkpt lat="45.17375" lon="4.60436">
        <ele>736.20001220703</ele>
        <time>2022-05-01T08:13:47Z</time>
      </trkpt>
      <trkpt lat="45.17363" lon="4.60427">
        <ele>733</ele>
        <time>2022-05-01T08:13:49Z</time>
      </trkpt>
      <trkpt lat="45.17359" lon="4.60415">
        <ele>730.40002441406</ele>
        <time>2022-05-01T08:13:51Z</time>
      </trkpt>
      <trkpt lat="45.17354" lon="4.60403">
        <ele>729.40002441406</ele>
        <time>2022-05-01T08:13:53Z</time>
      </trkpt>
      <trkpt lat="45.17339" lon="4.60365">
        <ele>730.20001220703</ele>
        <time>2022-05-01T08:14:01Z</time>
      </trkpt>
      <trkpt lat="45.17334" lon="4.60329">
        <ele>733.20001220703</ele>
        <time>2022-05-01T08:14:10Z</time>
      </trkpt>
      <trkpt lat="45.17334" lon="4.6027">
        <ele>736.40002441406</ele>
        <time>2022-05-01T08:14:27Z</time>
      </trkpt>
      <trkpt lat="45.17339" lon="4.60223">
        <ele>738.79998779297</ele>
        <time>2022-05-01T08:14:40Z</time>
      </trkpt>
      <trkpt lat="45.17344" lon="4.60178">
        <ele>740.79998779297</ele>
        <time>2022-05-01T08:14:52Z</time>
      </trkpt>
      <trkpt lat="45.17349" lon="4.60138">
        <ele>743.40002441406</ele>
        <time>2022-05-01T08:15:05Z</time>
      </trkpt>
      <trkpt lat="45.17363" lon="4.60101">
        <ele>746</ele>
        <time>2022-05-01T08:15:17Z</time>
      </trkpt>
      <trkpt lat="45.17377" lon="4.60071">
        <ele>749</ele>
        <time>2022-05-01T08:15:28Z</time>
      </trkpt>
      <trkpt lat="45.17389" lon="4.60049">
        <ele>750.59997558594</ele>
        <time>2022-05-01T08:15:38Z</time>
      </trkpt>
      <trkpt lat="45.17402" lon="4.60026">
        <ele>752.40002441406</ele>
        <time>2022-05-01T08:15:48Z</time>
      </trkpt>
      <trkpt lat="45.17412" lon="4.60013">
        <ele>752.59997558594</ele>
        <time>2022-05-01T08:15:53Z</time>
      </trkpt>
      <trkpt lat="45.17415" lon="4.59999">
        <ele>753.20001220703</ele>
        <time>2022-05-01T08:15:56Z</time>
      </trkpt>
      <trkpt lat="45.17421" lon="4.59973">
        <ele>754.20001220703</ele>
        <time>2022-05-01T08:16:03Z</time>
      </trkpt>
      <trkpt lat="45.17422" lon="4.59959">
        <ele>755.20001220703</ele>
        <time>2022-05-01T08:16:08Z</time>
      </trkpt>
      <trkpt lat="45.17414" lon="4.59945">
        <ele>756.59997558594</ele>
        <time>2022-05-01T08:16:15Z</time>
      </trkpt>
      <trkpt lat="45.17403" lon="4.59933">
        <ele>757.40002441406</ele>
        <time>2022-05-01T08:16:20Z</time>
      </trkpt>
      <trkpt lat="45.17394" lon="4.59921">
        <ele>758.79998779297</ele>
        <time>2022-05-01T08:16:27Z</time>
      </trkpt>
      <trkpt lat="45.17388" lon="4.59893">
        <ele>760</ele>
        <time>2022-05-01T08:16:35Z</time>
      </trkpt>
      <trkpt lat="45.17387" lon="4.59889">
        <ele>760.20001220703</ele>
        <time>2022-05-01T08:16:36Z</time>
      </trkpt>
      <trkpt lat="45.17379" lon="4.59866">
        <ele>761.20001220703</ele>
        <time>2022-05-01T08:16:41Z</time>
      </trkpt>
      <trkpt lat="45.17378" lon="4.59862">
        <ele>761.40002441406</ele>
        <time>2022-05-01T08:16:42Z</time>
      </trkpt>
      <trkpt lat="45.17377" lon="4.59858">
        <ele>761.59997558594</ele>
        <time>2022-05-01T08:16:43Z</time>
      </trkpt>
      <trkpt lat="45.17373" lon="4.5985">
        <ele>762</ele>
        <time>2022-05-01T08:16:45Z</time>
      </trkpt>
      <trkpt lat="45.1737" lon="4.59827">
        <ele>763</ele>
        <time>2022-05-01T08:16:51Z</time>
      </trkpt>
      <trkpt lat="45.17369" lon="4.59797">
        <ele>764.40002441406</ele>
        <time>2022-05-01T08:17:00Z</time>
      </trkpt>
      <trkpt lat="45.17368" lon="4.59766">
        <ele>766</ele>
        <time>2022-05-01T08:17:10Z</time>
      </trkpt>
      <trkpt lat="45.17367" lon="4.59726">
        <ele>768.40002441406</ele>
        <time>2022-05-01T08:17:23Z</time>
      </trkpt>
      <trkpt lat="45.1737" lon="4.59692">
        <ele>770.79998779297</ele>
        <time>2022-05-01T08:17:35Z</time>
      </trkpt>
      <trkpt lat="45.1737" lon="4.59677">
        <ele>771.59997558594</ele>
        <time>2022-05-01T08:17:40Z</time>
      </trkpt>
      <trkpt lat="45.1737" lon="4.59654">
        <ele>773.20001220703</ele>
        <time>2022-05-01T08:17:47Z</time>
      </trkpt>
      <trkpt lat="45.1737" lon="4.59651">
        <ele>773.20001220703</ele>
        <time>2022-05-01T08:17:48Z</time>
      </trkpt>
      <trkpt lat="45.17368" lon="4.59631">
        <ele>774.20001220703</ele>
        <time>2022-05-01T08:17:53Z</time>
      </trkpt>
      <trkpt lat="45.17368" lon="4.59594">
        <ele>775</ele>
        <time>2022-05-01T08:18:03Z</time>
      </trkpt>
      <trkpt lat="45.17369" lon="4.59561">
        <ele>776</ele>
        <time>2022-05-01T08:18:12Z</time>
      </trkpt>
      <trkpt lat="45.17375" lon="4.59518">
        <ele>777.79998779297</ele>
        <time>2022-05-01T08:18:24Z</time>
      </trkpt>
      <trkpt lat="45.17379" lon="4.5949">
        <ele>779.40002441406</ele>
        <time>2022-05-01T08:18:32Z</time>
      </trkpt>
      <trkpt lat="45.1739" lon="4.59429">
        <ele>782</ele>
        <time>2022-05-01T08:18:50Z</time>
      </trkpt>
      <trkpt lat="45.17389" lon="4.59394">
        <ele>783.59997558594</ele>
        <time>2022-05-01T08:19:01Z</time>
      </trkpt>
      <trkpt lat="45.17378" lon="4.59342">
        <ele>785.59997558594</ele>
        <time>2022-05-01T08:19:17Z</time>
      </trkpt>
      <trkpt lat="45.17365" lon="4.59303">
        <ele>787.79998779297</ele>
        <time>2022-05-01T08:19:30Z</time>
      </trkpt>
      <trkpt lat="45.17354" lon="4.59253">
        <ele>790.20001220703</ele>
        <time>2022-05-01T08:19:45Z</time>
      </trkpt>
      <trkpt lat="45.17374" lon="4.59229">
        <ele>792.79998779297</ele>
        <time>2022-05-01T08:19:57Z</time>
      </trkpt>
      <trkpt lat="45.17418" lon="4.59231">
        <ele>794.79998779297</ele>
        <time>2022-05-01T08:20:12Z</time>
      </trkpt>
      <trkpt lat="45.17462" lon="4.59236">
        <ele>795.79998779297</ele>
        <time>2022-05-01T08:20:27Z</time>
      </trkpt>
      <trkpt lat="45.17502" lon="4.59248">
        <ele>797.59997558594</ele>
        <time>2022-05-01T08:20:40Z</time>
      </trkpt>
      <trkpt lat="45.17527" lon="4.5926">
        <ele>798.59997558594</ele>
        <time>2022-05-01T08:20:49Z</time>
      </trkpt>
      <trkpt lat="45.17548" lon="4.59274">
        <ele>799.40002441406</ele>
        <time>2022-05-01T08:20:55Z</time>
      </trkpt>
      <trkpt lat="45.17581" lon="4.59304">
        <ele>800</ele>
        <time>2022-05-01T08:21:06Z</time>
      </trkpt>
      <trkpt lat="45.17637" lon="4.59333">
        <ele>802</ele>
        <time>2022-05-01T08:21:25Z</time>
      </trkpt>
      <trkpt lat="45.17669" lon="4.5929">
        <ele>804</ele>
        <time>2022-05-01T08:21:38Z</time>
      </trkpt>
      <trkpt lat="45.17692" lon="4.5925">
        <ele>805.59997558594</ele>
        <time>2022-05-01T08:21:49Z</time>
      </trkpt>
      <trkpt lat="45.17705" lon="4.59236">
        <ele>806.40002441406</ele>
        <time>2022-05-01T08:21:54Z</time>
      </trkpt>
      <trkpt lat="45.17713" lon="4.59201">
        <ele>807.59997558594</ele>
        <time>2022-05-01T08:22:01Z</time>
      </trkpt>
      <trkpt lat="45.17707" lon="4.59189">
        <ele>808</ele>
        <time>2022-05-01T08:22:04Z</time>
      </trkpt>
      <trkpt lat="45.17688" lon="4.59173">
        <ele>808.79998779297</ele>
        <time>2022-05-01T08:22:12Z</time>
      </trkpt>
      <trkpt lat="45.17681" lon="4.59167">
        <ele>809</ele>
        <time>2022-05-01T08:22:16Z</time>
      </trkpt>
      <trkpt lat="45.17679" lon="4.59162">
        <ele>809</ele>
        <time>2022-05-01T08:22:18Z</time>
      </trkpt>
      <trkpt lat="45.17665" lon="4.5915">
        <ele>809.40002441406</ele>
        <time>2022-05-01T08:22:21Z</time>
      </trkpt>
      <trkpt lat="45.17648" lon="4.59129">
        <ele>810</ele>
        <time>2022-05-01T08:22:26Z</time>
      </trkpt>
      <trkpt lat="45.17643" lon="4.59123">
        <ele>810</ele>
        <time>2022-05-01T08:22:28Z</time>
      </trkpt>
      <trkpt lat="45.17638" lon="4.59084">
        <ele>810.79998779297</ele>
        <time>2022-05-01T08:22:35Z</time>
      </trkpt>
      <trkpt lat="45.17639" lon="4.59076">
        <ele>811.20001220703</ele>
        <time>2022-05-01T08:22:37Z</time>
      </trkpt>
      <trkpt lat="45.17639" lon="4.59072">
        <ele>811.20001220703</ele>
        <time>2022-05-01T08:22:38Z</time>
      </trkpt>
      <trkpt lat="45.17639" lon="4.59044">
        <ele>811.79998779297</ele>
        <time>2022-05-01T08:22:44Z</time>
      </trkpt>
      <trkpt lat="45.17637" lon="4.59026">
        <ele>812.40002441406</ele>
        <time>2022-05-01T08:22:49Z</time>
      </trkpt>
      <trkpt lat="45.17642" lon="4.59003">
        <ele>812.79998779297</ele>
        <time>2022-05-01T08:22:53Z</time>
      </trkpt>
      <trkpt lat="45.17643" lon="4.58998">
        <ele>813.20001220703</ele>
        <time>2022-05-01T08:22:54Z</time>
      </trkpt>
      <trkpt lat="45.17648" lon="4.58963">
        <ele>814</ele>
        <time>2022-05-01T08:22:59Z</time>
      </trkpt>
      <trkpt lat="45.17648" lon="4.58948">
        <ele>814.20001220703</ele>
        <time>2022-05-01T08:23:02Z</time>
      </trkpt>
      <trkpt lat="45.17655" lon="4.58932">
        <ele>814.40002441406</ele>
        <time>2022-05-01T08:23:05Z</time>
      </trkpt>
      <trkpt lat="45.1766" lon="4.58899">
        <ele>815.59997558594</ele>
        <time>2022-05-01T08:23:12Z</time>
      </trkpt>
      <trkpt lat="45.17664" lon="4.58875">
        <ele>815.79998779297</ele>
        <time>2022-05-01T08:23:18Z</time>
      </trkpt>
      <trkpt lat="45.17681" lon="4.58834">
        <ele>817</ele>
        <time>2022-05-01T08:23:28Z</time>
      </trkpt>
      <trkpt lat="45.17686" lon="4.58827">
        <ele>817.20001220703</ele>
        <time>2022-05-01T08:23:30Z</time>
      </trkpt>
      <trkpt lat="45.17696" lon="4.58804">
        <ele>817.59997558594</ele>
        <time>2022-05-01T08:23:34Z</time>
      </trkpt>
      <trkpt lat="45.17702" lon="4.58788">
        <ele>817.79998779297</ele>
        <time>2022-05-01T08:23:37Z</time>
      </trkpt>
      <trkpt lat="45.17711" lon="4.58773">
        <ele>818</ele>
        <time>2022-05-01T08:23:40Z</time>
      </trkpt>
      <trkpt lat="45.17726" lon="4.5875">
        <ele>818.59997558594</ele>
        <time>2022-05-01T08:23:45Z</time>
      </trkpt>
      <trkpt lat="45.17741" lon="4.58738">
        <ele>819.59997558594</ele>
        <time>2022-05-01T08:23:50Z</time>
      </trkpt>
      <trkpt lat="45.17766" lon="4.58734">
        <ele>820.40002441406</ele>
        <time>2022-05-01T08:24:00Z</time>
      </trkpt>
      <trkpt lat="45.17772" lon="4.58734">
        <ele>820.59997558594</ele>
        <time>2022-05-01T08:24:02Z</time>
      </trkpt>
      <trkpt lat="45.17793" lon="4.58734">
        <ele>821.20001220703</ele>
        <time>2022-05-01T08:24:06Z</time>
      </trkpt>
      <trkpt lat="45.17808" lon="4.58725">
        <ele>821.79998779297</ele>
        <time>2022-05-01T08:24:11Z</time>
      </trkpt>
      <trkpt lat="45.17817" lon="4.58725">
        <ele>821.79998779297</ele>
        <time>2022-05-01T08:24:14Z</time>
      </trkpt>
      <trkpt lat="45.17846" lon="4.58713">
        <ele>822.79998779297</ele>
        <time>2022-05-01T08:24:20Z</time>
      </trkpt>
      <trkpt lat="45.17853" lon="4.58708">
        <ele>823</ele>
        <time>2022-05-01T08:24:21Z</time>
      </trkpt>
      <trkpt lat="45.17859" lon="4.58703">
        <ele>823.20001220703</ele>
        <time>2022-05-01T08:24:24Z</time>
      </trkpt>
      <trkpt lat="45.17884" lon="4.58705">
        <ele>824</ele>
        <time>2022-05-01T08:24:30Z</time>
      </trkpt>
      <trkpt lat="45.17906" lon="4.58695">
        <ele>825</ele>
        <time>2022-05-01T08:24:37Z</time>
      </trkpt>
      <trkpt lat="45.17908" lon="4.58662">
        <ele>825.59997558594</ele>
        <time>2022-05-01T08:24:45Z</time>
      </trkpt>
      <trkpt lat="45.17903" lon="4.58653">
        <ele>825.79998779297</ele>
        <time>2022-05-01T08:24:47Z</time>
      </trkpt>
      <trkpt lat="45.17882" lon="4.58627">
        <ele>826.59997558594</ele>
        <time>2022-05-01T08:24:54Z</time>
      </trkpt>
      <trkpt lat="45.17866" lon="4.58604">
        <ele>827.20001220703</ele>
        <time>2022-05-01T08:25:02Z</time>
      </trkpt>
      <trkpt lat="45.17847" lon="4.58589">
        <ele>828.79998779297</ele>
        <time>2022-05-01T08:25:11Z</time>
      </trkpt>
      <trkpt lat="45.17829" lon="4.5857">
        <ele>829.59997558594</ele>
        <time>2022-05-01T08:25:18Z</time>
      </trkpt>
      <trkpt lat="45.17824" lon="4.58564">
        <ele>829.79998779297</ele>
        <time>2022-05-01T08:25:20Z</time>
      </trkpt>
      <trkpt lat="45.17814" lon="4.58548">
        <ele>830.40002441406</ele>
        <time>2022-05-01T08:25:24Z</time>
      </trkpt>
      <trkpt lat="45.17805" lon="4.58536">
        <ele>830.59997558594</ele>
        <time>2022-05-01T08:25:26Z</time>
      </trkpt>
      <trkpt lat="45.17785" lon="4.58505">
        <ele>831.59997558594</ele>
        <time>2022-05-01T08:25:32Z</time>
      </trkpt>
      <trkpt lat="45.17769" lon="4.58489">
        <ele>831.59997558594</ele>
        <time>2022-05-01T08:25:37Z</time>
      </trkpt>
      <trkpt lat="45.17766" lon="4.58486">
        <ele>831.79998779297</ele>
        <time>2022-05-01T08:25:38Z</time>
      </trkpt>
      <trkpt lat="45.1772" lon="4.58444">
        <ele>833.20001220703</ele>
        <time>2022-05-01T08:25:55Z</time>
      </trkpt>
      <trkpt lat="45.177" lon="4.58381">
        <ele>834.79998779297</ele>
        <time>2022-05-01T08:26:09Z</time>
      </trkpt>
      <trkpt lat="45.17694" lon="4.58327">
        <ele>835.79998779297</ele>
        <time>2022-05-01T08:26:20Z</time>
      </trkpt>
      <trkpt lat="45.17691" lon="4.58274">
        <ele>836.79998779297</ele>
        <time>2022-05-01T08:26:31Z</time>
      </trkpt>
      <trkpt lat="45.17685" lon="4.58238">
        <ele>837.79998779297</ele>
        <time>2022-05-01T08:26:38Z</time>
      </trkpt>
      <trkpt lat="45.17683" lon="4.58195">
        <ele>838.40002441406</ele>
        <time>2022-05-01T08:26:46Z</time>
      </trkpt>
      <trkpt lat="45.17682" lon="4.58185">
        <ele>838.59997558594</ele>
        <time>2022-05-01T08:26:48Z</time>
      </trkpt>
      <trkpt lat="45.17694" lon="4.58128">
        <ele>839.40002441406</ele>
        <time>2022-05-01T08:26:58Z</time>
      </trkpt>
      <trkpt lat="45.17707" lon="4.58092">
        <ele>840.20001220703</ele>
        <time>2022-05-01T08:27:06Z</time>
      </trkpt>
      <trkpt lat="45.17723" lon="4.5805">
        <ele>841.59997558594</ele>
        <time>2022-05-01T08:27:17Z</time>
      </trkpt>
      <trkpt lat="45.17733" lon="4.58015">
        <ele>842.20001220703</ele>
        <time>2022-05-01T08:27:25Z</time>
      </trkpt>
      <trkpt lat="45.17743" lon="4.57979">
        <ele>842.79998779297</ele>
        <time>2022-05-01T08:27:32Z</time>
      </trkpt>
      <trkpt lat="45.17752" lon="4.57939">
        <ele>843.59997558594</ele>
        <time>2022-05-01T08:27:38Z</time>
      </trkpt>
      <trkpt lat="45.17763" lon="4.57912">
        <ele>843.79998779297</ele>
        <time>2022-05-01T08:27:43Z</time>
      </trkpt>
      <trkpt lat="45.17769" lon="4.57893">
        <ele>844.40002441406</ele>
        <time>2022-05-01T08:27:46Z</time>
      </trkpt>
      <trkpt lat="45.17772" lon="4.57881">
        <ele>844.59997558594</ele>
        <time>2022-05-01T08:27:48Z</time>
      </trkpt>
      <trkpt lat="45.17778" lon="4.57856">
        <ele>844.79998779297</ele>
        <time>2022-05-01T08:27:52Z</time>
      </trkpt>
      <trkpt lat="45.17787" lon="4.57821">
        <ele>845.20001220703</ele>
        <time>2022-05-01T08:27:59Z</time>
      </trkpt>
      <trkpt lat="45.17812" lon="4.57747">
        <ele>847</ele>
        <time>2022-05-01T08:28:15Z</time>
      </trkpt>
      <trkpt lat="45.17826" lon="4.57689">
        <ele>848.40002441406</ele>
        <time>2022-05-01T08:28:27Z</time>
      </trkpt>
      <trkpt lat="45.1783" lon="4.5767">
        <ele>849.20001220703</ele>
        <time>2022-05-01T08:28:31Z</time>
      </trkpt>
      <trkpt lat="45.17835" lon="4.57657">
        <ele>849.20001220703</ele>
        <time>2022-05-01T08:28:33Z</time>
      </trkpt>
      <trkpt lat="45.1784" lon="4.57628">
        <ele>849.40002441406</ele>
        <time>2022-05-01T08:28:38Z</time>
      </trkpt>
      <trkpt lat="45.17847" lon="4.57597">
        <ele>850.20001220703</ele>
        <time>2022-05-01T08:28:45Z</time>
      </trkpt>
      <trkpt lat="45.17849" lon="4.57593">
        <ele>850.40002441406</ele>
        <time>2022-05-01T08:28:46Z</time>
      </trkpt>
      <trkpt lat="45.1787" lon="4.57543">
        <ele>852</ele>
        <time>2022-05-01T08:28:59Z</time>
      </trkpt>
      <trkpt lat="45.17888" lon="4.57493">
        <ele>853</ele>
        <time>2022-05-01T08:29:09Z</time>
      </trkpt>
      <trkpt lat="45.1789" lon="4.57481">
        <ele>853</ele>
        <time>2022-05-01T08:29:11Z</time>
      </trkpt>
      <trkpt lat="45.179" lon="4.57455">
        <ele>852.79998779297</ele>
        <time>2022-05-01T08:29:15Z</time>
      </trkpt>
      <trkpt lat="45.17904" lon="4.57448">
        <ele>852.59997558594</ele>
        <time>2022-05-01T08:29:16Z</time>
      </trkpt>
      <trkpt lat="45.17921" lon="4.57408">
        <ele>851.79998779297</ele>
        <time>2022-05-01T08:29:22Z</time>
      </trkpt>
      <trkpt lat="45.1794" lon="4.57366">
        <ele>851.40002441406</ele>
        <time>2022-05-01T08:29:29Z</time>
      </trkpt>
      <trkpt lat="45.1797" lon="4.57297">
        <ele>850.20001220703</ele>
        <time>2022-05-01T08:29:42Z</time>
      </trkpt>
      <trkpt lat="45.17977" lon="4.57271">
        <ele>850.59997558594</ele>
        <time>2022-05-01T08:29:47Z</time>
      </trkpt>
      <trkpt lat="45.1799" lon="4.57193">
        <ele>851.59997558594</ele>
        <time>2022-05-01T08:30:00Z</time>
      </trkpt>
      <trkpt lat="45.18" lon="4.57148">
        <ele>851.59997558594</ele>
        <time>2022-05-01T08:30:08Z</time>
      </trkpt>
      <trkpt lat="45.17995" lon="4.57116">
        <ele>851.79998779297</ele>
        <time>2022-05-01T08:30:15Z</time>
      </trkpt>
      <trkpt lat="45.17967" lon="4.57073">
        <ele>853.59997558594</ele>
        <time>2022-05-01T08:30:31Z</time>
      </trkpt>
      <trkpt lat="45.17958" lon="4.5706">
        <ele>855.59997558594</ele>
        <time>2022-05-01T08:30:37Z</time>
      </trkpt>
      <trkpt lat="45.1794" lon="4.57073">
        <ele>857.40002441406</ele>
        <time>2022-05-01T08:30:47Z</time>
      </trkpt>
      <trkpt lat="45.17924" lon="4.57096">
        <ele>860.40002441406</ele>
        <time>2022-05-01T08:30:58Z</time>
      </trkpt>
      <trkpt lat="45.17895" lon="4.57125">
        <ele>862.59997558594</ele>
        <time>2022-05-01T08:31:14Z</time>
      </trkpt>
      <trkpt lat="45.17862" lon="4.57154">
        <ele>865.20001220703</ele>
        <time>2022-05-01T08:31:31Z</time>
      </trkpt>
      <trkpt lat="45.17835" lon="4.57166">
        <ele>868.20001220703</ele>
        <time>2022-05-01T08:31:44Z</time>
      </trkpt>
      <trkpt lat="45.17806" lon="4.57174">
        <ele>870.59997558594</ele>
        <time>2022-05-01T08:32:00Z</time>
      </trkpt>
      <trkpt lat="45.17779" lon="4.57189">
        <ele>872.20001220703</ele>
        <time>2022-05-01T08:32:10Z</time>
      </trkpt>
      <trkpt lat="45.17739" lon="4.57209">
        <ele>873.79998779297</ele>
        <time>2022-05-01T08:32:26Z</time>
      </trkpt>
      <trkpt lat="45.177" lon="4.57224">
        <ele>875.40002441406</ele>
        <time>2022-05-01T08:32:43Z</time>
      </trkpt>
      <trkpt lat="45.17665" lon="4.57244">
        <ele>876.79998779297</ele>
        <time>2022-05-01T08:32:57Z</time>
      </trkpt>
      <trkpt lat="45.17661" lon="4.57242">
        <ele>877.79998779297</ele>
        <time>2022-05-01T08:33:08Z</time>
      </trkpt>
      <trkpt lat="45.17661" lon="4.57241">
        <ele>878.20001220703</ele>
        <time>2022-05-01T08:33:52Z</time>
      </trkpt>
      <trkpt lat="45.17696" lon="4.57221">
        <ele>879.40002441406</ele>
        <time>2022-05-01T08:34:07Z</time>
      </trkpt>
      <trkpt lat="45.17724" lon="4.57195">
        <ele>882</ele>
        <time>2022-05-01T08:34:19Z</time>
      </trkpt>
      <trkpt lat="45.17756" lon="4.57163">
        <ele>884.20001220703</ele>
        <time>2022-05-01T08:34:34Z</time>
      </trkpt>
      <trkpt lat="45.17784" lon="4.57138">
        <ele>886.59997558594</ele>
        <time>2022-05-01T08:34:48Z</time>
      </trkpt>
      <trkpt lat="45.17813" lon="4.57111">
        <ele>889.59997558594</ele>
        <time>2022-05-01T08:35:01Z</time>
      </trkpt>
      <trkpt lat="45.17842" lon="4.57074">
        <ele>890.59997558594</ele>
        <time>2022-05-01T08:35:13Z</time>
      </trkpt>
      <trkpt lat="45.17863" lon="4.57028">
        <ele>891.40002441406</ele>
        <time>2022-05-01T08:35:26Z</time>
      </trkpt>
      <trkpt lat="45.17868" lon="4.57014">
        <ele>892.20001220703</ele>
        <time>2022-05-01T08:35:30Z</time>
      </trkpt>
      <trkpt lat="45.17881" lon="4.56975">
        <ele>893.59997558594</ele>
        <time>2022-05-01T08:35:38Z</time>
      </trkpt>
      <trkpt lat="45.17882" lon="4.56971">
        <ele>893.79998779297</ele>
        <time>2022-05-01T08:35:39Z</time>
      </trkpt>
      <trkpt lat="45.17885" lon="4.56952">
        <ele>894.59997558594</ele>
        <time>2022-05-01T08:35:43Z</time>
      </trkpt>
      <trkpt lat="45.17889" lon="4.56937">
        <ele>894.79998779297</ele>
        <time>2022-05-01T08:35:46Z</time>
      </trkpt>
      <trkpt lat="45.17899" lon="4.56899">
        <ele>895.79998779297</ele>
        <time>2022-05-01T08:35:55Z</time>
      </trkpt>
      <trkpt lat="45.17901" lon="4.56879">
        <ele>896.20001220703</ele>
        <time>2022-05-01T08:35:59Z</time>
      </trkpt>
      <trkpt lat="45.17904" lon="4.56851">
        <ele>896.20001220703</ele>
        <time>2022-05-01T08:36:04Z</time>
      </trkpt>
      <trkpt lat="45.17905" lon="4.56828">
        <ele>896.59997558594</ele>
        <time>2022-05-01T08:36:08Z</time>
      </trkpt>
      <trkpt lat="45.17922" lon="4.56822">
        <ele>896.79998779297</ele>
        <time>2022-05-01T08:36:15Z</time>
      </trkpt>
      <trkpt lat="45.17926" lon="4.56828">
        <ele>896.79998779297</ele>
        <time>2022-05-01T08:36:17Z</time>
      </trkpt>
      <trkpt lat="45.17959" lon="4.56889">
        <ele>897.59997558594</ele>
        <time>2022-05-01T08:36:32Z</time>
      </trkpt>
      <trkpt lat="45.17988" lon="4.56943">
        <ele>898.20001220703</ele>
        <time>2022-05-01T08:36:42Z</time>
      </trkpt>
      <trkpt lat="45.18042" lon="4.56935">
        <ele>898.79998779297</ele>
        <time>2022-05-01T08:36:56Z</time>
      </trkpt>
      <trkpt lat="45.18072" lon="4.56917">
        <ele>899.40002441406</ele>
        <time>2022-05-01T08:37:04Z</time>
      </trkpt>
      <trkpt lat="45.18105" lon="4.56922">
        <ele>900.20001220703</ele>
        <time>2022-05-01T08:37:13Z</time>
      </trkpt>
      <trkpt lat="45.18113" lon="4.56929">
        <ele>900.79998779297</ele>
        <time>2022-05-01T08:37:16Z</time>
      </trkpt>
      <trkpt lat="45.18146" lon="4.56981">
        <ele>901.79998779297</ele>
        <time>2022-05-01T08:37:28Z</time>
      </trkpt>
      <trkpt lat="45.18148" lon="4.56984">
        <ele>901.79998779297</ele>
        <time>2022-05-01T08:37:29Z</time>
      </trkpt>
      <trkpt lat="45.18167" lon="4.57019">
        <ele>903.40002441406</ele>
        <time>2022-05-01T08:37:40Z</time>
      </trkpt>
      <trkpt lat="45.18169" lon="4.57024">
        <ele>903.59997558594</ele>
        <time>2022-05-01T08:37:41Z</time>
      </trkpt>
      <trkpt lat="45.18187" lon="4.57059">
        <ele>904</ele>
        <time>2022-05-01T08:37:47Z</time>
      </trkpt>
      <trkpt lat="45.18198" lon="4.57081">
        <ele>904.40002441406</ele>
        <time>2022-05-01T08:37:52Z</time>
      </trkpt>
      <trkpt lat="45.18204" lon="4.571">
        <ele>904.79998779297</ele>
        <time>2022-05-01T08:37:55Z</time>
      </trkpt>
      <trkpt lat="45.1821" lon="4.57122">
        <ele>905.59997558594</ele>
        <time>2022-05-01T08:37:59Z</time>
      </trkpt>
      <trkpt lat="45.1822" lon="4.57156">
        <ele>907.40002441406</ele>
        <time>2022-05-01T08:38:07Z</time>
      </trkpt>
      <trkpt lat="45.18231" lon="4.57179">
        <ele>908.40002441406</ele>
        <time>2022-05-01T08:38:13Z</time>
      </trkpt>
      <trkpt lat="45.18236" lon="4.57219">
        <ele>909.59997558594</ele>
        <time>2022-05-01T08:38:19Z</time>
      </trkpt>
      <trkpt lat="45.18237" lon="4.57223">
        <ele>909.59997558594</ele>
        <time>2022-05-01T08:38:20Z</time>
      </trkpt>
      <trkpt lat="45.18239" lon="4.57232">
        <ele>909.79998779297</ele>
        <time>2022-05-01T08:38:22Z</time>
      </trkpt>
      <trkpt lat="45.18243" lon="4.57253">
        <ele>910.79998779297</ele>
        <time>2022-05-01T08:38:27Z</time>
      </trkpt>
      <trkpt lat="45.18242" lon="4.57273">
        <ele>912</ele>
        <time>2022-05-01T08:38:33Z</time>
      </trkpt>
      <trkpt lat="45.18237" lon="4.5729">
        <ele>913.40002441406</ele>
        <time>2022-05-01T08:38:39Z</time>
      </trkpt>
      <trkpt lat="45.1824" lon="4.57308">
        <ele>915.40002441406</ele>
        <time>2022-05-01T08:38:47Z</time>
      </trkpt>
      <trkpt lat="45.18256" lon="4.5731">
        <ele>917.40002441406</ele>
        <time>2022-05-01T08:38:57Z</time>
      </trkpt>
      <trkpt lat="45.18265" lon="4.57292">
        <ele>919</ele>
        <time>2022-05-01T08:39:05Z</time>
      </trkpt>
      <trkpt lat="45.18266" lon="4.57284">
        <ele>919.40002441406</ele>
        <time>2022-05-01T08:39:08Z</time>
      </trkpt>
      <trkpt lat="45.1827" lon="4.5727">
        <ele>921.40002441406</ele>
        <time>2022-05-01T08:39:13Z</time>
      </trkpt>
      <trkpt lat="45.18268" lon="4.5724">
        <ele>923.40002441406</ele>
        <time>2022-05-01T08:39:22Z</time>
      </trkpt>
      <trkpt lat="45.18267" lon="4.5721">
        <ele>924.40002441406</ele>
        <time>2022-05-01T08:39:30Z</time>
      </trkpt>
      <trkpt lat="45.18267" lon="4.57201">
        <ele>924.79998779297</ele>
        <time>2022-05-01T08:39:32Z</time>
      </trkpt>
      <trkpt lat="45.18268" lon="4.57191">
        <ele>925.40002441406</ele>
        <time>2022-05-01T08:39:35Z</time>
      </trkpt>
      <trkpt lat="45.18266" lon="4.57173">
        <ele>926.20001220703</ele>
        <time>2022-05-01T08:39:40Z</time>
      </trkpt>
      <trkpt lat="45.18267" lon="4.5717">
        <ele>926.20001220703</ele>
        <time>2022-05-01T08:39:41Z</time>
      </trkpt>
      <trkpt lat="45.18268" lon="4.57159">
        <ele>927.59997558594</ele>
        <time>2022-05-01T08:39:45Z</time>
      </trkpt>
      <trkpt lat="45.18269" lon="4.57155">
        <ele>928</ele>
        <time>2022-05-01T08:39:47Z</time>
      </trkpt>
      <trkpt lat="45.18271" lon="4.57124">
        <ele>929.79998779297</ele>
        <time>2022-05-01T08:39:56Z</time>
      </trkpt>
      <trkpt lat="45.18265" lon="4.57093">
        <ele>930.59997558594</ele>
        <time>2022-05-01T08:40:04Z</time>
      </trkpt>
      <trkpt lat="45.18261" lon="4.57065">
        <ele>932.59997558594</ele>
        <time>2022-05-01T08:40:12Z</time>
      </trkpt>
      <trkpt lat="45.18258" lon="4.57029">
        <ele>933.79998779297</ele>
        <time>2022-05-01T08:40:21Z</time>
      </trkpt>
      <trkpt lat="45.18257" lon="4.57025">
        <ele>934.20001220703</ele>
        <time>2022-05-01T08:40:22Z</time>
      </trkpt>
      <trkpt lat="45.18251" lon="4.57008">
        <ele>935.20001220703</ele>
        <time>2022-05-01T08:40:29Z</time>
      </trkpt>
      <trkpt lat="45.1825" lon="4.57004">
        <ele>935.40002441406</ele>
        <time>2022-05-01T08:40:31Z</time>
      </trkpt>
      <trkpt lat="45.18243" lon="4.56986">
        <ele>936.59997558594</ele>
        <time>2022-05-01T08:40:37Z</time>
      </trkpt>
      <trkpt lat="45.18228" lon="4.56965">
        <ele>938</ele>
        <time>2022-05-01T08:40:45Z</time>
      </trkpt>
      <trkpt lat="45.18226" lon="4.56952">
        <ele>938.59997558594</ele>
        <time>2022-05-01T08:40:49Z</time>
      </trkpt>
      <trkpt lat="45.18224" lon="4.56941">
        <ele>939.20001220703</ele>
        <time>2022-05-01T08:40:53Z</time>
      </trkpt>
      <trkpt lat="45.18221" lon="4.56932">
        <ele>940.20001220703</ele>
        <time>2022-05-01T08:40:59Z</time>
      </trkpt>
      <trkpt lat="45.18222" lon="4.56932">
        <ele>940.79998779297</ele>
        <time>2022-05-01T08:41:02Z</time>
      </trkpt>
      <trkpt lat="45.18226" lon="4.56938">
        <ele>941.59997558594</ele>
        <time>2022-05-01T08:41:06Z</time>
      </trkpt>
      <trkpt lat="45.18235" lon="4.56947">
        <ele>943</ele>
        <time>2022-05-01T08:41:17Z</time>
      </trkpt>
      <trkpt lat="45.18253" lon="4.56965">
        <ele>945</ele>
        <time>2022-05-01T08:41:27Z</time>
      </trkpt>
      <trkpt lat="45.18265" lon="4.56985">
        <ele>946.79998779297</ele>
        <time>2022-05-01T08:41:35Z</time>
      </trkpt>
      <trkpt lat="45.18271" lon="4.56992">
        <ele>947.59997558594</ele>
        <time>2022-05-01T08:41:40Z</time>
      </trkpt>
      <trkpt lat="45.18285" lon="4.57011">
        <ele>949.40002441406</ele>
        <time>2022-05-01T08:41:49Z</time>
      </trkpt>
      <trkpt lat="45.1829" lon="4.57028">
        <ele>950.59997558594</ele>
        <time>2022-05-01T08:41:55Z</time>
      </trkpt>
      <trkpt lat="45.18297" lon="4.57035">
        <ele>951.40002441406</ele>
        <time>2022-05-01T08:41:59Z</time>
      </trkpt>
      <trkpt lat="45.18303" lon="4.57042">
        <ele>952.79998779297</ele>
        <time>2022-05-01T08:42:05Z</time>
      </trkpt>
      <trkpt lat="45.18306" lon="4.5705">
        <ele>953.59997558594</ele>
        <time>2022-05-01T08:42:09Z</time>
      </trkpt>
      <trkpt lat="45.18312" lon="4.57061">
        <ele>954.40002441406</ele>
        <time>2022-05-01T08:42:14Z</time>
      </trkpt>
      <trkpt lat="45.18319" lon="4.57079">
        <ele>956.20001220703</ele>
        <time>2022-05-01T08:42:23Z</time>
      </trkpt>
      <trkpt lat="45.18332" lon="4.57106">
        <ele>958.79998779297</ele>
        <time>2022-05-01T08:42:36Z</time>
      </trkpt>
      <trkpt lat="45.18335" lon="4.57113">
        <ele>959.79998779297</ele>
        <time>2022-05-01T08:42:40Z</time>
      </trkpt>
      <trkpt lat="45.18344" lon="4.57134">
        <ele>961.40002441406</ele>
        <time>2022-05-01T08:42:48Z</time>
      </trkpt>
      <trkpt lat="45.18345" lon="4.57137">
        <ele>961.59997558594</ele>
        <time>2022-05-01T08:42:49Z</time>
      </trkpt>
      <trkpt lat="45.18349" lon="4.57149">
        <ele>962.20001220703</ele>
        <time>2022-05-01T08:42:54Z</time>
      </trkpt>
      <trkpt lat="45.18352" lon="4.57155">
        <ele>963</ele>
        <time>2022-05-01T08:42:58Z</time>
      </trkpt>
      <trkpt lat="45.18362" lon="4.57174">
        <ele>965</ele>
        <time>2022-05-01T08:43:09Z</time>
      </trkpt>
      <trkpt lat="45.18374" lon="4.57198">
        <ele>967.40002441406</ele>
        <time>2022-05-01T08:43:20Z</time>
      </trkpt>
      <trkpt lat="45.18376" lon="4.57203">
        <ele>968.20001220703</ele>
        <time>2022-05-01T08:43:23Z</time>
      </trkpt>
      <trkpt lat="45.18379" lon="4.57213">
        <ele>969.20001220703</ele>
        <time>2022-05-01T08:43:27Z</time>
      </trkpt>
      <trkpt lat="45.18383" lon="4.57226">
        <ele>970</ele>
        <time>2022-05-01T08:43:32Z</time>
      </trkpt>
      <trkpt lat="45.18384" lon="4.57241">
        <ele>971.40002441406</ele>
        <time>2022-05-01T08:43:39Z</time>
      </trkpt>
      <trkpt lat="45.18394" lon="4.57268">
        <ele>973.40002441406</ele>
        <time>2022-05-01T08:43:52Z</time>
      </trkpt>
      <trkpt lat="45.184" lon="4.57298">
        <ele>975.79998779297</ele>
        <time>2022-05-01T08:44:03Z</time>
      </trkpt>
      <trkpt lat="45.18404" lon="4.57314">
        <ele>977.20001220703</ele>
        <time>2022-05-01T08:44:09Z</time>
      </trkpt>
      <trkpt lat="45.18407" lon="4.57332">
        <ele>978.79998779297</ele>
        <time>2022-05-01T08:44:16Z</time>
      </trkpt>
      <trkpt lat="45.1841" lon="4.57344">
        <ele>979.79998779297</ele>
        <time>2022-05-01T08:44:21Z</time>
      </trkpt>
      <trkpt lat="45.18422" lon="4.57373">
        <ele>982.59997558594</ele>
        <time>2022-05-01T08:44:36Z</time>
      </trkpt>
      <trkpt lat="45.18431" lon="4.57401">
        <ele>985.20001220703</ele>
        <time>2022-05-01T08:44:49Z</time>
      </trkpt>
      <trkpt lat="45.18432" lon="4.57403">
        <ele>985.40002441406</ele>
        <time>2022-05-01T08:44:50Z</time>
      </trkpt>
      <trkpt lat="45.18433" lon="4.57413">
        <ele>986</ele>
        <time>2022-05-01T08:44:54Z</time>
      </trkpt>
      <trkpt lat="45.18437" lon="4.57422">
        <ele>987</ele>
        <time>2022-05-01T08:44:58Z</time>
      </trkpt>
      <trkpt lat="45.18437" lon="4.57429">
        <ele>987.40002441406</ele>
        <time>2022-05-01T08:45:01Z</time>
      </trkpt>
      <trkpt lat="45.18434" lon="4.57452">
        <ele>989.40002441406</ele>
        <time>2022-05-01T08:45:09Z</time>
      </trkpt>
      <trkpt lat="45.18433" lon="4.57464">
        <ele>990.79998779297</ele>
        <time>2022-05-01T08:45:13Z</time>
      </trkpt>
      <trkpt lat="45.18434" lon="4.57468">
        <ele>991.20001220703</ele>
        <time>2022-05-01T08:45:15Z</time>
      </trkpt>
      <trkpt lat="45.18432" lon="4.57477">
        <ele>992.20001220703</ele>
        <time>2022-05-01T08:45:19Z</time>
      </trkpt>
      <trkpt lat="45.1843" lon="4.57479">
        <ele>992.40002441406</ele>
        <time>2022-05-01T08:45:20Z</time>
      </trkpt>
      <trkpt lat="45.18438" lon="4.57482">
        <ele>993.20001220703</ele>
        <time>2022-05-01T08:45:27Z</time>
      </trkpt>
      <trkpt lat="45.18442" lon="4.57471">
        <ele>994.40002441406</ele>
        <time>2022-05-01T08:45:33Z</time>
      </trkpt>
      <trkpt lat="45.1845" lon="4.5745">
        <ele>996.20001220703</ele>
        <time>2022-05-01T08:45:44Z</time>
      </trkpt>
      <trkpt lat="45.18459" lon="4.57433">
        <ele>997.20001220703</ele>
        <time>2022-05-01T08:45:51Z</time>
      </trkpt>
      <trkpt lat="45.1846" lon="4.57428">
        <ele>998</ele>
        <time>2022-05-01T08:45:54Z</time>
      </trkpt>
      <trkpt lat="45.18461" lon="4.57407">
        <ele>999.20001220703</ele>
        <time>2022-05-01T08:46:01Z</time>
      </trkpt>
      <trkpt lat="45.18465" lon="4.5739">
        <ele>1000.200012207</ele>
        <time>2022-05-01T08:46:08Z</time>
      </trkpt>
      <trkpt lat="45.18463" lon="4.57379">
        <ele>1001.200012207</ele>
        <time>2022-05-01T08:46:13Z</time>
      </trkpt>
      <trkpt lat="45.18462" lon="4.57374">
        <ele>1002</ele>
        <time>2022-05-01T08:46:16Z</time>
      </trkpt>
      <trkpt lat="45.18465" lon="4.57359">
        <ele>1003.4000244141</ele>
        <time>2022-05-01T08:46:23Z</time>
      </trkpt>
      <trkpt lat="45.18465" lon="4.57346">
        <ele>1004.4000244141</ele>
        <time>2022-05-01T08:46:28Z</time>
      </trkpt>
      <trkpt lat="45.18468" lon="4.57326">
        <ele>1006</ele>
        <time>2022-05-01T08:46:36Z</time>
      </trkpt>
      <trkpt lat="45.18469" lon="4.57313">
        <ele>1006.799987793</ele>
        <time>2022-05-01T08:46:41Z</time>
      </trkpt>
      <trkpt lat="45.18476" lon="4.57287">
        <ele>1008.4000244141</ele>
        <time>2022-05-01T08:46:51Z</time>
      </trkpt>
      <trkpt lat="45.18476" lon="4.57277">
        <ele>1009.200012207</ele>
        <time>2022-05-01T08:46:55Z</time>
      </trkpt>
      <trkpt lat="45.18479" lon="4.57263">
        <ele>1010.200012207</ele>
        <time>2022-05-01T08:47:00Z</time>
      </trkpt>
      <trkpt lat="45.1848" lon="4.57262">
        <ele>1010.4000244141</ele>
        <time>2022-05-01T08:47:01Z</time>
      </trkpt>
      <trkpt lat="45.18485" lon="4.57248">
        <ele>1011.5999755859</ele>
        <time>2022-05-01T08:47:08Z</time>
      </trkpt>
      <trkpt lat="45.18488" lon="4.57234">
        <ele>1013</ele>
        <time>2022-05-01T08:47:15Z</time>
      </trkpt>
      <trkpt lat="45.18491" lon="4.57228">
        <ele>1013.799987793</ele>
        <time>2022-05-01T08:47:19Z</time>
      </trkpt>
      <trkpt lat="45.18503" lon="4.57204">
        <ele>1016.4000244141</ele>
        <time>2022-05-01T08:47:30Z</time>
      </trkpt>
      <trkpt lat="45.18504" lon="4.57201">
        <ele>1016.5999755859</ele>
        <time>2022-05-01T08:47:31Z</time>
      </trkpt>
      <trkpt lat="45.18509" lon="4.57183">
        <ele>1018</ele>
        <time>2022-05-01T08:47:39Z</time>
      </trkpt>
      <trkpt lat="45.18509" lon="4.57179">
        <ele>1018.4000244141</ele>
        <time>2022-05-01T08:47:42Z</time>
      </trkpt>
      <trkpt lat="45.18516" lon="4.57169">
        <ele>1019.200012207</ele>
        <time>2022-05-01T08:47:47Z</time>
      </trkpt>
      <trkpt lat="45.18543" lon="4.5717">
        <ele>1020.4000244141</ele>
        <time>2022-05-01T08:47:59Z</time>
      </trkpt>
      <trkpt lat="45.18567" lon="4.57191">
        <ele>1020.200012207</ele>
        <time>2022-05-01T08:48:11Z</time>
      </trkpt>
      <trkpt lat="45.18609" lon="4.5724">
        <ele>1021.200012207</ele>
        <time>2022-05-01T08:48:28Z</time>
      </trkpt>
      <trkpt lat="45.18664" lon="4.57305">
        <ele>1023.200012207</ele>
        <time>2022-05-01T08:48:47Z</time>
      </trkpt>
      <trkpt lat="45.18671" lon="4.57315">
        <ele>1023.5999755859</ele>
        <time>2022-05-01T08:48:51Z</time>
      </trkpt>
      <trkpt lat="45.18676" lon="4.57321">
        <ele>1024.1999511719</ele>
        <time>2022-05-01T08:48:53Z</time>
      </trkpt>
      <trkpt lat="45.18703" lon="4.57345">
        <ele>1025.1999511719</ele>
        <time>2022-05-01T08:49:01Z</time>
      </trkpt>
      <trkpt lat="45.18727" lon="4.57365">
        <ele>1026.1999511719</ele>
        <time>2022-05-01T08:49:08Z</time>
      </trkpt>
      <trkpt lat="45.18764" lon="4.57386">
        <ele>1027.8000488281</ele>
        <time>2022-05-01T08:49:21Z</time>
      </trkpt>
      <trkpt lat="45.18795" lon="4.57393">
        <ele>1029.5999755859</ele>
        <time>2022-05-01T08:49:30Z</time>
      </trkpt>
      <trkpt lat="45.1881" lon="4.57397">
        <ele>1030</ele>
        <time>2022-05-01T08:49:34Z</time>
      </trkpt>
      <trkpt lat="45.18819" lon="4.57395">
        <ele>1030.4000244141</ele>
        <time>2022-05-01T08:49:37Z</time>
      </trkpt>
      <trkpt lat="45.18849" lon="4.57395">
        <ele>1031.4000244141</ele>
        <time>2022-05-01T08:49:44Z</time>
      </trkpt>
      <trkpt lat="45.18869" lon="4.57389">
        <ele>1031.5999755859</ele>
        <time>2022-05-01T08:49:48Z</time>
      </trkpt>
      <trkpt lat="45.18885" lon="4.57389">
        <ele>1032.5999755859</ele>
        <time>2022-05-01T08:49:53Z</time>
      </trkpt>
      <trkpt lat="45.18898" lon="4.57388">
        <ele>1033</ele>
        <time>2022-05-01T08:49:57Z</time>
      </trkpt>
      <trkpt lat="45.18908" lon="4.57387">
        <ele>1033.5999755859</ele>
        <time>2022-05-01T08:50:00Z</time>
      </trkpt>
      <trkpt lat="45.18936" lon="4.57397">
        <ele>1034.4000244141</ele>
        <time>2022-05-01T08:50:07Z</time>
      </trkpt>
      <trkpt lat="45.1895" lon="4.57417">
        <ele>1034.8000488281</ele>
        <time>2022-05-01T08:50:13Z</time>
      </trkpt>
      <trkpt lat="45.1895" lon="4.57422">
        <ele>1035.1999511719</ele>
        <time>2022-05-01T08:50:14Z</time>
      </trkpt>
      <trkpt lat="45.18952" lon="4.57439">
        <ele>1035.5999755859</ele>
        <time>2022-05-01T08:50:17Z</time>
      </trkpt>
      <trkpt lat="45.18946" lon="4.57479">
        <ele>1035.8000488281</ele>
        <time>2022-05-01T08:50:24Z</time>
      </trkpt>
      <trkpt lat="45.18944" lon="4.57489">
        <ele>1035.5999755859</ele>
        <time>2022-05-01T08:50:26Z</time>
      </trkpt>
      <trkpt lat="45.18939" lon="4.57522">
        <ele>1035.5999755859</ele>
        <time>2022-05-01T08:50:32Z</time>
      </trkpt>
      <trkpt lat="45.18931" lon="4.57542">
        <ele>1035.8000488281</ele>
        <time>2022-05-01T08:50:36Z</time>
      </trkpt>
      <trkpt lat="45.18919" lon="4.57579">
        <ele>1036.4000244141</ele>
        <time>2022-05-01T08:50:43Z</time>
      </trkpt>
      <trkpt lat="45.18919" lon="4.57632">
        <ele>1037</ele>
        <time>2022-05-01T08:50:52Z</time>
      </trkpt>
      <trkpt lat="45.18933" lon="4.57712">
        <ele>1038.4000244141</ele>
        <time>2022-05-01T08:51:08Z</time>
      </trkpt>
      <trkpt lat="45.18942" lon="4.57765">
        <ele>1041.4000244141</ele>
        <time>2022-05-01T08:51:21Z</time>
      </trkpt>
      <trkpt lat="45.18947" lon="4.57809">
        <ele>1041.4000244141</ele>
        <time>2022-05-01T08:51:31Z</time>
      </trkpt>
      <trkpt lat="45.18953" lon="4.57839">
        <ele>1041.1999511719</ele>
        <time>2022-05-01T08:51:36Z</time>
      </trkpt>
      <trkpt lat="45.18967" lon="4.57892">
        <ele>1041</ele>
        <time>2022-05-01T08:51:44Z</time>
      </trkpt>
      <trkpt lat="45.18976" lon="4.5792">
        <ele>1040.8000488281</ele>
        <time>2022-05-01T08:51:48Z</time>
      </trkpt>
      <trkpt lat="45.18979" lon="4.57928">
        <ele>1040.8000488281</ele>
        <time>2022-05-01T08:51:49Z</time>
      </trkpt>
      <trkpt lat="45.18989" lon="4.57952">
        <ele>1040.8000488281</ele>
        <time>2022-05-01T08:51:53Z</time>
      </trkpt>
      <trkpt lat="45.19007" lon="4.57982">
        <ele>1040.5999755859</ele>
        <time>2022-05-01T08:51:59Z</time>
      </trkpt>
      <trkpt lat="45.19014" lon="4.58">
        <ele>1040.5999755859</ele>
        <time>2022-05-01T08:52:02Z</time>
      </trkpt>
      <trkpt lat="45.19024" lon="4.58023">
        <ele>1041.8000488281</ele>
        <time>2022-05-01T08:52:07Z</time>
      </trkpt>
      <trkpt lat="45.19031" lon="4.58036">
        <ele>1042.1999511719</ele>
        <time>2022-05-01T08:52:10Z</time>
      </trkpt>
      <trkpt lat="45.19047" lon="4.58064">
        <ele>1043.1999511719</ele>
        <time>2022-05-01T08:52:17Z</time>
      </trkpt>
      <trkpt lat="45.19061" lon="4.58123">
        <ele>1043.8000488281</ele>
        <time>2022-05-01T08:52:29Z</time>
      </trkpt>
      <trkpt lat="45.19059" lon="4.58133">
        <ele>1043.5999755859</ele>
        <time>2022-05-01T08:52:31Z</time>
      </trkpt>
      <trkpt lat="45.19054" lon="4.58155">
        <ele>1043.5999755859</ele>
        <time>2022-05-01T08:52:35Z</time>
      </trkpt>
      <trkpt lat="45.19041" lon="4.58186">
        <ele>1043.4000244141</ele>
        <time>2022-05-01T08:52:41Z</time>
      </trkpt>
      <trkpt lat="45.19033" lon="4.58202">
        <ele>1043.1999511719</ele>
        <time>2022-05-01T08:52:44Z</time>
      </trkpt>
      <trkpt lat="45.19026" lon="4.58212">
        <ele>1042.8000488281</ele>
        <time>2022-05-01T08:52:46Z</time>
      </trkpt>
      <trkpt lat="45.19008" lon="4.58269">
        <ele>1042.8000488281</ele>
        <time>2022-05-01T08:52:55Z</time>
      </trkpt>
      <trkpt lat="45.19008" lon="4.58277">
        <ele>1042.8000488281</ele>
        <time>2022-05-01T08:52:56Z</time>
      </trkpt>
      <trkpt lat="45.18995" lon="4.58338">
        <ele>1042.4000244141</ele>
        <time>2022-05-01T08:53:04Z</time>
      </trkpt>
      <trkpt lat="45.18993" lon="4.58371">
        <ele>1042</ele>
        <time>2022-05-01T08:53:08Z</time>
      </trkpt>
      <trkpt lat="45.18984" lon="4.58382">
        <ele>1041.8000488281</ele>
        <time>2022-05-01T08:53:10Z</time>
      </trkpt>
      <trkpt lat="45.18976" lon="4.58416">
        <ele>1041.8000488281</ele>
        <time>2022-05-01T08:53:16Z</time>
      </trkpt>
      <trkpt lat="45.18975" lon="4.58424">
        <ele>1041.8000488281</ele>
        <time>2022-05-01T08:53:17Z</time>
      </trkpt>
      <trkpt lat="45.18975" lon="4.58431">
        <ele>1041.8000488281</ele>
        <time>2022-05-01T08:53:18Z</time>
      </trkpt>
      <trkpt lat="45.18971" lon="4.58463">
        <ele>1041.1999511719</ele>
        <time>2022-05-01T08:53:23Z</time>
      </trkpt>
      <trkpt lat="45.18966" lon="4.58548">
        <ele>1040.8000488281</ele>
        <time>2022-05-01T08:53:33Z</time>
      </trkpt>
      <trkpt lat="45.18966" lon="4.58556">
        <ele>1041</ele>
        <time>2022-05-01T08:53:34Z</time>
      </trkpt>
      <trkpt lat="45.18967" lon="4.58565">
        <ele>1040.8000488281</ele>
        <time>2022-05-01T08:53:35Z</time>
      </trkpt>
      <trkpt lat="45.18978" lon="4.58614">
        <ele>1041.1999511719</ele>
        <time>2022-05-01T08:53:42Z</time>
      </trkpt>
      <trkpt lat="45.18978" lon="4.58621">
        <ele>1041.1999511719</ele>
        <time>2022-05-01T08:53:43Z</time>
      </trkpt>
      <trkpt lat="45.18983" lon="4.5865">
        <ele>1041.4000244141</ele>
        <time>2022-05-01T08:53:47Z</time>
      </trkpt>
      <trkpt lat="45.18997" lon="4.58736">
        <ele>1038</ele>
        <time>2022-05-01T08:53:57Z</time>
      </trkpt>
      <trkpt lat="45.19008" lon="4.58782">
        <ele>1036</ele>
        <time>2022-05-01T08:54:02Z</time>
      </trkpt>
      <trkpt lat="45.19021" lon="4.58821">
        <ele>1035.1999511719</ele>
        <time>2022-05-01T08:54:07Z</time>
      </trkpt>
      <trkpt lat="45.1903" lon="4.5885">
        <ele>1035.1999511719</ele>
        <time>2022-05-01T08:54:11Z</time>
      </trkpt>
      <trkpt lat="45.19033" lon="4.58858">
        <ele>1035.4000244141</ele>
        <time>2022-05-01T08:54:12Z</time>
      </trkpt>
      <trkpt lat="45.19052" lon="4.58897">
        <ele>1035.4000244141</ele>
        <time>2022-05-01T08:54:17Z</time>
      </trkpt>
      <trkpt lat="45.19088" lon="4.58944">
        <ele>1034</ele>
        <time>2022-05-01T08:54:24Z</time>
      </trkpt>
      <trkpt lat="45.19094" lon="4.58964">
        <ele>1033.1999511719</ele>
        <time>2022-05-01T08:54:27Z</time>
      </trkpt>
      <trkpt lat="45.19107" lon="4.59014">
        <ele>1034.1999511719</ele>
        <time>2022-05-01T08:54:36Z</time>
      </trkpt>
      <trkpt lat="45.19083" lon="4.59122">
        <ele>1033.8000488281</ele>
        <time>2022-05-01T08:54:53Z</time>
      </trkpt>
      <trkpt lat="45.19077" lon="4.59136">
        <ele>1033</ele>
        <time>2022-05-01T08:54:55Z</time>
      </trkpt>
      <trkpt lat="45.19063" lon="4.59165">
        <ele>1031.8000488281</ele>
        <time>2022-05-01T08:54:59Z</time>
      </trkpt>
      <trkpt lat="45.19044" lon="4.59197">
        <ele>1031</ele>
        <time>2022-05-01T08:55:03Z</time>
      </trkpt>
      <trkpt lat="45.19035" lon="4.59213">
        <ele>1029.5999755859</ele>
        <time>2022-05-01T08:55:05Z</time>
      </trkpt>
      <trkpt lat="45.19016" lon="4.5925">
        <ele>1027.5999755859</ele>
        <time>2022-05-01T08:55:10Z</time>
      </trkpt>
      <trkpt lat="45.19004" lon="4.59273">
        <ele>1027.4000244141</ele>
        <time>2022-05-01T08:55:14Z</time>
      </trkpt>
      <trkpt lat="45.18996" lon="4.59294">
        <ele>1028.5999755859</ele>
        <time>2022-05-01T08:55:20Z</time>
      </trkpt>
      <trkpt lat="45.18995" lon="4.59306">
        <ele>1029</ele>
        <time>2022-05-01T08:55:23Z</time>
      </trkpt>
      <trkpt lat="45.18988" lon="4.59321">
        <ele>1029.5999755859</ele>
        <time>2022-05-01T08:55:26Z</time>
      </trkpt>
      <trkpt lat="45.1898" lon="4.59359">
        <ele>1030.8000488281</ele>
        <time>2022-05-01T08:55:35Z</time>
      </trkpt>
      <trkpt lat="45.18977" lon="4.59398">
        <ele>1031.1999511719</ele>
        <time>2022-05-01T08:55:41Z</time>
      </trkpt>
      <trkpt lat="45.18982" lon="4.59417">
        <ele>1031.5999755859</ele>
        <time>2022-05-01T08:55:45Z</time>
      </trkpt>
      <trkpt lat="45.18981" lon="4.59439">
        <ele>1032</ele>
        <time>2022-05-01T08:55:50Z</time>
      </trkpt>
      <trkpt lat="45.18979" lon="4.59451">
        <ele>1032.4000244141</ele>
        <time>2022-05-01T08:55:53Z</time>
      </trkpt>
      <trkpt lat="45.18979" lon="4.59479">
        <ele>1033.4000244141</ele>
        <time>2022-05-01T08:55:59Z</time>
      </trkpt>
      <trkpt lat="45.18982" lon="4.59515">
        <ele>1034.1999511719</ele>
        <time>2022-05-01T08:56:04Z</time>
      </trkpt>
      <trkpt lat="45.18982" lon="4.59529">
        <ele>1034.1999511719</ele>
        <time>2022-05-01T08:56:06Z</time>
      </trkpt>
      <trkpt lat="45.18981" lon="4.59572">
        <ele>1034.5999755859</ele>
        <time>2022-05-01T08:56:13Z</time>
      </trkpt>
      <trkpt lat="45.18979" lon="4.5958">
        <ele>1034.5999755859</ele>
        <time>2022-05-01T08:56:15Z</time>
      </trkpt>
      <trkpt lat="45.18987" lon="4.59607">
        <ele>1032.4000244141</ele>
        <time>2022-05-01T08:56:23Z</time>
      </trkpt>
      <trkpt lat="45.18992" lon="4.59628">
        <ele>1029.1999511719</ele>
        <time>2022-05-01T08:56:29Z</time>
      </trkpt>
      <trkpt lat="45.18993" lon="4.5963">
        <ele>1029</ele>
        <time>2022-05-01T08:56:30Z</time>
      </trkpt>
      <trkpt lat="45.19003" lon="4.59655">
        <ele>1026</ele>
        <time>2022-05-01T08:56:37Z</time>
      </trkpt>
      <trkpt lat="45.19014" lon="4.59676">
        <ele>1022.5999755859</ele>
        <time>2022-05-01T08:56:43Z</time>
      </trkpt>
      <trkpt lat="45.19016" lon="4.59679">
        <ele>1022.4000244141</ele>
        <time>2022-05-01T08:56:44Z</time>
      </trkpt>
      <trkpt lat="45.19021" lon="4.59688">
        <ele>1020.5999755859</ele>
        <time>2022-05-01T08:56:47Z</time>
      </trkpt>
      <trkpt lat="45.19033" lon="4.59714">
        <ele>1018</ele>
        <time>2022-05-01T08:56:53Z</time>
      </trkpt>
      <trkpt lat="45.1905" lon="4.59738">
        <ele>1014</ele>
        <time>2022-05-01T08:56:59Z</time>
      </trkpt>
      <trkpt lat="45.19061" lon="4.59755">
        <ele>1012.4000244141</ele>
        <time>2022-05-01T08:57:03Z</time>
      </trkpt>
      <trkpt lat="45.19064" lon="4.59762">
        <ele>1011</ele>
        <time>2022-05-01T08:57:04Z</time>
      </trkpt>
      <trkpt lat="45.19074" lon="4.59774">
        <ele>1009.799987793</ele>
        <time>2022-05-01T08:57:06Z</time>
      </trkpt>
      <trkpt lat="45.19088" lon="4.59789">
        <ele>1007.5999755859</ele>
        <time>2022-05-01T08:57:09Z</time>
      </trkpt>
      <trkpt lat="45.19105" lon="4.59818">
        <ele>1005.5999755859</ele>
        <time>2022-05-01T08:57:13Z</time>
      </trkpt>
      <trkpt lat="45.1912" lon="4.59847">
        <ele>1003.200012207</ele>
        <time>2022-05-01T08:57:17Z</time>
      </trkpt>
      <trkpt lat="45.19141" lon="4.59863">
        <ele>1002</ele>
        <time>2022-05-01T08:57:22Z</time>
      </trkpt>
      <trkpt lat="45.19195" lon="4.59912">
        <ele>999</ele>
        <time>2022-05-01T08:57:33Z</time>
      </trkpt>
      <trkpt lat="45.192" lon="4.59916">
        <ele>998.79998779297</ele>
        <time>2022-05-01T08:57:34Z</time>
      </trkpt>
      <trkpt lat="45.19243" lon="4.59956">
        <ele>995.79998779297</ele>
        <time>2022-05-01T08:57:42Z</time>
      </trkpt>
      <trkpt lat="45.19273" lon="4.59974">
        <ele>993.59997558594</ele>
        <time>2022-05-01T08:57:46Z</time>
      </trkpt>
      <trkpt lat="45.19326" lon="4.59998">
        <ele>989.59997558594</ele>
        <time>2022-05-01T08:57:52Z</time>
      </trkpt>
      <trkpt lat="45.19364" lon="4.60005">
        <ele>987.20001220703</ele>
        <time>2022-05-01T08:57:56Z</time>
      </trkpt>
      <trkpt lat="45.19372" lon="4.60007">
        <ele>986.59997558594</ele>
        <time>2022-05-01T08:57:57Z</time>
      </trkpt>
      <trkpt lat="45.19405" lon="4.60017">
        <ele>984.20001220703</ele>
        <time>2022-05-01T08:58:01Z</time>
      </trkpt>
      <trkpt lat="45.19412" lon="4.6002">
        <ele>984</ele>
        <time>2022-05-01T08:58:02Z</time>
      </trkpt>
      <trkpt lat="45.19423" lon="4.60026">
        <ele>983.79998779297</ele>
        <time>2022-05-01T08:58:04Z</time>
      </trkpt>
      <trkpt lat="45.19459" lon="4.60038">
        <ele>979.59997558594</ele>
        <time>2022-05-01T08:58:09Z</time>
      </trkpt>
      <trkpt lat="45.19473" lon="4.60044">
        <ele>978.59997558594</ele>
        <time>2022-05-01T08:58:11Z</time>
      </trkpt>
      <trkpt lat="45.19531" lon="4.60039">
        <ele>975</ele>
        <time>2022-05-01T08:58:18Z</time>
      </trkpt>
      <trkpt lat="45.19577" lon="4.59994">
        <ele>971.40002441406</ele>
        <time>2022-05-01T08:58:25Z</time>
      </trkpt>
      <trkpt lat="45.19612" lon="4.59962">
        <ele>968.40002441406</ele>
        <time>2022-05-01T08:58:30Z</time>
      </trkpt>
      <trkpt lat="45.1962" lon="4.59958">
        <ele>968.20001220703</ele>
        <time>2022-05-01T08:58:31Z</time>
      </trkpt>
      <trkpt lat="45.19641" lon="4.59954">
        <ele>966.40002441406</ele>
        <time>2022-05-01T08:58:34Z</time>
      </trkpt>
      <trkpt lat="45.19672" lon="4.59951">
        <ele>962.79998779297</ele>
        <time>2022-05-01T08:58:39Z</time>
      </trkpt>
      <trkpt lat="45.19677" lon="4.59951">
        <ele>961.59997558594</ele>
        <time>2022-05-01T08:58:40Z</time>
      </trkpt>
      <trkpt lat="45.19692" lon="4.59954">
        <ele>960</ele>
        <time>2022-05-01T08:58:43Z</time>
      </trkpt>
      <trkpt lat="45.19719" lon="4.59959">
        <ele>956.79998779297</ele>
        <time>2022-05-01T08:58:48Z</time>
      </trkpt>
      <trkpt lat="45.19741" lon="4.59965">
        <ele>954.79998779297</ele>
        <time>2022-05-01T08:58:52Z</time>
      </trkpt>
      <trkpt lat="45.19761" lon="4.59963">
        <ele>952.59997558594</ele>
        <time>2022-05-01T08:58:55Z</time>
      </trkpt>
      <trkpt lat="45.19783" lon="4.59954">
        <ele>950.59997558594</ele>
        <time>2022-05-01T08:58:59Z</time>
      </trkpt>
      <trkpt lat="45.19788" lon="4.59952">
        <ele>950.20001220703</ele>
        <time>2022-05-01T08:59:00Z</time>
      </trkpt>
      <trkpt lat="45.19799" lon="4.5995">
        <ele>949.40002441406</ele>
        <time>2022-05-01T08:59:02Z</time>
      </trkpt>
      <trkpt lat="45.19817" lon="4.59946">
        <ele>947.79998779297</ele>
        <time>2022-05-01T08:59:05Z</time>
      </trkpt>
      <trkpt lat="45.19834" lon="4.59945">
        <ele>946.20001220703</ele>
        <time>2022-05-01T08:59:08Z</time>
      </trkpt>
      <trkpt lat="45.19853" lon="4.59958">
        <ele>942.79998779297</ele>
        <time>2022-05-01T08:59:12Z</time>
      </trkpt>
      <trkpt lat="45.19867" lon="4.59979">
        <ele>941.59997558594</ele>
        <time>2022-05-01T08:59:15Z</time>
      </trkpt>
      <trkpt lat="45.19875" lon="4.59995">
        <ele>940.59997558594</ele>
        <time>2022-05-01T08:59:17Z</time>
      </trkpt>
      <trkpt lat="45.19893" lon="4.60023">
        <ele>937.40002441406</ele>
        <time>2022-05-01T08:59:21Z</time>
      </trkpt>
      <trkpt lat="45.19902" lon="4.60038">
        <ele>936.20001220703</ele>
        <time>2022-05-01T08:59:23Z</time>
      </trkpt>
      <trkpt lat="45.19923" lon="4.60076">
        <ele>933.79998779297</ele>
        <time>2022-05-01T08:59:27Z</time>
      </trkpt>
      <trkpt lat="45.19943" lon="4.60112">
        <ele>930.40002441406</ele>
        <time>2022-05-01T08:59:31Z</time>
      </trkpt>
      <trkpt lat="45.19964" lon="4.60161">
        <ele>926.79998779297</ele>
        <time>2022-05-01T08:59:37Z</time>
      </trkpt>
      <trkpt lat="45.19972" lon="4.60183">
        <ele>925.59997558594</ele>
        <time>2022-05-01T08:59:40Z</time>
      </trkpt>
      <trkpt lat="45.19995" lon="4.60223">
        <ele>922.59997558594</ele>
        <time>2022-05-01T08:59:46Z</time>
      </trkpt>
      <trkpt lat="45.20005" lon="4.60234">
        <ele>920.79998779297</ele>
        <time>2022-05-01T08:59:48Z</time>
      </trkpt>
      <trkpt lat="45.20019" lon="4.60237">
        <ele>920</ele>
        <time>2022-05-01T08:59:50Z</time>
      </trkpt>
      <trkpt lat="45.20026" lon="4.60238">
        <ele>919.20001220703</ele>
        <time>2022-05-01T08:59:51Z</time>
      </trkpt>
      <trkpt lat="45.20057" lon="4.60253">
        <ele>916.20001220703</ele>
        <time>2022-05-01T08:59:55Z</time>
      </trkpt>
      <trkpt lat="45.20074" lon="4.60274">
        <ele>913.20001220703</ele>
        <time>2022-05-01T08:59:59Z</time>
      </trkpt>
      <trkpt lat="45.20097" lon="4.60316">
        <ele>909.59997558594</ele>
        <time>2022-05-01T09:00:05Z</time>
      </trkpt>
      <trkpt lat="45.20107" lon="4.60329">
        <ele>907.79998779297</ele>
        <time>2022-05-01T09:00:07Z</time>
      </trkpt>
      <trkpt lat="45.20115" lon="4.60337">
        <ele>906.79998779297</ele>
        <time>2022-05-01T09:00:09Z</time>
      </trkpt>
      <trkpt lat="45.20127" lon="4.60343">
        <ele>906.20001220703</ele>
        <time>2022-05-01T09:00:14Z</time>
      </trkpt>
      <trkpt lat="45.20144" lon="4.60337">
        <ele>907.59997558594</ele>
        <time>2022-05-01T09:00:23Z</time>
      </trkpt>
      <trkpt lat="45.20148" lon="4.60337">
        <ele>908.59997558594</ele>
        <time>2022-05-01T09:00:26Z</time>
      </trkpt>
      <trkpt lat="45.20155" lon="4.60343">
        <ele>910.79998779297</ele>
        <time>2022-05-01T09:00:35Z</time>
      </trkpt>
      <trkpt lat="45.20159" lon="4.60343">
        <ele>912.40002441406</ele>
        <time>2022-05-01T09:00:47Z</time>
      </trkpt>
      <trkpt lat="45.20168" lon="4.60331">
        <ele>914</ele>
        <time>2022-05-01T09:00:57Z</time>
      </trkpt>
      <trkpt lat="45.20187" lon="4.60324">
        <ele>913.79998779297</ele>
        <time>2022-05-01T09:01:06Z</time>
      </trkpt>
      <trkpt lat="45.20223" lon="4.6031">
        <ele>914.79998779297</ele>
        <time>2022-05-01T09:01:20Z</time>
      </trkpt>
      <trkpt lat="45.20229" lon="4.6031">
        <ele>914.79998779297</ele>
        <time>2022-05-01T09:01:22Z</time>
      </trkpt>
      <trkpt lat="45.20253" lon="4.60299">
        <ele>915</ele>
        <time>2022-05-01T09:01:33Z</time>
      </trkpt>
      <trkpt lat="45.20265" lon="4.603">
        <ele>915.20001220703</ele>
        <time>2022-05-01T09:01:39Z</time>
      </trkpt>
      <trkpt lat="45.20291" lon="4.60295">
        <ele>915.40002441406</ele>
        <time>2022-05-01T09:01:47Z</time>
      </trkpt>
      <trkpt lat="45.20338" lon="4.60288">
        <ele>915.40002441406</ele>
        <time>2022-05-01T09:01:57Z</time>
      </trkpt>
      <trkpt lat="45.20367" lon="4.60288">
        <ele>915.40002441406</ele>
        <time>2022-05-01T09:02:04Z</time>
      </trkpt>
      <trkpt lat="45.20394" lon="4.60279">
        <ele>915.59997558594</ele>
        <time>2022-05-01T09:02:10Z</time>
      </trkpt>
      <trkpt lat="45.20398" lon="4.60277">
        <ele>915.59997558594</ele>
        <time>2022-05-01T09:02:11Z</time>
      </trkpt>
      <trkpt lat="45.20424" lon="4.60259">
        <ele>915.79998779297</ele>
        <time>2022-05-01T09:02:18Z</time>
      </trkpt>
      <trkpt lat="45.20469" lon="4.60239">
        <ele>915.40002441406</ele>
        <time>2022-05-01T09:02:29Z</time>
      </trkpt>
      <trkpt lat="45.20478" lon="4.60234">
        <ele>915.40002441406</ele>
        <time>2022-05-01T09:02:32Z</time>
      </trkpt>
      <trkpt lat="45.20511" lon="4.60215">
        <ele>916.20001220703</ele>
        <time>2022-05-01T09:02:40Z</time>
      </trkpt>
      <trkpt lat="45.20533" lon="4.60208">
        <ele>915.79998779297</ele>
        <time>2022-05-01T09:02:46Z</time>
      </trkpt>
      <trkpt lat="45.20544" lon="4.60204">
        <ele>915.40002441406</ele>
        <time>2022-05-01T09:02:52Z</time>
      </trkpt>
      <trkpt lat="45.20552" lon="4.60202">
        <ele>915.59997558594</ele>
        <time>2022-05-01T09:02:56Z</time>
      </trkpt>
      <trkpt lat="45.2058" lon="4.60215">
        <ele>914.59997558594</ele>
        <time>2022-05-01T09:03:09Z</time>
      </trkpt>
      <trkpt lat="45.20598" lon="4.60238">
        <ele>913</ele>
        <time>2022-05-01T09:03:18Z</time>
      </trkpt>
      <trkpt lat="45.20616" lon="4.60266">
        <ele>912</ele>
        <time>2022-05-01T09:03:25Z</time>
      </trkpt>
      <trkpt lat="45.20622" lon="4.60272">
        <ele>911.40002441406</ele>
        <time>2022-05-01T09:03:28Z</time>
      </trkpt>
      <trkpt lat="45.20632" lon="4.60282">
        <ele>910.79998779297</ele>
        <time>2022-05-01T09:03:33Z</time>
      </trkpt>
      <trkpt lat="45.20642" lon="4.60302">
        <ele>910.59997558594</ele>
        <time>2022-05-01T09:03:40Z</time>
      </trkpt>
      <trkpt lat="45.20642" lon="4.60305">
        <ele>912</ele>
        <time>2022-05-01T09:03:48Z</time>
      </trkpt>
      <trkpt lat="45.20652" lon="4.60317">
        <ele>912.40002441406</ele>
        <time>2022-05-01T09:03:57Z</time>
      </trkpt>
      <trkpt lat="45.20653" lon="4.6032">
        <ele>912.20001220703</ele>
        <time>2022-05-01T09:03:58Z</time>
      </trkpt>
      <trkpt lat="45.20659" lon="4.60325">
        <ele>912</ele>
        <time>2022-05-01T09:04:01Z</time>
      </trkpt>
      <trkpt lat="45.20667" lon="4.60329">
        <ele>910.59997558594</ele>
        <time>2022-05-01T09:04:05Z</time>
      </trkpt>
      <trkpt lat="45.20682" lon="4.60343">
        <ele>907.59997558594</ele>
        <time>2022-05-01T09:04:13Z</time>
      </trkpt>
      <trkpt lat="45.20691" lon="4.60353">
        <ele>906.20001220703</ele>
        <time>2022-05-01T09:04:18Z</time>
      </trkpt>
      <trkpt lat="45.20693" lon="4.60355">
        <ele>906</ele>
        <time>2022-05-01T09:04:19Z</time>
      </trkpt>
      <trkpt lat="45.20711" lon="4.60379">
        <ele>906.59997558594</ele>
        <time>2022-05-01T09:04:30Z</time>
      </trkpt>
      <trkpt lat="45.20723" lon="4.60396">
        <ele>907</ele>
        <time>2022-05-01T09:04:37Z</time>
      </trkpt>
      <trkpt lat="45.20725" lon="4.60408">
        <ele>907</ele>
        <time>2022-05-01T09:04:41Z</time>
      </trkpt>
      <trkpt lat="45.20727" lon="4.60412">
        <ele>907.20001220703</ele>
        <time>2022-05-01T09:04:43Z</time>
      </trkpt>
      <trkpt lat="45.20745" lon="4.60433">
        <ele>909.59997558594</ele>
        <time>2022-05-01T09:04:54Z</time>
      </trkpt>
      <trkpt lat="45.20749" lon="4.6044">
        <ele>909.79998779297</ele>
        <time>2022-05-01T09:04:58Z</time>
      </trkpt>
      <trkpt lat="45.2075" lon="4.60441">
        <ele>909.79998779297</ele>
        <time>2022-05-01T09:04:59Z</time>
      </trkpt>
      <trkpt lat="45.20761" lon="4.6046">
        <ele>910.20001220703</ele>
        <time>2022-05-01T09:05:08Z</time>
      </trkpt>
      <trkpt lat="45.20775" lon="4.6046">
        <ele>910.20001220703</ele>
        <time>2022-05-01T09:05:13Z</time>
      </trkpt>
      <trkpt lat="45.20791" lon="4.60454">
        <ele>908.79998779297</ele>
        <time>2022-05-01T09:05:18Z</time>
      </trkpt>
      <trkpt lat="45.20802" lon="4.60465">
        <ele>906.20001220703</ele>
        <time>2022-05-01T09:05:22Z</time>
      </trkpt>
      <trkpt lat="45.20817" lon="4.60476">
        <ele>903</ele>
        <time>2022-05-01T09:05:27Z</time>
      </trkpt>
      <trkpt lat="45.20848" lon="4.60478">
        <ele>900</ele>
        <time>2022-05-01T09:05:33Z</time>
      </trkpt>
      <trkpt lat="45.20874" lon="4.60483">
        <ele>898.59997558594</ele>
        <time>2022-05-01T09:05:42Z</time>
      </trkpt>
      <trkpt lat="45.2089" lon="4.60474">
        <ele>898.79998779297</ele>
        <time>2022-05-01T09:05:48Z</time>
      </trkpt>
      <trkpt lat="45.20902" lon="4.60476">
        <ele>900.20001220703</ele>
        <time>2022-05-01T09:05:53Z</time>
      </trkpt>
      <trkpt lat="45.20909" lon="4.60467">
        <ele>901.20001220703</ele>
        <time>2022-05-01T09:05:56Z</time>
      </trkpt>
      <trkpt lat="45.20923" lon="4.60465">
        <ele>901.40002441406</ele>
        <time>2022-05-01T09:06:01Z</time>
      </trkpt>
      <trkpt lat="45.20952" lon="4.60483">
        <ele>899.40002441406</ele>
        <time>2022-05-01T09:06:09Z</time>
      </trkpt>
      <trkpt lat="45.20977" lon="4.60506">
        <ele>898.20001220703</ele>
        <time>2022-05-01T09:06:19Z</time>
      </trkpt>
      <trkpt lat="45.20997" lon="4.60522">
        <ele>897.79998779297</ele>
        <time>2022-05-01T09:06:27Z</time>
      </trkpt>
      <trkpt lat="45.20999" lon="4.60539">
        <ele>896.59997558594</ele>
        <time>2022-05-01T09:06:34Z</time>
      </trkpt>
      <trkpt lat="45.21003" lon="4.60545">
        <ele>895.40002441406</ele>
        <time>2022-05-01T09:06:36Z</time>
      </trkpt>
      <trkpt lat="45.21018" lon="4.6056">
        <ele>892</ele>
        <time>2022-05-01T09:06:42Z</time>
      </trkpt>
      <trkpt lat="45.21022" lon="4.60565">
        <ele>891</ele>
        <time>2022-05-01T09:06:44Z</time>
      </trkpt>
      <trkpt lat="45.21039" lon="4.60582">
        <ele>887.40002441406</ele>
        <time>2022-05-01T09:06:50Z</time>
      </trkpt>
      <trkpt lat="45.21049" lon="4.60596">
        <ele>884</ele>
        <time>2022-05-01T09:06:54Z</time>
      </trkpt>
      <trkpt lat="45.21054" lon="4.60604">
        <ele>883</ele>
        <time>2022-05-01T09:06:56Z</time>
      </trkpt>
      <trkpt lat="45.21073" lon="4.6062">
        <ele>879.79998779297</ele>
        <time>2022-05-01T09:07:03Z</time>
      </trkpt>
      <trkpt lat="45.21076" lon="4.60623">
        <ele>879.59997558594</ele>
        <time>2022-05-01T09:07:04Z</time>
      </trkpt>
      <trkpt lat="45.21099" lon="4.60648">
        <ele>878</ele>
        <time>2022-05-01T09:07:13Z</time>
      </trkpt>
      <trkpt lat="45.21115" lon="4.60666">
        <ele>876.59997558594</ele>
        <time>2022-05-01T09:07:19Z</time>
      </trkpt>
      <trkpt lat="45.21131" lon="4.6069">
        <ele>874</ele>
        <time>2022-05-01T09:07:26Z</time>
      </trkpt>
      <trkpt lat="45.21133" lon="4.60693">
        <ele>873.59997558594</ele>
        <time>2022-05-01T09:07:27Z</time>
      </trkpt>
      <trkpt lat="45.2114" lon="4.60712">
        <ele>872.59997558594</ele>
        <time>2022-05-01T09:07:34Z</time>
      </trkpt>
      <trkpt lat="45.21156" lon="4.60748">
        <ele>871.59997558594</ele>
        <time>2022-05-01T09:07:41Z</time>
      </trkpt>
      <trkpt lat="45.21162" lon="4.60772">
        <ele>871.20001220703</ele>
        <time>2022-05-01T09:07:46Z</time>
      </trkpt>
      <trkpt lat="45.21169" lon="4.60783">
        <ele>871.20001220703</ele>
        <time>2022-05-01T09:07:52Z</time>
      </trkpt>
      <trkpt lat="45.21183" lon="4.60819">
        <ele>871.79998779297</ele>
        <time>2022-05-01T09:08:02Z</time>
      </trkpt>
      <trkpt lat="45.21196" lon="4.60851">
        <ele>871.40002441406</ele>
        <time>2022-05-01T09:08:11Z</time>
      </trkpt>
      <trkpt lat="45.21199" lon="4.60869">
        <ele>871.20001220703</ele>
        <time>2022-05-01T09:08:14Z</time>
      </trkpt>
      <trkpt lat="45.21199" lon="4.60882">
        <ele>871</ele>
        <time>2022-05-01T09:08:16Z</time>
      </trkpt>
      <trkpt lat="45.21219" lon="4.60904">
        <ele>869.59997558594</ele>
        <time>2022-05-01T09:08:23Z</time>
      </trkpt>
      <trkpt lat="45.21234" lon="4.6092">
        <ele>867.79998779297</ele>
        <time>2022-05-01T09:08:31Z</time>
      </trkpt>
      <trkpt lat="45.21235" lon="4.60924">
        <ele>867.59997558594</ele>
        <time>2022-05-01T09:08:33Z</time>
      </trkpt>
      <trkpt lat="45.21242" lon="4.60944">
        <ele>864</ele>
        <time>2022-05-01T09:08:41Z</time>
      </trkpt>
      <trkpt lat="45.21248" lon="4.60957">
        <ele>861</ele>
        <time>2022-05-01T09:08:47Z</time>
      </trkpt>
      <trkpt lat="45.2125" lon="4.60966">
        <ele>857.79998779297</ele>
        <time>2022-05-01T09:08:51Z</time>
      </trkpt>
      <trkpt lat="45.21254" lon="4.60975">
        <ele>854.40002441406</ele>
        <time>2022-05-01T09:08:55Z</time>
      </trkpt>
      <trkpt lat="45.21255" lon="4.60979">
        <ele>854.20001220703</ele>
        <time>2022-05-01T09:08:56Z</time>
      </trkpt>
      <trkpt lat="45.21255" lon="4.60984">
        <ele>852.59997558594</ele>
        <time>2022-05-01T09:08:58Z</time>
      </trkpt>
      <trkpt lat="45.2126" lon="4.61011">
        <ele>848.59997558594</ele>
        <time>2022-05-01T09:09:05Z</time>
      </trkpt>
      <trkpt lat="45.2126" lon="4.61017">
        <ele>848.40002441406</ele>
        <time>2022-05-01T09:09:06Z</time>
      </trkpt>
      <trkpt lat="45.2126" lon="4.61032">
        <ele>846.40002441406</ele>
        <time>2022-05-01T09:09:10Z</time>
      </trkpt>
      <trkpt lat="45.21262" lon="4.61052">
        <ele>842.59997558594</ele>
        <time>2022-05-01T09:09:17Z</time>
      </trkpt>
      <trkpt lat="45.21266" lon="4.61072">
        <ele>840</ele>
        <time>2022-05-01T09:09:21Z</time>
      </trkpt>
      <trkpt lat="45.21265" lon="4.61089">
        <ele>836.59997558594</ele>
        <time>2022-05-01T09:09:26Z</time>
      </trkpt>
      <trkpt lat="45.21265" lon="4.6111">
        <ele>834.20001220703</ele>
        <time>2022-05-01T09:09:30Z</time>
      </trkpt>
      <trkpt lat="45.21265" lon="4.61129">
        <ele>831.59997558594</ele>
        <time>2022-05-01T09:09:34Z</time>
      </trkpt>
      <trkpt lat="45.21268" lon="4.61134">
        <ele>830.59997558594</ele>
        <time>2022-05-01T09:09:36Z</time>
      </trkpt>
      <trkpt lat="45.21273" lon="4.61143">
        <ele>827.59997558594</ele>
        <time>2022-05-01T09:09:39Z</time>
      </trkpt>
      <trkpt lat="45.21278" lon="4.61153">
        <ele>824.40002441406</ele>
        <time>2022-05-01T09:09:44Z</time>
      </trkpt>
      <trkpt lat="45.21286" lon="4.61163">
        <ele>821</ele>
        <time>2022-05-01T09:09:49Z</time>
      </trkpt>
      <trkpt lat="45.21289" lon="4.61169">
        <ele>818.79998779297</ele>
        <time>2022-05-01T09:09:52Z</time>
      </trkpt>
      <trkpt lat="45.21297" lon="4.61179">
        <ele>816</ele>
        <time>2022-05-01T09:09:57Z</time>
      </trkpt>
      <trkpt lat="45.21304" lon="4.61187">
        <ele>813.40002441406</ele>
        <time>2022-05-01T09:10:00Z</time>
      </trkpt>
      <trkpt lat="45.21316" lon="4.61192">
        <ele>809.59997558594</ele>
        <time>2022-05-01T09:10:05Z</time>
      </trkpt>
      <trkpt lat="45.2132" lon="4.61191">
        <ele>808.79998779297</ele>
        <time>2022-05-01T09:10:06Z</time>
      </trkpt>
      <trkpt lat="45.21334" lon="4.61186">
        <ele>804.59997558594</ele>
        <time>2022-05-01T09:10:09Z</time>
      </trkpt>
      <trkpt lat="45.21338" lon="4.61184">
        <ele>803.59997558594</ele>
        <time>2022-05-01T09:10:10Z</time>
      </trkpt>
      <trkpt lat="45.21361" lon="4.61181">
        <ele>799.20001220703</ele>
        <time>2022-05-01T09:10:14Z</time>
      </trkpt>
      <trkpt lat="45.21377" lon="4.61177">
        <ele>796.40002441406</ele>
        <time>2022-05-01T09:10:17Z</time>
      </trkpt>
      <trkpt lat="45.21379" lon="4.61177">
        <ele>796.20001220703</ele>
        <time>2022-05-01T09:10:18Z</time>
      </trkpt>
      <trkpt lat="45.21389" lon="4.61177">
        <ele>794.40002441406</ele>
        <time>2022-05-01T09:10:21Z</time>
      </trkpt>
      <trkpt lat="45.21399" lon="4.61178">
        <ele>791.20001220703</ele>
        <time>2022-05-01T09:10:24Z</time>
      </trkpt>
      <trkpt lat="45.21412" lon="4.61179">
        <ele>787.79998779297</ele>
        <time>2022-05-01T09:10:30Z</time>
      </trkpt>
      <trkpt lat="45.21421" lon="4.61183">
        <ele>784.79998779297</ele>
        <time>2022-05-01T09:10:34Z</time>
      </trkpt>
      <trkpt lat="45.21426" lon="4.61186">
        <ele>783</ele>
        <time>2022-05-01T09:10:37Z</time>
      </trkpt>
      <trkpt lat="45.21426" lon="4.61188">
        <ele>782.79998779297</ele>
        <time>2022-05-01T09:10:38Z</time>
      </trkpt>
      <trkpt lat="45.21427" lon="4.61191">
        <ele>782.20001220703</ele>
        <time>2022-05-01T09:10:39Z</time>
      </trkpt>
      <trkpt lat="45.21432" lon="4.61213">
        <ele>779</ele>
        <time>2022-05-01T09:10:44Z</time>
      </trkpt>
      <trkpt lat="45.21438" lon="4.61224">
        <ele>776.79998779297</ele>
        <time>2022-05-01T09:10:47Z</time>
      </trkpt>
      <trkpt lat="45.21438" lon="4.61229">
        <ele>776.59997558594</ele>
        <time>2022-05-01T09:10:48Z</time>
      </trkpt>
      <trkpt lat="45.21443" lon="4.61263">
        <ele>775</ele>
        <time>2022-05-01T09:10:52Z</time>
      </trkpt>
      <trkpt lat="45.2145" lon="4.61309">
        <ele>772</ele>
        <time>2022-05-01T09:10:57Z</time>
      </trkpt>
      <trkpt lat="45.21459" lon="4.61318">
        <ele>771.20001220703</ele>
        <time>2022-05-01T09:10:59Z</time>
      </trkpt>
      <trkpt lat="45.21464" lon="4.61321">
        <ele>770.40002441406</ele>
        <time>2022-05-01T09:11:00Z</time>
      </trkpt>
      <trkpt lat="45.2147" lon="4.61324">
        <ele>769.40002441406</ele>
        <time>2022-05-01T09:11:01Z</time>
      </trkpt>
      <trkpt lat="45.21495" lon="4.61357">
        <ele>767.20001220703</ele>
        <time>2022-05-01T09:11:08Z</time>
      </trkpt>
      <trkpt lat="45.21495" lon="4.61362">
        <ele>767</ele>
        <time>2022-05-01T09:11:09Z</time>
      </trkpt>
      <trkpt lat="45.21495" lon="4.61372">
        <ele>766.59997558594</ele>
        <time>2022-05-01T09:11:11Z</time>
      </trkpt>
      <trkpt lat="45.21488" lon="4.6139">
        <ele>764.79998779297</ele>
        <time>2022-05-01T09:11:20Z</time>
      </trkpt>
      <trkpt lat="45.21476" lon="4.61423">
        <ele>761.79998779297</ele>
        <time>2022-05-01T09:11:33Z</time>
      </trkpt>
      <trkpt lat="45.21475" lon="4.61439">
        <ele>758.79998779297</ele>
        <time>2022-05-01T09:11:37Z</time>
      </trkpt>
      <trkpt lat="45.21476" lon="4.61444">
        <ele>758.40002441406</ele>
        <time>2022-05-01T09:11:38Z</time>
      </trkpt>
      <trkpt lat="45.21478" lon="4.61455">
        <ele>757.20001220703</ele>
        <time>2022-05-01T09:11:40Z</time>
      </trkpt>
      <trkpt lat="45.21502" lon="4.61526">
        <ele>756</ele>
        <time>2022-05-01T09:11:52Z</time>
      </trkpt>
      <trkpt lat="45.21504" lon="4.61534">
        <ele>756.40002441406</ele>
        <time>2022-05-01T09:11:54Z</time>
      </trkpt>
      <trkpt lat="45.2151" lon="4.61542">
        <ele>756.40002441406</ele>
        <time>2022-05-01T09:11:56Z</time>
      </trkpt>
      <trkpt lat="45.21532" lon="4.616">
        <ele>756.40002441406</ele>
        <time>2022-05-01T09:12:05Z</time>
      </trkpt>
      <trkpt lat="45.21534" lon="4.61607">
        <ele>755.79998779297</ele>
        <time>2022-05-01T09:12:06Z</time>
      </trkpt>
      <trkpt lat="45.2156" lon="4.61645">
        <ele>754.79998779297</ele>
        <time>2022-05-01T09:12:13Z</time>
      </trkpt>
      <trkpt lat="45.21552" lon="4.61661">
        <ele>753.40002441406</ele>
        <time>2022-05-01T09:12:16Z</time>
      </trkpt>
      <trkpt lat="45.2154" lon="4.61676">
        <ele>752.59997558594</ele>
        <time>2022-05-01T09:12:19Z</time>
      </trkpt>
      <trkpt lat="45.21518" lon="4.61699">
        <ele>751.59997558594</ele>
        <time>2022-05-01T09:12:24Z</time>
      </trkpt>
      <trkpt lat="45.21503" lon="4.61718">
        <ele>751.40002441406</ele>
        <time>2022-05-01T09:12:27Z</time>
      </trkpt>
      <trkpt lat="45.21456" lon="4.61802">
        <ele>749.20001220703</ele>
        <time>2022-05-01T09:12:37Z</time>
      </trkpt>
      <trkpt lat="45.2143" lon="4.61844">
        <ele>748</ele>
        <time>2022-05-01T09:12:42Z</time>
      </trkpt>
      <trkpt lat="45.21422" lon="4.61865">
        <ele>746.79998779297</ele>
        <time>2022-05-01T09:12:44Z</time>
      </trkpt>
      <trkpt lat="45.21408" lon="4.6191">
        <ele>745.40002441406</ele>
        <time>2022-05-01T09:12:48Z</time>
      </trkpt>
      <trkpt lat="45.214" lon="4.61941">
        <ele>743.59997558594</ele>
        <time>2022-05-01T09:12:51Z</time>
      </trkpt>
      <trkpt lat="45.21398" lon="4.6196">
        <ele>742.40002441406</ele>
        <time>2022-05-01T09:12:53Z</time>
      </trkpt>
      <trkpt lat="45.21389" lon="4.62032">
        <ele>740.20001220703</ele>
        <time>2022-05-01T09:13:00Z</time>
      </trkpt>
      <trkpt lat="45.21399" lon="4.62088">
        <ele>738</ele>
        <time>2022-05-01T09:13:06Z</time>
      </trkpt>
      <trkpt lat="45.21401" lon="4.62094">
        <ele>737.79998779297</ele>
        <time>2022-05-01T09:13:07Z</time>
      </trkpt>
      <trkpt lat="45.21413" lon="4.62108">
        <ele>736</ele>
        <time>2022-05-01T09:13:14Z</time>
      </trkpt>
      <trkpt lat="45.21388" lon="4.62095">
        <ele>733.20001220703</ele>
        <time>2022-05-01T09:13:22Z</time>
      </trkpt>
      <trkpt lat="45.21373" lon="4.62083">
        <ele>730.20001220703</ele>
        <time>2022-05-01T09:13:27Z</time>
      </trkpt>
      <trkpt lat="45.21354" lon="4.62084">
        <ele>726.79998779297</ele>
        <time>2022-05-01T09:13:33Z</time>
      </trkpt>
      <trkpt lat="45.21337" lon="4.62072">
        <ele>723.59997558594</ele>
        <time>2022-05-01T09:13:38Z</time>
      </trkpt>
      <trkpt lat="45.2133" lon="4.62061">
        <ele>720.79998779297</ele>
        <time>2022-05-01T09:13:42Z</time>
      </trkpt>
      <trkpt lat="45.2133" lon="4.62058">
        <ele>720.59997558594</ele>
        <time>2022-05-01T09:13:43Z</time>
      </trkpt>
      <trkpt lat="45.21324" lon="4.6204">
        <ele>719</ele>
        <time>2022-05-01T09:13:47Z</time>
      </trkpt>
      <trkpt lat="45.21323" lon="4.62036">
        <ele>718.59997558594</ele>
        <time>2022-05-01T09:13:48Z</time>
      </trkpt>
      <trkpt lat="45.21334" lon="4.62013">
        <ele>717.59997558594</ele>
        <time>2022-05-01T09:13:51Z</time>
      </trkpt>
      <trkpt lat="45.21336" lon="4.61977">
        <ele>716.20001220703</ele>
        <time>2022-05-01T09:13:55Z</time>
      </trkpt>
      <trkpt lat="45.21336" lon="4.61969">
        <ele>715.59997558594</ele>
        <time>2022-05-01T09:13:56Z</time>
      </trkpt>
      <trkpt lat="45.21342" lon="4.61917">
        <ele>714.20001220703</ele>
        <time>2022-05-01T09:14:01Z</time>
      </trkpt>
      <trkpt lat="45.21342" lon="4.61905">
        <ele>714</ele>
        <time>2022-05-01T09:14:02Z</time>
      </trkpt>
      <trkpt lat="45.21342" lon="4.61865">
        <ele>712.59997558594</ele>
        <time>2022-05-01T09:14:06Z</time>
      </trkpt>
      <trkpt lat="45.21345" lon="4.61826">
        <ele>711.20001220703</ele>
        <time>2022-05-01T09:14:10Z</time>
      </trkpt>
      <trkpt lat="45.21346" lon="4.61816">
        <ele>710.59997558594</ele>
        <time>2022-05-01T09:14:11Z</time>
      </trkpt>
      <trkpt lat="45.21346" lon="4.61808">
        <ele>710.20001220703</ele>
        <time>2022-05-01T09:14:12Z</time>
      </trkpt>
      <trkpt lat="45.21356" lon="4.61741">
        <ele>707.20001220703</ele>
        <time>2022-05-01T09:14:20Z</time>
      </trkpt>
      <trkpt lat="45.21355" lon="4.61735">
        <ele>706.79998779297</ele>
        <time>2022-05-01T09:14:21Z</time>
      </trkpt>
      <trkpt lat="45.21355" lon="4.61728">
        <ele>705.79998779297</ele>
        <time>2022-05-01T09:14:23Z</time>
      </trkpt>
      <trkpt lat="45.2134" lon="4.61706">
        <ele>702</ele>
        <time>2022-05-01T09:14:29Z</time>
      </trkpt>
      <trkpt lat="45.21335" lon="4.61698">
        <ele>699.20001220703</ele>
        <time>2022-05-01T09:14:32Z</time>
      </trkpt>
      <trkpt lat="45.21327" lon="4.61699">
        <ele>695.20001220703</ele>
        <time>2022-05-01T09:14:36Z</time>
      </trkpt>
      <trkpt lat="45.21311" lon="4.61706">
        <ele>691.59997558594</ele>
        <time>2022-05-01T09:14:41Z</time>
      </trkpt>
      <trkpt lat="45.21307" lon="4.61709">
        <ele>691</ele>
        <time>2022-05-01T09:14:42Z</time>
      </trkpt>
      <trkpt lat="45.2129" lon="4.6172">
        <ele>687</ele>
        <time>2022-05-01T09:14:47Z</time>
      </trkpt>
      <trkpt lat="45.2128" lon="4.61727">
        <ele>682.59997558594</ele>
        <time>2022-05-01T09:14:50Z</time>
      </trkpt>
      <trkpt lat="45.21253" lon="4.61738">
        <ele>679.40002441406</ele>
        <time>2022-05-01T09:14:55Z</time>
      </trkpt>
      <trkpt lat="45.21247" lon="4.6174">
        <ele>679.40002441406</ele>
        <time>2022-05-01T09:14:56Z</time>
      </trkpt>
      <trkpt lat="45.21224" lon="4.61748">
        <ele>677.59997558594</ele>
        <time>2022-05-01T09:15:00Z</time>
      </trkpt>
      <trkpt lat="45.21218" lon="4.61749">
        <ele>676.79998779297</ele>
        <time>2022-05-01T09:15:01Z</time>
      </trkpt>
      <trkpt lat="45.212" lon="4.61756">
        <ele>674.40002441406</ele>
        <time>2022-05-01T09:15:04Z</time>
      </trkpt>
      <trkpt lat="45.21183" lon="4.61768">
        <ele>672.40002441406</ele>
        <time>2022-05-01T09:15:07Z</time>
      </trkpt>
      <trkpt lat="45.2117" lon="4.61781">
        <ele>671.59997558594</ele>
        <time>2022-05-01T09:15:09Z</time>
      </trkpt>
      <trkpt lat="45.21144" lon="4.61787">
        <ele>670.40002441406</ele>
        <time>2022-05-01T09:15:14Z</time>
      </trkpt>
      <trkpt lat="45.21136" lon="4.61788">
        <ele>670.20001220703</ele>
        <time>2022-05-01T09:15:16Z</time>
      </trkpt>
      <trkpt lat="45.21098" lon="4.61802">
        <ele>669.79998779297</ele>
        <time>2022-05-01T09:15:20Z</time>
      </trkpt>
      <trkpt lat="45.21076" lon="4.61794">
        <ele>670</ele>
        <time>2022-05-01T09:15:23Z</time>
      </trkpt>
      <trkpt lat="45.21062" lon="4.61786">
        <ele>669.79998779297</ele>
        <time>2022-05-01T09:15:25Z</time>
      </trkpt>
      <trkpt lat="45.21047" lon="4.61774">
        <ele>669.79998779297</ele>
        <time>2022-05-01T09:15:28Z</time>
      </trkpt>
      <trkpt lat="45.21036" lon="4.61767">
        <ele>669.59997558594</ele>
        <time>2022-05-01T09:15:30Z</time>
      </trkpt>
      <trkpt lat="45.21021" lon="4.61762">
        <ele>669.59997558594</ele>
        <time>2022-05-01T09:15:33Z</time>
      </trkpt>
      <trkpt lat="45.20999" lon="4.61735">
        <ele>669.40002441406</ele>
        <time>2022-05-01T09:15:41Z</time>
      </trkpt>
      <trkpt lat="45.20983" lon="4.61709">
        <ele>670.40002441406</ele>
        <time>2022-05-01T09:15:48Z</time>
      </trkpt>
      <trkpt lat="45.20981" lon="4.61701">
        <ele>671.20001220703</ele>
        <time>2022-05-01T09:15:50Z</time>
      </trkpt>
      <trkpt lat="45.20975" lon="4.61671">
        <ele>672.79998779297</ele>
        <time>2022-05-01T09:15:56Z</time>
      </trkpt>
      <trkpt lat="45.20973" lon="4.61657">
        <ele>673.59997558594</ele>
        <time>2022-05-01T09:16:00Z</time>
      </trkpt>
      <trkpt lat="45.20966" lon="4.61645">
        <ele>675</ele>
        <time>2022-05-01T09:16:05Z</time>
      </trkpt>
      <trkpt lat="45.20964" lon="4.6163">
        <ele>675</ele>
        <time>2022-05-01T09:16:08Z</time>
      </trkpt>
      <trkpt lat="45.20944" lon="4.61597">
        <ele>674.79998779297</ele>
        <time>2022-05-01T09:16:13Z</time>
      </trkpt>
      <trkpt lat="45.20937" lon="4.6159">
        <ele>674.79998779297</ele>
        <time>2022-05-01T09:16:14Z</time>
      </trkpt>
      <trkpt lat="45.20911" lon="4.61569">
        <ele>674.40002441406</ele>
        <time>2022-05-01T09:16:19Z</time>
      </trkpt>
      <trkpt lat="45.20903" lon="4.61577">
        <ele>674.59997558594</ele>
        <time>2022-05-01T09:16:22Z</time>
      </trkpt>
      <trkpt lat="45.20874" lon="4.61609">
        <ele>675.59997558594</ele>
        <time>2022-05-01T09:16:33Z</time>
      </trkpt>
      <trkpt lat="45.20846" lon="4.61646">
        <ele>675.79998779297</ele>
        <time>2022-05-01T09:16:40Z</time>
      </trkpt>
      <trkpt lat="45.20841" lon="4.61678">
        <ele>675.20001220703</ele>
        <time>2022-05-01T09:16:44Z</time>
      </trkpt>
      <trkpt lat="45.20845" lon="4.61759">
        <ele>673.59997558594</ele>
        <time>2022-05-01T09:16:52Z</time>
      </trkpt>
      <trkpt lat="45.20847" lon="4.61771">
        <ele>673.40002441406</ele>
        <time>2022-05-01T09:16:53Z</time>
      </trkpt>
      <trkpt lat="45.20844" lon="4.61825">
        <ele>671.79998779297</ele>
        <time>2022-05-01T09:16:59Z</time>
      </trkpt>
      <trkpt lat="45.20846" lon="4.61828">
        <ele>671.40002441406</ele>
        <time>2022-05-01T09:17:01Z</time>
      </trkpt>
      <trkpt lat="45.2084" lon="4.61829">
        <ele>670.79998779297</ele>
        <time>2022-05-01T09:17:04Z</time>
      </trkpt>
      <trkpt lat="45.20833" lon="4.61811">
        <ele>671</ele>
        <time>2022-05-01T09:17:12Z</time>
      </trkpt>
      <trkpt lat="45.20832" lon="4.61804">
        <ele>671.59997558594</ele>
        <time>2022-05-01T09:17:14Z</time>
      </trkpt>
      <trkpt lat="45.20831" lon="4.61801">
        <ele>671.59997558594</ele>
        <time>2022-05-01T09:17:15Z</time>
      </trkpt>
      <trkpt lat="45.2083" lon="4.61798">
        <ele>672.20001220703</ele>
        <time>2022-05-01T09:17:17Z</time>
      </trkpt>
      <trkpt lat="45.20824" lon="4.61795">
        <ele>673.40002441406</ele>
        <time>2022-05-01T09:17:21Z</time>
      </trkpt>
      <trkpt lat="45.2083" lon="4.61817">
        <ele>674.59997558594</ele>
        <time>2022-05-01T09:17:29Z</time>
      </trkpt>
      <trkpt lat="45.20831" lon="4.61822">
        <ele>674.79998779297</ele>
        <time>2022-05-01T09:17:31Z</time>
      </trkpt>
      <trkpt lat="45.20837" lon="4.6185">
        <ele>675</ele>
        <time>2022-05-01T09:17:40Z</time>
      </trkpt>
      <trkpt lat="45.20848" lon="4.61878">
        <ele>674.79998779297</ele>
        <time>2022-05-01T09:17:44Z</time>
      </trkpt>
      <trkpt lat="45.2085" lon="4.61886">
        <ele>674.79998779297</ele>
        <time>2022-05-01T09:17:45Z</time>
      </trkpt>
      <trkpt lat="45.20856" lon="4.6193">
        <ele>674.20001220703</ele>
        <time>2022-05-01T09:17:52Z</time>
      </trkpt>
      <trkpt lat="45.20862" lon="4.61948">
        <ele>674.20001220703</ele>
        <time>2022-05-01T09:17:55Z</time>
      </trkpt>
      <trkpt lat="45.20876" lon="4.62002">
        <ele>675.20001220703</ele>
        <time>2022-05-01T09:18:04Z</time>
      </trkpt>
      <trkpt lat="45.20876" lon="4.62019">
        <ele>675.20001220703</ele>
        <time>2022-05-01T09:18:06Z</time>
      </trkpt>
      <trkpt lat="45.20895" lon="4.62077">
        <ele>674</ele>
        <time>2022-05-01T09:18:16Z</time>
      </trkpt>
      <trkpt lat="45.20912" lon="4.6211">
        <ele>670.79998779297</ele>
        <time>2022-05-01T09:18:21Z</time>
      </trkpt>
      <trkpt lat="45.2093" lon="4.62149">
        <ele>667.59997558594</ele>
        <time>2022-05-01T09:18:25Z</time>
      </trkpt>
      <trkpt lat="45.20934" lon="4.62159">
        <ele>667.20001220703</ele>
        <time>2022-05-01T09:18:26Z</time>
      </trkpt>
      <trkpt lat="45.20945" lon="4.62183">
        <ele>664</ele>
        <time>2022-05-01T09:18:30Z</time>
      </trkpt>
      <trkpt lat="45.20947" lon="4.62188">
        <ele>663.59997558594</ele>
        <time>2022-05-01T09:18:31Z</time>
      </trkpt>
      <trkpt lat="45.20958" lon="4.62222">
        <ele>659</ele>
        <time>2022-05-01T09:18:35Z</time>
      </trkpt>
      <trkpt lat="45.20964" lon="4.62235">
        <ele>657.20001220703</ele>
        <time>2022-05-01T09:18:37Z</time>
      </trkpt>
      <trkpt lat="45.20968" lon="4.62262">
        <ele>652.59997558594</ele>
        <time>2022-05-01T09:18:41Z</time>
      </trkpt>
      <trkpt lat="45.20974" lon="4.62279">
        <ele>649.40002441406</ele>
        <time>2022-05-01T09:18:44Z</time>
      </trkpt>
      <trkpt lat="45.20978" lon="4.62283">
        <ele>648.79998779297</ele>
        <time>2022-05-01T09:18:45Z</time>
      </trkpt>
      <trkpt lat="45.20982" lon="4.62289">
        <ele>648.20001220703</ele>
        <time>2022-05-01T09:18:46Z</time>
      </trkpt>
      <trkpt lat="45.20983" lon="4.62322">
        <ele>644.79998779297</ele>
        <time>2022-05-01T09:18:50Z</time>
      </trkpt>
      <trkpt lat="45.20988" lon="4.62342">
        <ele>641.59997558594</ele>
        <time>2022-05-01T09:18:53Z</time>
      </trkpt>
      <trkpt lat="45.21002" lon="4.6237">
        <ele>637.79998779297</ele>
        <time>2022-05-01T09:18:57Z</time>
      </trkpt>
      <trkpt lat="45.21017" lon="4.62388">
        <ele>635.40002441406</ele>
        <time>2022-05-01T09:19:01Z</time>
      </trkpt>
      <trkpt lat="45.21027" lon="4.62405">
        <ele>633.20001220703</ele>
        <time>2022-05-01T09:19:04Z</time>
      </trkpt>
      <trkpt lat="45.21035" lon="4.62428">
        <ele>631</ele>
        <time>2022-05-01T09:19:07Z</time>
      </trkpt>
      <trkpt lat="45.21049" lon="4.6247">
        <ele>628</ele>
        <time>2022-05-01T09:19:12Z</time>
      </trkpt>
      <trkpt lat="45.21065" lon="4.62503">
        <ele>627.40002441406</ele>
        <time>2022-05-01T09:19:17Z</time>
      </trkpt>
      <trkpt lat="45.21082" lon="4.62505">
        <ele>625.20001220703</ele>
        <time>2022-05-01T09:19:24Z</time>
      </trkpt>
      <trkpt lat="45.21091" lon="4.62531">
        <ele>624.59997558594</ele>
        <time>2022-05-01T09:19:31Z</time>
      </trkpt>
      <trkpt lat="45.21093" lon="4.62557">
        <ele>624.59997558594</ele>
        <time>2022-05-01T09:19:37Z</time>
      </trkpt>
      <trkpt lat="45.2109" lon="4.62562">
        <ele>624.59997558594</ele>
        <time>2022-05-01T09:19:38Z</time>
      </trkpt>
      <trkpt lat="45.21095" lon="4.62583">
        <ele>624.20001220703</ele>
        <time>2022-05-01T09:19:44Z</time>
      </trkpt>
      <trkpt lat="45.21095" lon="4.62584">
        <ele>624</ele>
        <time>2022-05-01T09:19:45Z</time>
      </trkpt>
      <trkpt lat="45.21096" lon="4.62602">
        <ele>622.79998779297</ele>
        <time>2022-05-01T09:19:52Z</time>
      </trkpt>
      <trkpt lat="45.21093" lon="4.6263">
        <ele>621.79998779297</ele>
        <time>2022-05-01T09:19:59Z</time>
      </trkpt>
      <trkpt lat="45.21098" lon="4.62642">
        <ele>621.20001220703</ele>
        <time>2022-05-01T09:20:02Z</time>
      </trkpt>
      <trkpt lat="45.2111" lon="4.62673">
        <ele>620.59997558594</ele>
        <time>2022-05-01T09:20:10Z</time>
      </trkpt>
      <trkpt lat="45.21134" lon="4.62691">
        <ele>621.40002441406</ele>
        <time>2022-05-01T09:20:18Z</time>
      </trkpt>
      <trkpt lat="45.21137" lon="4.62694">
        <ele>622.20001220703</ele>
        <time>2022-05-01T09:20:20Z</time>
      </trkpt>
      <trkpt lat="45.2114" lon="4.62708">
        <ele>622.59997558594</ele>
        <time>2022-05-01T09:20:25Z</time>
      </trkpt>
      <trkpt lat="45.21144" lon="4.62711">
        <ele>622.79998779297</ele>
        <time>2022-05-01T09:20:27Z</time>
      </trkpt>
      <trkpt lat="45.21151" lon="4.62749">
        <ele>621.59997558594</ele>
        <time>2022-05-01T09:20:35Z</time>
      </trkpt>
      <trkpt lat="45.21168" lon="4.62749">
        <ele>621.59997558594</ele>
        <time>2022-05-01T09:20:41Z</time>
      </trkpt>
      <trkpt lat="45.21189" lon="4.62752">
        <ele>623.20001220703</ele>
        <time>2022-05-01T09:20:49Z</time>
      </trkpt>
      <trkpt lat="45.212" lon="4.62764">
        <ele>625</ele>
        <time>2022-05-01T09:20:54Z</time>
      </trkpt>
      <trkpt lat="45.212" lon="4.62773">
        <ele>625.59997558594</ele>
        <time>2022-05-01T09:20:56Z</time>
      </trkpt>
      <trkpt lat="45.21205" lon="4.62789">
        <ele>625.79998779297</ele>
        <time>2022-05-01T09:21:00Z</time>
      </trkpt>
      <trkpt lat="45.21212" lon="4.62793">
        <ele>626.40002441406</ele>
        <time>2022-05-01T09:21:03Z</time>
      </trkpt>
      <trkpt lat="45.21228" lon="4.62782">
        <ele>627</ele>
        <time>2022-05-01T09:21:08Z</time>
      </trkpt>
      <trkpt lat="45.2124" lon="4.62804">
        <ele>627.40002441406</ele>
        <time>2022-05-01T09:21:15Z</time>
      </trkpt>
      <trkpt lat="45.21243" lon="4.6281">
        <ele>627.59997558594</ele>
        <time>2022-05-01T09:21:17Z</time>
      </trkpt>
      <trkpt lat="45.21242" lon="4.62828">
        <ele>629.20001220703</ele>
        <time>2022-05-01T09:21:24Z</time>
      </trkpt>
      <trkpt lat="45.21248" lon="4.62834">
        <ele>629.59997558594</ele>
        <time>2022-05-01T09:21:27Z</time>
      </trkpt>
      <trkpt lat="45.21255" lon="4.62841">
        <ele>631</ele>
        <time>2022-05-01T09:21:31Z</time>
      </trkpt>
      <trkpt lat="45.2127" lon="4.6284">
        <ele>632.20001220703</ele>
        <time>2022-05-01T09:21:37Z</time>
      </trkpt>
      <trkpt lat="45.21288" lon="4.62852">
        <ele>632.40002441406</ele>
        <time>2022-05-01T09:21:44Z</time>
      </trkpt>
      <trkpt lat="45.21292" lon="4.62857">
        <ele>632.40002441406</ele>
        <time>2022-05-01T09:21:46Z</time>
      </trkpt>
      <trkpt lat="45.21289" lon="4.62887">
        <ele>632</ele>
        <time>2022-05-01T09:21:54Z</time>
      </trkpt>
      <trkpt lat="45.21288" lon="4.62919">
        <ele>632</ele>
        <time>2022-05-01T09:22:00Z</time>
      </trkpt>
      <trkpt lat="45.21293" lon="4.62945">
        <ele>631.79998779297</ele>
        <time>2022-05-01T09:22:04Z</time>
      </trkpt>
      <trkpt lat="45.21294" lon="4.62991">
        <ele>631.40002441406</ele>
        <time>2022-05-01T09:22:10Z</time>
      </trkpt>
      <trkpt lat="45.21294" lon="4.63005">
        <ele>631</ele>
        <time>2022-05-01T09:22:12Z</time>
      </trkpt>
      <trkpt lat="45.21308" lon="4.63058">
        <ele>629</ele>
        <time>2022-05-01T09:22:19Z</time>
      </trkpt>
      <trkpt lat="45.21324" lon="4.63084">
        <ele>628</ele>
        <time>2022-05-01T09:22:23Z</time>
      </trkpt>
      <trkpt lat="45.21347" lon="4.63089">
        <ele>626.79998779297</ele>
        <time>2022-05-01T09:22:27Z</time>
      </trkpt>
      <trkpt lat="45.21357" lon="4.6309">
        <ele>626.59997558594</ele>
        <time>2022-05-01T09:22:30Z</time>
      </trkpt>
      <trkpt lat="45.21367" lon="4.63098">
        <ele>626.40002441406</ele>
        <time>2022-05-01T09:22:32Z</time>
      </trkpt>
      <trkpt lat="45.21402" lon="4.63115">
        <ele>624</ele>
        <time>2022-05-01T09:22:39Z</time>
      </trkpt>
      <trkpt lat="45.21415" lon="4.6313">
        <ele>622</ele>
        <time>2022-05-01T09:22:43Z</time>
      </trkpt>
      <trkpt lat="45.21427" lon="4.63134">
        <ele>618.79998779297</ele>
        <time>2022-05-01T09:22:46Z</time>
      </trkpt>
      <trkpt lat="45.21433" lon="4.63146">
        <ele>616.40002441406</ele>
        <time>2022-05-01T09:22:49Z</time>
      </trkpt>
      <trkpt lat="45.2144" lon="4.63157">
        <ele>615.40002441406</ele>
        <time>2022-05-01T09:22:51Z</time>
      </trkpt>
      <trkpt lat="45.21461" lon="4.63172">
        <ele>614</ele>
        <time>2022-05-01T09:22:56Z</time>
      </trkpt>
      <trkpt lat="45.21466" lon="4.63172">
        <ele>613.79998779297</ele>
        <time>2022-05-01T09:22:57Z</time>
      </trkpt>
      <trkpt lat="45.21502" lon="4.63207">
        <ele>612.79998779297</ele>
        <time>2022-05-01T09:23:05Z</time>
      </trkpt>
      <trkpt lat="45.21506" lon="4.63247">
        <ele>611.79998779297</ele>
        <time>2022-05-01T09:23:12Z</time>
      </trkpt>
      <trkpt lat="45.21495" lon="4.63255">
        <ele>611</ele>
        <time>2022-05-01T09:23:15Z</time>
      </trkpt>
      <trkpt lat="45.2151" lon="4.6328">
        <ele>610.59997558594</ele>
        <time>2022-05-01T09:23:22Z</time>
      </trkpt>
      <trkpt lat="45.21539" lon="4.63321">
        <ele>609</ele>
        <time>2022-05-01T09:23:30Z</time>
      </trkpt>
      <trkpt lat="45.2155" lon="4.63344">
        <ele>609</ele>
        <time>2022-05-01T09:23:34Z</time>
      </trkpt>
      <trkpt lat="45.21551" lon="4.63351">
        <ele>609</ele>
        <time>2022-05-01T09:23:35Z</time>
      </trkpt>
      <trkpt lat="45.21565" lon="4.63381">
        <ele>609.20001220703</ele>
        <time>2022-05-01T09:23:40Z</time>
      </trkpt>
      <trkpt lat="45.21589" lon="4.63405">
        <ele>610.20001220703</ele>
        <time>2022-05-01T09:23:48Z</time>
      </trkpt>
      <trkpt lat="45.21608" lon="4.63421">
        <ele>612.79998779297</ele>
        <time>2022-05-01T09:23:55Z</time>
      </trkpt>
      <trkpt lat="45.21611" lon="4.63423">
        <ele>613.20001220703</ele>
        <time>2022-05-01T09:23:56Z</time>
      </trkpt>
      <trkpt lat="45.21633" lon="4.6343">
        <ele>615.40002441406</ele>
        <time>2022-05-01T09:24:04Z</time>
      </trkpt>
      <trkpt lat="45.21657" lon="4.63454">
        <ele>616.40002441406</ele>
        <time>2022-05-01T09:24:12Z</time>
      </trkpt>
      <trkpt lat="45.21669" lon="4.63466">
        <ele>616</ele>
        <time>2022-05-01T09:24:15Z</time>
      </trkpt>
      <trkpt lat="45.21692" lon="4.6348">
        <ele>615.79998779297</ele>
        <time>2022-05-01T09:24:19Z</time>
      </trkpt>
      <trkpt lat="45.21715" lon="4.6348">
        <ele>614.40002441406</ele>
        <time>2022-05-01T09:24:23Z</time>
      </trkpt>
      <trkpt lat="45.21727" lon="4.63466">
        <ele>613.20001220703</ele>
        <time>2022-05-01T09:24:27Z</time>
      </trkpt>
      <trkpt lat="45.21737" lon="4.63447">
        <ele>612.40002441406</ele>
        <time>2022-05-01T09:24:31Z</time>
      </trkpt>
      <trkpt lat="45.21751" lon="4.6342">
        <ele>608.20001220703</ele>
        <time>2022-05-01T09:24:36Z</time>
      </trkpt>
      <trkpt lat="45.21758" lon="4.63411">
        <ele>607</ele>
        <time>2022-05-01T09:24:38Z</time>
      </trkpt>
      <trkpt lat="45.21767" lon="4.63401">
        <ele>603.59997558594</ele>
        <time>2022-05-01T09:24:41Z</time>
      </trkpt>
      <trkpt lat="45.21774" lon="4.63396">
        <ele>600.40002441406</ele>
        <time>2022-05-01T09:24:43Z</time>
      </trkpt>
      <trkpt lat="45.21781" lon="4.63395">
        <ele>597</ele>
        <time>2022-05-01T09:24:46Z</time>
      </trkpt>
      <trkpt lat="45.21783" lon="4.63395">
        <ele>595.20001220703</ele>
        <time>2022-05-01T09:24:47Z</time>
      </trkpt>
      <trkpt lat="45.2179" lon="4.634">
        <ele>592</ele>
        <time>2022-05-01T09:24:51Z</time>
      </trkpt>
      <trkpt lat="45.21806" lon="4.634">
        <ele>588.79998779297</ele>
        <time>2022-05-01T09:24:59Z</time>
      </trkpt>
      <trkpt lat="45.21808" lon="4.63403">
        <ele>588</ele>
        <time>2022-05-01T09:25:01Z</time>
      </trkpt>
      <trkpt lat="45.21824" lon="4.63409">
        <ele>586.20001220703</ele>
        <time>2022-05-01T09:25:10Z</time>
      </trkpt>
      <trkpt lat="45.21831" lon="4.63417">
        <ele>585.59997558594</ele>
        <time>2022-05-01T09:25:13Z</time>
      </trkpt>
      <trkpt lat="45.21844" lon="4.63433">
        <ele>585.20001220703</ele>
        <time>2022-05-01T09:25:20Z</time>
      </trkpt>
      <trkpt lat="45.21854" lon="4.63429">
        <ele>585</ele>
        <time>2022-05-01T09:25:23Z</time>
      </trkpt>
      <trkpt lat="45.21865" lon="4.63429">
        <ele>583.59997558594</ele>
        <time>2022-05-01T09:25:27Z</time>
      </trkpt>
      <trkpt lat="45.21867" lon="4.63431">
        <ele>583.40002441406</ele>
        <time>2022-05-01T09:25:28Z</time>
      </trkpt>
      <trkpt lat="45.21873" lon="4.63437">
        <ele>581.79998779297</ele>
        <time>2022-05-01T09:25:30Z</time>
      </trkpt>
      <trkpt lat="45.21883" lon="4.63444">
        <ele>579.40002441406</ele>
        <time>2022-05-01T09:25:34Z</time>
      </trkpt>
      <trkpt lat="45.219" lon="4.63456">
        <ele>576.59997558594</ele>
        <time>2022-05-01T09:25:41Z</time>
      </trkpt>
      <trkpt lat="45.21903" lon="4.6346">
        <ele>576.20001220703</ele>
        <time>2022-05-01T09:25:42Z</time>
      </trkpt>
      <trkpt lat="45.21907" lon="4.63464">
        <ele>575.79998779297</ele>
        <time>2022-05-01T09:25:43Z</time>
      </trkpt>
      <trkpt lat="45.21913" lon="4.63479">
        <ele>574.40002441406</ele>
        <time>2022-05-01T09:25:46Z</time>
      </trkpt>
      <trkpt lat="45.2193" lon="4.63499">
        <ele>572.40002441406</ele>
        <time>2022-05-01T09:25:52Z</time>
      </trkpt>
      <trkpt lat="45.21939" lon="4.63502">
        <ele>571.79998779297</ele>
        <time>2022-05-01T09:25:55Z</time>
      </trkpt>
      <trkpt lat="45.21956" lon="4.63505">
        <ele>568.59997558594</ele>
        <time>2022-05-01T09:26:00Z</time>
      </trkpt>
      <trkpt lat="45.21963" lon="4.63513">
        <ele>564.79998779297</ele>
        <time>2022-05-01T09:26:04Z</time>
      </trkpt>
      <trkpt lat="45.21968" lon="4.63521">
        <ele>562.59997558594</ele>
        <time>2022-05-01T09:26:06Z</time>
      </trkpt>
      <trkpt lat="45.21966" lon="4.63547">
        <ele>560</ele>
        <time>2022-05-01T09:26:11Z</time>
      </trkpt>
      <trkpt lat="45.21965" lon="4.6356">
        <ele>559.20001220703</ele>
        <time>2022-05-01T09:26:13Z</time>
      </trkpt>
      <trkpt lat="45.21962" lon="4.6357">
        <ele>558.59997558594</ele>
        <time>2022-05-01T09:26:16Z</time>
      </trkpt>
      <trkpt lat="45.21942" lon="4.636">
        <ele>558.59997558594</ele>
        <time>2022-05-01T09:26:24Z</time>
      </trkpt>
      <trkpt lat="45.21922" lon="4.6363">
        <ele>558.59997558594</ele>
        <time>2022-05-01T09:26:31Z</time>
      </trkpt>
      <trkpt lat="45.21912" lon="4.63644">
        <ele>558.79998779297</ele>
        <time>2022-05-01T09:26:34Z</time>
      </trkpt>
      <trkpt lat="45.21911" lon="4.6368">
        <ele>559.59997558594</ele>
        <time>2022-05-01T09:26:41Z</time>
      </trkpt>
      <trkpt lat="45.219" lon="4.63702">
        <ele>560.79998779297</ele>
        <time>2022-05-01T09:26:47Z</time>
      </trkpt>
      <trkpt lat="45.21887" lon="4.63726">
        <ele>562.40002441406</ele>
        <time>2022-05-01T09:26:54Z</time>
      </trkpt>
      <trkpt lat="45.21882" lon="4.6373">
        <ele>563.40002441406</ele>
        <time>2022-05-01T09:26:57Z</time>
      </trkpt>
      <trkpt lat="45.21871" lon="4.63737">
        <ele>565.59997558594</ele>
        <time>2022-05-01T09:27:03Z</time>
      </trkpt>
      <trkpt lat="45.21871" lon="4.63751">
        <ele>566.59997558594</ele>
        <time>2022-05-01T09:27:08Z</time>
      </trkpt>
      <trkpt lat="45.21879" lon="4.63768">
        <ele>566.59997558594</ele>
        <time>2022-05-01T09:27:12Z</time>
      </trkpt>
      <trkpt lat="45.21888" lon="4.63783">
        <ele>566.59997558594</ele>
        <time>2022-05-01T09:27:15Z</time>
      </trkpt>
      <trkpt lat="45.21909" lon="4.63798">
        <ele>566</ele>
        <time>2022-05-01T09:27:19Z</time>
      </trkpt>
      <trkpt lat="45.21914" lon="4.63802">
        <ele>565.59997558594</ele>
        <time>2022-05-01T09:27:20Z</time>
      </trkpt>
      <trkpt lat="45.2192" lon="4.63829">
        <ele>562.79998779297</ele>
        <time>2022-05-01T09:27:25Z</time>
      </trkpt>
      <trkpt lat="45.21924" lon="4.63848">
        <ele>562.40002441406</ele>
        <time>2022-05-01T09:27:29Z</time>
      </trkpt>
      <trkpt lat="45.21925" lon="4.63872">
        <ele>562.20001220703</ele>
        <time>2022-05-01T09:27:33Z</time>
      </trkpt>
      <trkpt lat="45.21909" lon="4.63898">
        <ele>562</ele>
        <time>2022-05-01T09:27:39Z</time>
      </trkpt>
      <trkpt lat="45.2191" lon="4.6392">
        <ele>561.40002441406</ele>
        <time>2022-05-01T09:27:45Z</time>
      </trkpt>
      <trkpt lat="45.2191" lon="4.63925">
        <ele>561</ele>
        <time>2022-05-01T09:27:46Z</time>
      </trkpt>
      <trkpt lat="45.21911" lon="4.63937">
        <ele>560.40002441406</ele>
        <time>2022-05-01T09:27:49Z</time>
      </trkpt>
      <trkpt lat="45.2191" lon="4.63959">
        <ele>557.40002441406</ele>
        <time>2022-05-01T09:27:54Z</time>
      </trkpt>
      <trkpt lat="45.21911" lon="4.63969">
        <ele>555</ele>
        <time>2022-05-01T09:27:57Z</time>
      </trkpt>
      <trkpt lat="45.21909" lon="4.63988">
        <ele>551.59997558594</ele>
        <time>2022-05-01T09:28:02Z</time>
      </trkpt>
      <trkpt lat="45.21897" lon="4.64018">
        <ele>547.79998779297</ele>
        <time>2022-05-01T09:28:08Z</time>
      </trkpt>
      <trkpt lat="45.21898" lon="4.64034">
        <ele>544.20001220703</ele>
        <time>2022-05-01T09:28:11Z</time>
      </trkpt>
      <trkpt lat="45.21893" lon="4.64061">
        <ele>540.40002441406</ele>
        <time>2022-05-01T09:28:16Z</time>
      </trkpt>
      <trkpt lat="45.21895" lon="4.64081">
        <ele>537.20001220703</ele>
        <time>2022-05-01T09:28:21Z</time>
      </trkpt>
      <trkpt lat="45.21912" lon="4.64109">
        <ele>533.40002441406</ele>
        <time>2022-05-01T09:28:25Z</time>
      </trkpt>
      <trkpt lat="45.21934" lon="4.64137">
        <ele>531.59997558594</ele>
        <time>2022-05-01T09:28:29Z</time>
      </trkpt>
      <trkpt lat="45.21949" lon="4.64161">
        <ele>530.79998779297</ele>
        <time>2022-05-01T09:28:32Z</time>
      </trkpt>
      <trkpt lat="45.21955" lon="4.6417">
        <ele>530.59997558594</ele>
        <time>2022-05-01T09:28:33Z</time>
      </trkpt>
      <trkpt lat="45.21977" lon="4.64187">
        <ele>527.79998779297</ele>
        <time>2022-05-01T09:28:37Z</time>
      </trkpt>
      <trkpt lat="45.21991" lon="4.64194">
        <ele>525</ele>
        <time>2022-05-01T09:28:42Z</time>
      </trkpt>
      <trkpt lat="45.21994" lon="4.64196">
        <ele>523.79998779297</ele>
        <time>2022-05-01T09:28:44Z</time>
      </trkpt>
      <trkpt lat="45.21999" lon="4.64194">
        <ele>523</ele>
        <time>2022-05-01T09:28:57Z</time>
      </trkpt>
      <trkpt lat="45.22001" lon="4.64197">
        <ele>522.79998779297</ele>
        <time>2022-05-01T09:29:08Z</time>
      </trkpt>
      <trkpt lat="45.22002" lon="4.64201">
        <ele>522.40002441406</ele>
        <time>2022-05-01T09:29:58Z</time>
      </trkpt>
      <trkpt lat="45.22006" lon="4.642">
        <ele>523.40002441406</ele>
        <time>2022-05-01T09:31:25Z</time>
      </trkpt>
      <trkpt lat="45.22007" lon="4.64199">
        <ele>523.20001220703</ele>
        <time>2022-05-01T09:32:21Z</time>
      </trkpt>
      <trkpt lat="45.22005" lon="4.642">
        <ele>523</ele>
        <time>2022-05-01T09:34:36Z</time>
      </trkpt>
      <trkpt lat="45.22006" lon="4.64201">
        <ele>523</ele>
        <time>2022-05-01T09:36:56Z</time>
      </trkpt>
      <trkpt lat="45.22007" lon="4.64201">
        <ele>523.40002441406</ele>
        <time>2022-05-01T09:37:27Z</time>
      </trkpt>
      <trkpt lat="45.22033" lon="4.64223">
        <ele>522.40002441406</ele>
        <time>2022-05-01T09:37:37Z</time>
      </trkpt>
      <trkpt lat="45.22038" lon="4.6422">
        <ele>521.20001220703</ele>
        <time>2022-05-01T09:37:39Z</time>
      </trkpt>
      <trkpt lat="45.22052" lon="4.64219">
        <ele>520.79998779297</ele>
        <time>2022-05-01T09:37:45Z</time>
      </trkpt>
      <trkpt lat="45.22065" lon="4.64221">
        <ele>521.59997558594</ele>
        <time>2022-05-01T09:37:51Z</time>
      </trkpt>
      <trkpt lat="45.22082" lon="4.64224">
        <ele>522.59997558594</ele>
        <time>2022-05-01T09:37:56Z</time>
      </trkpt>
      <trkpt lat="45.22084" lon="4.64225">
        <ele>522.59997558594</ele>
        <time>2022-05-01T09:37:57Z</time>
      </trkpt>
      <trkpt lat="45.22107" lon="4.6423">
        <ele>523.20001220703</ele>
        <time>2022-05-01T09:38:04Z</time>
      </trkpt>
      <trkpt lat="45.22121" lon="4.64239">
        <ele>523.59997558594</ele>
        <time>2022-05-01T09:38:08Z</time>
      </trkpt>
      <trkpt lat="45.22133" lon="4.64241">
        <ele>523.79998779297</ele>
        <time>2022-05-01T09:38:11Z</time>
      </trkpt>
      <trkpt lat="45.22148" lon="4.64246">
        <ele>524</ele>
        <time>2022-05-01T09:38:15Z</time>
      </trkpt>
      <trkpt lat="45.22184" lon="4.64244">
        <ele>524.20001220703</ele>
        <time>2022-05-01T09:38:24Z</time>
      </trkpt>
      <trkpt lat="45.22221" lon="4.64231">
        <ele>524.40002441406</ele>
        <time>2022-05-01T09:38:32Z</time>
      </trkpt>
      <trkpt lat="45.22237" lon="4.64227">
        <ele>524.40002441406</ele>
        <time>2022-05-01T09:38:35Z</time>
      </trkpt>
      <trkpt lat="45.22243" lon="4.64227">
        <ele>524.40002441406</ele>
        <time>2022-05-01T09:38:36Z</time>
      </trkpt>
      <trkpt lat="45.22271" lon="4.64234">
        <ele>524.79998779297</ele>
        <time>2022-05-01T09:38:45Z</time>
      </trkpt>
      <trkpt lat="45.22274" lon="4.64236">
        <ele>524.79998779297</ele>
        <time>2022-05-01T09:38:46Z</time>
      </trkpt>
      <trkpt lat="45.22296" lon="4.64232">
        <ele>524.79998779297</ele>
        <time>2022-05-01T09:38:53Z</time>
      </trkpt>
      <trkpt lat="45.22334" lon="4.64237">
        <ele>525.79998779297</ele>
        <time>2022-05-01T09:39:04Z</time>
      </trkpt>
      <trkpt lat="45.2235" lon="4.64237">
        <ele>527</ele>
        <time>2022-05-01T09:39:10Z</time>
      </trkpt>
      <trkpt lat="45.22361" lon="4.64235">
        <ele>528.20001220703</ele>
        <time>2022-05-01T09:39:14Z</time>
      </trkpt>
      <trkpt lat="45.22364" lon="4.64236">
        <ele>528.79998779297</ele>
        <time>2022-05-01T09:39:16Z</time>
      </trkpt>
      <trkpt lat="45.2238" lon="4.64228">
        <ele>529.59997558594</ele>
        <time>2022-05-01T09:39:21Z</time>
      </trkpt>
      <trkpt lat="45.22395" lon="4.64222">
        <ele>532</ele>
        <time>2022-05-01T09:39:28Z</time>
      </trkpt>
      <trkpt lat="45.22398" lon="4.64221">
        <ele>532.59997558594</ele>
        <time>2022-05-01T09:39:30Z</time>
      </trkpt>
      <trkpt lat="45.2241" lon="4.64215">
        <ele>534</ele>
        <time>2022-05-01T09:39:36Z</time>
      </trkpt>
      <trkpt lat="45.22428" lon="4.64203">
        <ele>536.20001220703</ele>
        <time>2022-05-01T09:39:45Z</time>
      </trkpt>
      <trkpt lat="45.22447" lon="4.64185">
        <ele>538.79998779297</ele>
        <time>2022-05-01T09:39:56Z</time>
      </trkpt>
      <trkpt lat="45.22451" lon="4.64181">
        <ele>539.20001220703</ele>
        <time>2022-05-01T09:39:58Z</time>
      </trkpt>
      <trkpt lat="45.22451" lon="4.64173">
        <ele>539.59997558594</ele>
        <time>2022-05-01T09:40:02Z</time>
      </trkpt>
      <trkpt lat="45.2246" lon="4.6415">
        <ele>541.79998779297</ele>
        <time>2022-05-01T09:40:13Z</time>
      </trkpt>
      <trkpt lat="45.22461" lon="4.64148">
        <ele>542.20001220703</ele>
        <time>2022-05-01T09:40:14Z</time>
      </trkpt>
      <trkpt lat="45.22469" lon="4.64133">
        <ele>543.59997558594</ele>
        <time>2022-05-01T09:40:20Z</time>
      </trkpt>
      <trkpt lat="45.22477" lon="4.64114">
        <ele>544.59997558594</ele>
        <time>2022-05-01T09:40:27Z</time>
      </trkpt>
      <trkpt lat="45.22507" lon="4.64088">
        <ele>545.20001220703</ele>
        <time>2022-05-01T09:40:34Z</time>
      </trkpt>
      <trkpt lat="45.2252" lon="4.64077">
        <ele>545</ele>
        <time>2022-05-01T09:40:37Z</time>
      </trkpt>
      <trkpt lat="45.22539" lon="4.64082">
        <ele>543.79998779297</ele>
        <time>2022-05-01T09:40:41Z</time>
      </trkpt>
      <trkpt lat="45.22545" lon="4.64087">
        <ele>543.20001220703</ele>
        <time>2022-05-01T09:40:42Z</time>
      </trkpt>
      <trkpt lat="45.22561" lon="4.64092">
        <ele>541.40002441406</ele>
        <time>2022-05-01T09:40:44Z</time>
      </trkpt>
      <trkpt lat="45.22571" lon="4.64099">
        <ele>540</ele>
        <time>2022-05-01T09:40:46Z</time>
      </trkpt>
      <trkpt lat="45.2258" lon="4.64111">
        <ele>537.20001220703</ele>
        <time>2022-05-01T09:40:48Z</time>
      </trkpt>
      <trkpt lat="45.22604" lon="4.64117">
        <ele>533.59997558594</ele>
        <time>2022-05-01T09:40:54Z</time>
      </trkpt>
      <trkpt lat="45.22606" lon="4.64112">
        <ele>533</ele>
        <time>2022-05-01T09:40:55Z</time>
      </trkpt>
      <trkpt lat="45.22611" lon="4.64102">
        <ele>531.59997558594</ele>
        <time>2022-05-01T09:40:57Z</time>
      </trkpt>
      <trkpt lat="45.22622" lon="4.64091">
        <ele>530.40002441406</ele>
        <time>2022-05-01T09:41:00Z</time>
      </trkpt>
      <trkpt lat="45.22631" lon="4.64088">
        <ele>529.40002441406</ele>
        <time>2022-05-01T09:41:02Z</time>
      </trkpt>
      <trkpt lat="45.22647" lon="4.64085">
        <ele>528.40002441406</ele>
        <time>2022-05-01T09:41:06Z</time>
      </trkpt>
      <trkpt lat="45.22651" lon="4.64086">
        <ele>528.20001220703</ele>
        <time>2022-05-01T09:41:07Z</time>
      </trkpt>
      <trkpt lat="45.2269" lon="4.64094">
        <ele>526</ele>
        <time>2022-05-01T09:41:16Z</time>
      </trkpt>
      <trkpt lat="45.22694" lon="4.64098">
        <ele>525.59997558594</ele>
        <time>2022-05-01T09:41:17Z</time>
      </trkpt>
      <trkpt lat="45.22714" lon="4.64093">
        <ele>524.40002441406</ele>
        <time>2022-05-01T09:41:24Z</time>
      </trkpt>
      <trkpt lat="45.22742" lon="4.64055">
        <ele>522</ele>
        <time>2022-05-01T09:41:32Z</time>
      </trkpt>
      <trkpt lat="45.22755" lon="4.64049">
        <ele>519</ele>
        <time>2022-05-01T09:41:37Z</time>
      </trkpt>
      <trkpt lat="45.22762" lon="4.6405">
        <ele>515.59997558594</ele>
        <time>2022-05-01T09:41:40Z</time>
      </trkpt>
      <trkpt lat="45.22769" lon="4.64056">
        <ele>514.20001220703</ele>
        <time>2022-05-01T09:41:43Z</time>
      </trkpt>
      <trkpt lat="45.22783" lon="4.64073">
        <ele>513.79998779297</ele>
        <time>2022-05-01T09:41:49Z</time>
      </trkpt>
      <trkpt lat="45.22801" lon="4.64088">
        <ele>515.59997558594</ele>
        <time>2022-05-01T09:41:56Z</time>
      </trkpt>
      <trkpt lat="45.22822" lon="4.64075">
        <ele>515.79998779297</ele>
        <time>2022-05-01T09:42:03Z</time>
      </trkpt>
      <trkpt lat="45.22831" lon="4.64074">
        <ele>514.20001220703</ele>
        <time>2022-05-01T09:42:06Z</time>
      </trkpt>
      <trkpt lat="45.22834" lon="4.64076">
        <ele>514</ele>
        <time>2022-05-01T09:42:07Z</time>
      </trkpt>
      <trkpt lat="45.2285" lon="4.6408">
        <ele>513.20001220703</ele>
        <time>2022-05-01T09:42:12Z</time>
      </trkpt>
      <trkpt lat="45.22862" lon="4.64087">
        <ele>510.60000610352</ele>
        <time>2022-05-01T09:42:18Z</time>
      </trkpt>
      <trkpt lat="45.22865" lon="4.64086">
        <ele>510</ele>
        <time>2022-05-01T09:42:19Z</time>
      </trkpt>
      <trkpt lat="45.22868" lon="4.64086">
        <ele>509.60000610352</ele>
        <time>2022-05-01T09:42:20Z</time>
      </trkpt>
      <trkpt lat="45.22877" lon="4.64096">
        <ele>507.20001220703</ele>
        <time>2022-05-01T09:42:25Z</time>
      </trkpt>
      <trkpt lat="45.22894" lon="4.64104">
        <ele>506.39999389648</ele>
        <time>2022-05-01T09:42:31Z</time>
      </trkpt>
      <trkpt lat="45.22904" lon="4.64109">
        <ele>505.79998779297</ele>
        <time>2022-05-01T09:42:37Z</time>
      </trkpt>
      <trkpt lat="45.22904" lon="4.6411">
        <ele>505.79998779297</ele>
        <time>2022-05-01T09:42:38Z</time>
      </trkpt>
      <trkpt lat="45.22918" lon="4.64135">
        <ele>505.39999389648</ele>
        <time>2022-05-01T09:42:47Z</time>
      </trkpt>
      <trkpt lat="45.22921" lon="4.64138">
        <ele>505.39999389648</ele>
        <time>2022-05-01T09:42:48Z</time>
      </trkpt>
      <trkpt lat="45.22929" lon="4.64184">
        <ele>505.39999389648</ele>
        <time>2022-05-01T09:42:57Z</time>
      </trkpt>
      <trkpt lat="45.22948" lon="4.64248">
        <ele>507.60000610352</ele>
        <time>2022-05-01T09:43:09Z</time>
      </trkpt>
      <trkpt lat="45.22953" lon="4.64256">
        <ele>508</ele>
        <time>2022-05-01T09:43:12Z</time>
      </trkpt>
      <trkpt lat="45.22952" lon="4.6428">
        <ele>509.20001220703</ele>
        <time>2022-05-01T09:43:18Z</time>
      </trkpt>
      <trkpt lat="45.22951" lon="4.64303">
        <ele>511.39999389648</ele>
        <time>2022-05-01T09:43:26Z</time>
      </trkpt>
      <trkpt lat="45.22963" lon="4.64337">
        <ele>514.20001220703</ele>
        <time>2022-05-01T09:43:37Z</time>
      </trkpt>
      <trkpt lat="45.22966" lon="4.64339">
        <ele>514.40002441406</ele>
        <time>2022-05-01T09:43:39Z</time>
      </trkpt>
      <trkpt lat="45.22975" lon="4.64344">
        <ele>514.79998779297</ele>
        <time>2022-05-01T09:43:43Z</time>
      </trkpt>
      <trkpt lat="45.2299" lon="4.64354">
        <ele>515</ele>
        <time>2022-05-01T09:43:47Z</time>
      </trkpt>
      <trkpt lat="45.2301" lon="4.64376">
        <ele>515</ele>
        <time>2022-05-01T09:43:53Z</time>
      </trkpt>
      <trkpt lat="45.2302" lon="4.64389">
        <ele>516</ele>
        <time>2022-05-01T09:43:58Z</time>
      </trkpt>
      <trkpt lat="45.23037" lon="4.64408">
        <ele>517.20001220703</ele>
        <time>2022-05-01T09:44:07Z</time>
      </trkpt>
      <trkpt lat="45.23043" lon="4.6441">
        <ele>517.59997558594</ele>
        <time>2022-05-01T09:44:09Z</time>
      </trkpt>
      <trkpt lat="45.23071" lon="4.64426">
        <ele>518.79998779297</ele>
        <time>2022-05-01T09:44:19Z</time>
      </trkpt>
      <trkpt lat="45.2308" lon="4.64431">
        <ele>519</ele>
        <time>2022-05-01T09:44:22Z</time>
      </trkpt>
      <trkpt lat="45.23095" lon="4.64464">
        <ele>519.40002441406</ele>
        <time>2022-05-01T09:44:29Z</time>
      </trkpt>
      <trkpt lat="45.23097" lon="4.64476">
        <ele>519.59997558594</ele>
        <time>2022-05-01T09:44:32Z</time>
      </trkpt>
      <trkpt lat="45.23086" lon="4.64488">
        <ele>521.79998779297</ele>
        <time>2022-05-01T09:44:41Z</time>
      </trkpt>
      <trkpt lat="45.23084" lon="4.64492">
        <ele>522.20001220703</ele>
        <time>2022-05-01T09:44:43Z</time>
      </trkpt>
      <trkpt lat="45.23084" lon="4.64495">
        <ele>522.40002441406</ele>
        <time>2022-05-01T09:44:44Z</time>
      </trkpt>
      <trkpt lat="45.23084" lon="4.64503">
        <ele>523.59997558594</ele>
        <time>2022-05-01T09:44:47Z</time>
      </trkpt>
      <trkpt lat="45.2309" lon="4.64517">
        <ele>524.20001220703</ele>
        <time>2022-05-01T09:44:52Z</time>
      </trkpt>
      <trkpt lat="45.23092" lon="4.64521">
        <ele>524.40002441406</ele>
        <time>2022-05-01T09:44:53Z</time>
      </trkpt>
      <trkpt lat="45.23096" lon="4.64541">
        <ele>524.79998779297</ele>
        <time>2022-05-01T09:44:57Z</time>
      </trkpt>
      <trkpt lat="45.23101" lon="4.64557">
        <ele>524.79998779297</ele>
        <time>2022-05-01T09:45:00Z</time>
      </trkpt>
      <trkpt lat="45.23117" lon="4.64569">
        <ele>524.79998779297</ele>
        <time>2022-05-01T09:45:07Z</time>
      </trkpt>
      <trkpt lat="45.2313" lon="4.64586">
        <ele>524.40002441406</ele>
        <time>2022-05-01T09:45:15Z</time>
      </trkpt>
      <trkpt lat="45.23145" lon="4.646">
        <ele>522.20001220703</ele>
        <time>2022-05-01T09:45:21Z</time>
      </trkpt>
      <trkpt lat="45.23167" lon="4.64602">
        <ele>519.20001220703</ele>
        <time>2022-05-01T09:45:28Z</time>
      </trkpt>
      <trkpt lat="45.23181" lon="4.64609">
        <ele>518.20001220703</ele>
        <time>2022-05-01T09:45:32Z</time>
      </trkpt>
      <trkpt lat="45.23206" lon="4.64598">
        <ele>515.59997558594</ele>
        <time>2022-05-01T09:45:40Z</time>
      </trkpt>
      <trkpt lat="45.23218" lon="4.64611">
        <ele>513.40002441406</ele>
        <time>2022-05-01T09:45:48Z</time>
      </trkpt>
      <trkpt lat="45.23214" lon="4.6462">
        <ele>512.40002441406</ele>
        <time>2022-05-01T09:45:52Z</time>
      </trkpt>
      <trkpt lat="45.23205" lon="4.64629">
        <ele>510.39999389648</ele>
        <time>2022-05-01T09:45:58Z</time>
      </trkpt>
      <trkpt lat="45.23198" lon="4.64634">
        <ele>508.79998779297</ele>
        <time>2022-05-01T09:46:02Z</time>
      </trkpt>
      <trkpt lat="45.23197" lon="4.64644">
        <ele>506</ele>
        <time>2022-05-01T09:46:08Z</time>
      </trkpt>
      <trkpt lat="45.23216" lon="4.64655">
        <ele>504.20001220703</ele>
        <time>2022-05-01T09:46:14Z</time>
      </trkpt>
      <trkpt lat="45.23226" lon="4.64656">
        <ele>503.39999389648</ele>
        <time>2022-05-01T09:46:17Z</time>
      </trkpt>
      <trkpt lat="45.2323" lon="4.64658">
        <ele>502.20001220703</ele>
        <time>2022-05-01T09:46:19Z</time>
      </trkpt>
      <trkpt lat="45.23254" lon="4.64665">
        <ele>499</ele>
        <time>2022-05-01T09:46:24Z</time>
      </trkpt>
      <trkpt lat="45.23266" lon="4.64674">
        <ele>496</ele>
        <time>2022-05-01T09:46:28Z</time>
      </trkpt>
      <trkpt lat="45.23269" lon="4.64678">
        <ele>495.20001220703</ele>
        <time>2022-05-01T09:46:29Z</time>
      </trkpt>
      <trkpt lat="45.23272" lon="4.64681">
        <ele>494.60000610352</ele>
        <time>2022-05-01T09:46:30Z</time>
      </trkpt>
      <trkpt lat="45.23281" lon="4.64688">
        <ele>491</ele>
        <time>2022-05-01T09:46:33Z</time>
      </trkpt>
      <trkpt lat="45.23294" lon="4.647">
        <ele>486.60000610352</ele>
        <time>2022-05-01T09:46:38Z</time>
      </trkpt>
      <trkpt lat="45.233" lon="4.64716">
        <ele>483.20001220703</ele>
        <time>2022-05-01T09:46:42Z</time>
      </trkpt>
      <trkpt lat="45.23303" lon="4.64724">
        <ele>480</ele>
        <time>2022-05-01T09:46:44Z</time>
      </trkpt>
      <trkpt lat="45.23307" lon="4.64734">
        <ele>476.60000610352</ele>
        <time>2022-05-01T09:46:47Z</time>
      </trkpt>
      <trkpt lat="45.23311" lon="4.64746">
        <ele>473.20001220703</ele>
        <time>2022-05-01T09:46:50Z</time>
      </trkpt>
      <trkpt lat="45.23313" lon="4.64763">
        <ele>469.39999389648</ele>
        <time>2022-05-01T09:46:54Z</time>
      </trkpt>
      <trkpt lat="45.23317" lon="4.6478">
        <ele>466.39999389648</ele>
        <time>2022-05-01T09:46:58Z</time>
      </trkpt>
      <trkpt lat="45.23312" lon="4.64792">
        <ele>464.39999389648</ele>
        <time>2022-05-01T09:47:02Z</time>
      </trkpt>
      <trkpt lat="45.23303" lon="4.64811">
        <ele>462</ele>
        <time>2022-05-01T09:47:09Z</time>
      </trkpt>
      <trkpt lat="45.23293" lon="4.64853">
        <ele>461</ele>
        <time>2022-05-01T09:47:20Z</time>
      </trkpt>
      <trkpt lat="45.23266" lon="4.64896">
        <ele>459.39999389648</ele>
        <time>2022-05-01T09:47:27Z</time>
      </trkpt>
      <trkpt lat="45.23255" lon="4.64905">
        <ele>459.39999389648</ele>
        <time>2022-05-01T09:47:29Z</time>
      </trkpt>
      <trkpt lat="45.23225" lon="4.64934">
        <ele>459.39999389648</ele>
        <time>2022-05-01T09:47:36Z</time>
      </trkpt>
      <trkpt lat="45.23192" lon="4.65021">
        <ele>462.20001220703</ele>
        <time>2022-05-01T09:47:52Z</time>
      </trkpt>
      <trkpt lat="45.23175" lon="4.65068">
        <ele>463</ele>
        <time>2022-05-01T09:48:00Z</time>
      </trkpt>
      <trkpt lat="45.2319" lon="4.6508">
        <ele>463.20001220703</ele>
        <time>2022-05-01T09:48:05Z</time>
      </trkpt>
      <trkpt lat="45.23195" lon="4.65081">
        <ele>463</ele>
        <time>2022-05-01T09:48:06Z</time>
      </trkpt>
      <trkpt lat="45.23263" lon="4.65104">
        <ele>462.60000610352</ele>
        <time>2022-05-01T09:48:20Z</time>
      </trkpt>
      <trkpt lat="45.23309" lon="4.65135">
        <ele>463</ele>
        <time>2022-05-01T09:48:30Z</time>
      </trkpt>
      <trkpt lat="45.2332" lon="4.65146">
        <ele>463.20001220703</ele>
        <time>2022-05-01T09:48:33Z</time>
      </trkpt>
      <trkpt lat="45.23327" lon="4.65155">
        <ele>463</ele>
        <time>2022-05-01T09:48:35Z</time>
      </trkpt>
      <trkpt lat="45.23341" lon="4.65181">
        <ele>463.20001220703</ele>
        <time>2022-05-01T09:48:40Z</time>
      </trkpt>
      <trkpt lat="45.23378" lon="4.65216">
        <ele>464.60000610352</ele>
        <time>2022-05-01T09:48:51Z</time>
      </trkpt>
      <trkpt lat="45.23398" lon="4.65241">
        <ele>465</ele>
        <time>2022-05-01T09:48:57Z</time>
      </trkpt>
      <trkpt lat="45.23424" lon="4.65277">
        <ele>466.39999389648</ele>
        <time>2022-05-01T09:49:06Z</time>
      </trkpt>
      <trkpt lat="45.23448" lon="4.65288">
        <ele>467.60000610352</ele>
        <time>2022-05-01T09:49:16Z</time>
      </trkpt>
      <trkpt lat="45.23486" lon="4.65294">
        <ele>467.79998779297</ele>
        <time>2022-05-01T09:49:23Z</time>
      </trkpt>
      <trkpt lat="45.23517" lon="4.65286">
        <ele>467</ele>
        <time>2022-05-01T09:49:28Z</time>
      </trkpt>
      <trkpt lat="45.2353" lon="4.6528">
        <ele>466.20001220703</ele>
        <time>2022-05-01T09:49:30Z</time>
      </trkpt>
      <trkpt lat="45.23559" lon="4.65277">
        <ele>464</ele>
        <time>2022-05-01T09:49:34Z</time>
      </trkpt>
      <trkpt lat="45.23582" lon="4.6528">
        <ele>463.39999389648</ele>
        <time>2022-05-01T09:49:37Z</time>
      </trkpt>
      <trkpt lat="45.2363" lon="4.65273">
        <ele>460.20001220703</ele>
        <time>2022-05-01T09:49:44Z</time>
      </trkpt>
      <trkpt lat="45.23632" lon="4.65272">
        <ele>459.79998779297</ele>
        <time>2022-05-01T09:49:46Z</time>
      </trkpt>
      <trkpt lat="45.2363" lon="4.65272">
        <ele>457.20001220703</ele>
        <time>2022-05-01T09:50:02Z</time>
      </trkpt>
      <trkpt lat="45.2363" lon="4.65272">
        <ele>457.20001220703</ele>
        <time>2022-05-01T09:50:05Z</time>
      </trkpt>
      <trkpt lat="45.23635" lon="4.65295">
        <ele>457.39999389648</ele>
        <time>2022-05-01T09:50:10Z</time>
      </trkpt>
      <trkpt lat="45.23639" lon="4.65318">
        <ele>457.20001220703</ele>
        <time>2022-05-01T09:50:13Z</time>
      </trkpt>
      <trkpt lat="45.23635" lon="4.65386">
        <ele>455.60000610352</ele>
        <time>2022-05-01T09:50:22Z</time>
      </trkpt>
      <trkpt lat="45.23627" lon="4.65468">
        <ele>454.39999389648</ele>
        <time>2022-05-01T09:50:31Z</time>
      </trkpt>
      <trkpt lat="45.23625" lon="4.65478">
        <ele>454.39999389648</ele>
        <time>2022-05-01T09:50:32Z</time>
      </trkpt>
      <trkpt lat="45.23634" lon="4.65531">
        <ele>451.39999389648</ele>
        <time>2022-05-01T09:50:39Z</time>
      </trkpt>
      <trkpt lat="45.23631" lon="4.65559">
        <ele>448.79998779297</ele>
        <time>2022-05-01T09:50:43Z</time>
      </trkpt>
      <trkpt lat="45.23631" lon="4.65581">
        <ele>445.79998779297</ele>
        <time>2022-05-01T09:50:47Z</time>
      </trkpt>
      <trkpt lat="45.23636" lon="4.65585">
        <ele>445</ele>
        <time>2022-05-01T09:50:49Z</time>
      </trkpt>
      <trkpt lat="45.23649" lon="4.65587">
        <ele>442.39999389648</ele>
        <time>2022-05-01T09:50:52Z</time>
      </trkpt>
      <trkpt lat="45.23682" lon="4.65588">
        <ele>440</ele>
        <time>2022-05-01T09:50:58Z</time>
      </trkpt>
      <trkpt lat="45.23703" lon="4.65588">
        <ele>439.20001220703</ele>
        <time>2022-05-01T09:51:02Z</time>
      </trkpt>
      <trkpt lat="45.23721" lon="4.65595">
        <ele>439</ele>
        <time>2022-05-01T09:51:05Z</time>
      </trkpt>
      <trkpt lat="45.23732" lon="4.65601">
        <ele>438.60000610352</ele>
        <time>2022-05-01T09:51:07Z</time>
      </trkpt>
      <trkpt lat="45.23761" lon="4.65601">
        <ele>435.20001220703</ele>
        <time>2022-05-01T09:51:12Z</time>
      </trkpt>
      <trkpt lat="45.23792" lon="4.65591">
        <ele>430.60000610352</ele>
        <time>2022-05-01T09:51:17Z</time>
      </trkpt>
      <trkpt lat="45.23812" lon="4.65588">
        <ele>429.20001220703</ele>
        <time>2022-05-01T09:51:20Z</time>
      </trkpt>
      <trkpt lat="45.23833" lon="4.65583">
        <ele>428.39999389648</ele>
        <time>2022-05-01T09:51:23Z</time>
      </trkpt>
      <trkpt lat="45.2384" lon="4.65581">
        <ele>427.79998779297</ele>
        <time>2022-05-01T09:51:24Z</time>
      </trkpt>
      <trkpt lat="45.23859" lon="4.65572">
        <ele>425.60000610352</ele>
        <time>2022-05-01T09:51:28Z</time>
      </trkpt>
      <trkpt lat="45.23864" lon="4.65577">
        <ele>424.39999389648</ele>
        <time>2022-05-01T09:51:30Z</time>
      </trkpt>
      <trkpt lat="45.23862" lon="4.65593">
        <ele>420.79998779297</ele>
        <time>2022-05-01T09:51:36Z</time>
      </trkpt>
      <trkpt lat="45.23862" lon="4.65585">
        <ele>420.60000610352</ele>
        <time>2022-05-01T09:52:24Z</time>
      </trkpt>
      <trkpt lat="45.23863" lon="4.65584">
        <ele>420.60000610352</ele>
        <time>2022-05-01T09:52:27Z</time>
      </trkpt>
      <trkpt lat="45.23888" lon="4.65582">
        <ele>418.39999389648</ele>
        <time>2022-05-01T09:52:37Z</time>
      </trkpt>
      <trkpt lat="45.23894" lon="4.65583">
        <ele>416.60000610352</ele>
        <time>2022-05-01T09:52:40Z</time>
      </trkpt>
      <trkpt lat="45.23902" lon="4.65583">
        <ele>413.60000610352</ele>
        <time>2022-05-01T09:52:45Z</time>
      </trkpt>
      <trkpt lat="45.23905" lon="4.65582">
        <ele>410.39999389648</ele>
        <time>2022-05-01T09:52:50Z</time>
      </trkpt>
      <trkpt lat="45.23907" lon="4.65581">
        <ele>407.79998779297</ele>
        <time>2022-05-01T09:53:03Z</time>
      </trkpt>
      <trkpt lat="45.23909" lon="4.65579">
        <ele>404.60000610352</ele>
        <time>2022-05-01T09:53:18Z</time>
      </trkpt>
      <trkpt lat="45.2391" lon="4.65579">
        <ele>404.20001220703</ele>
        <time>2022-05-01T09:53:21Z</time>
      </trkpt>
      <trkpt lat="45.23915" lon="4.65585">
        <ele>402.79998779297</ele>
        <time>2022-05-01T09:53:25Z</time>
      </trkpt>
      <trkpt lat="45.23916" lon="4.65587">
        <ele>402.39999389648</ele>
        <time>2022-05-01T09:53:26Z</time>
      </trkpt>
      <trkpt lat="45.23918" lon="4.65613">
        <ele>400.79998779297</ele>
        <time>2022-05-01T09:53:32Z</time>
      </trkpt>
      <trkpt lat="45.23907" lon="4.65659">
        <ele>399</ele>
        <time>2022-05-01T09:53:40Z</time>
      </trkpt>
      <trkpt lat="45.23905" lon="4.65666">
        <ele>398.20001220703</ele>
        <time>2022-05-01T09:53:41Z</time>
      </trkpt>
      <trkpt lat="45.23903" lon="4.65671">
        <ele>398.20001220703</ele>
        <time>2022-05-01T09:53:42Z</time>
      </trkpt>
      <trkpt lat="45.23883" lon="4.65689">
        <ele>396.20001220703</ele>
        <time>2022-05-01T09:53:46Z</time>
      </trkpt>
      <trkpt lat="45.23877" lon="4.65693">
        <ele>395.20001220703</ele>
        <time>2022-05-01T09:53:47Z</time>
      </trkpt>
      <trkpt lat="45.23836" lon="4.65705">
        <ele>392</ele>
        <time>2022-05-01T09:53:54Z</time>
      </trkpt>
      <trkpt lat="45.2383" lon="4.65708">
        <ele>391.79998779297</ele>
        <time>2022-05-01T09:53:55Z</time>
      </trkpt>
      <trkpt lat="45.23814" lon="4.65713">
        <ele>389.60000610352</ele>
        <time>2022-05-01T09:53:59Z</time>
      </trkpt>
      <trkpt lat="45.23798" lon="4.65716">
        <ele>388.20001220703</ele>
        <time>2022-05-01T09:54:02Z</time>
      </trkpt>
      <trkpt lat="45.23793" lon="4.65716">
        <ele>387.60000610352</ele>
        <time>2022-05-01T09:54:03Z</time>
      </trkpt>
      <trkpt lat="45.23785" lon="4.65719">
        <ele>386.79998779297</ele>
        <time>2022-05-01T09:54:05Z</time>
      </trkpt>
      <trkpt lat="45.23767" lon="4.65723">
        <ele>383.79998779297</ele>
        <time>2022-05-01T09:54:08Z</time>
      </trkpt>
      <trkpt lat="45.23767" lon="4.65732">
        <ele>381.60000610352</ele>
        <time>2022-05-01T09:54:12Z</time>
      </trkpt>
      <trkpt lat="45.23807" lon="4.6574">
        <ele>379.60000610352</ele>
        <time>2022-05-01T09:54:20Z</time>
      </trkpt>
      <trkpt lat="45.23814" lon="4.65742">
        <ele>379.39999389648</ele>
        <time>2022-05-01T09:54:21Z</time>
      </trkpt>
      <trkpt lat="45.23831" lon="4.65746">
        <ele>377.60000610352</ele>
        <time>2022-05-01T09:54:24Z</time>
      </trkpt>
      <trkpt lat="45.23857" lon="4.6576">
        <ele>374.20001220703</ele>
        <time>2022-05-01T09:54:29Z</time>
      </trkpt>
      <trkpt lat="45.23861" lon="4.65763">
        <ele>374</ele>
        <time>2022-05-01T09:54:30Z</time>
      </trkpt>
      <trkpt lat="45.23877" lon="4.65772">
        <ele>372.79998779297</ele>
        <time>2022-05-01T09:54:33Z</time>
      </trkpt>
      <trkpt lat="45.23883" lon="4.65775">
        <ele>372.39999389648</ele>
        <time>2022-05-01T09:54:34Z</time>
      </trkpt>
      <trkpt lat="45.23899" lon="4.65786">
        <ele>370.39999389648</ele>
        <time>2022-05-01T09:54:37Z</time>
      </trkpt>
      <trkpt lat="45.23907" lon="4.65785">
        <ele>369.60000610352</ele>
        <time>2022-05-01T09:54:39Z</time>
      </trkpt>
      <trkpt lat="45.23912" lon="4.65776">
        <ele>368.79998779297</ele>
        <time>2022-05-01T09:54:41Z</time>
      </trkpt>
      <trkpt lat="45.23925" lon="4.65761">
        <ele>368</ele>
        <time>2022-05-01T09:54:44Z</time>
      </trkpt>
      <trkpt lat="45.2395" lon="4.65739">
        <ele>364.60000610352</ele>
        <time>2022-05-01T09:54:50Z</time>
      </trkpt>
      <trkpt lat="45.23967" lon="4.65734">
        <ele>362.79998779297</ele>
        <time>2022-05-01T09:54:53Z</time>
      </trkpt>
      <trkpt lat="45.24002" lon="4.65728">
        <ele>360.60000610352</ele>
        <time>2022-05-01T09:54:58Z</time>
      </trkpt>
      <trkpt lat="45.24031" lon="4.6571">
        <ele>358.20001220703</ele>
        <time>2022-05-01T09:55:04Z</time>
      </trkpt>
      <trkpt lat="45.24034" lon="4.65706">
        <ele>357.79998779297</ele>
        <time>2022-05-01T09:55:05Z</time>
      </trkpt>
      <trkpt lat="45.24054" lon="4.65698">
        <ele>355.20001220703</ele>
        <time>2022-05-01T09:55:09Z</time>
      </trkpt>
      <trkpt lat="45.2407" lon="4.65687">
        <ele>353.60000610352</ele>
        <time>2022-05-01T09:55:12Z</time>
      </trkpt>
      <trkpt lat="45.24075" lon="4.65682">
        <ele>352.60000610352</ele>
        <time>2022-05-01T09:55:13Z</time>
      </trkpt>
      <trkpt lat="45.24079" lon="4.65679">
        <ele>352.20001220703</ele>
        <time>2022-05-01T09:55:14Z</time>
      </trkpt>
      <trkpt lat="45.24092" lon="4.65677">
        <ele>349</ele>
        <time>2022-05-01T09:55:18Z</time>
      </trkpt>
      <trkpt lat="45.24094" lon="4.6569">
        <ele>346.60000610352</ele>
        <time>2022-05-01T09:55:25Z</time>
      </trkpt>
      <trkpt lat="45.24105" lon="4.65684">
        <ele>345.79998779297</ele>
        <time>2022-05-01T09:55:27Z</time>
      </trkpt>
      <trkpt lat="45.24111" lon="4.6568">
        <ele>345.60000610352</ele>
        <time>2022-05-01T09:55:28Z</time>
      </trkpt>
      <trkpt lat="45.24117" lon="4.65676">
        <ele>345.39999389648</ele>
        <time>2022-05-01T09:55:29Z</time>
      </trkpt>
      <trkpt lat="45.24158" lon="4.65667">
        <ele>343.20001220703</ele>
        <time>2022-05-01T09:55:34Z</time>
      </trkpt>
      <trkpt lat="45.24182" lon="4.65664">
        <ele>341.39999389648</ele>
        <time>2022-05-01T09:55:37Z</time>
      </trkpt>
      <trkpt lat="45.24207" lon="4.65687">
        <ele>340.39999389648</ele>
        <time>2022-05-01T09:55:43Z</time>
      </trkpt>
      <trkpt lat="45.24208" lon="4.65692">
        <ele>340.39999389648</ele>
        <time>2022-05-01T09:55:44Z</time>
      </trkpt>
      <trkpt lat="45.24206" lon="4.65718">
        <ele>343.20001220703</ele>
        <time>2022-05-01T09:55:51Z</time>
      </trkpt>
      <trkpt lat="45.24197" lon="4.65743">
        <ele>344.79998779297</ele>
        <time>2022-05-01T09:55:59Z</time>
      </trkpt>
      <trkpt lat="45.24184" lon="4.65766">
        <ele>346.39999389648</ele>
        <time>2022-05-01T09:56:06Z</time>
      </trkpt>
      <trkpt lat="45.24175" lon="4.65779">
        <ele>346.60000610352</ele>
        <time>2022-05-01T09:56:09Z</time>
      </trkpt>
      <trkpt lat="45.24141" lon="4.65825">
        <ele>346.60000610352</ele>
        <time>2022-05-01T09:56:19Z</time>
      </trkpt>
      <trkpt lat="45.24133" lon="4.65834">
        <ele>346.60000610352</ele>
        <time>2022-05-01T09:56:21Z</time>
      </trkpt>
      <trkpt lat="45.24118" lon="4.65853">
        <ele>347</ele>
        <time>2022-05-01T09:56:26Z</time>
      </trkpt>
      <trkpt lat="45.24114" lon="4.65858">
        <ele>347.20001220703</ele>
        <time>2022-05-01T09:56:27Z</time>
      </trkpt>
      <trkpt lat="45.24092" lon="4.65885">
        <ele>347.79998779297</ele>
        <time>2022-05-01T09:56:33Z</time>
      </trkpt>
      <trkpt lat="45.24044" lon="4.65904">
        <ele>349.60000610352</ele>
        <time>2022-05-01T09:56:47Z</time>
      </trkpt>
      <trkpt lat="45.24005" lon="4.6591">
        <ele>350.79998779297</ele>
        <time>2022-05-01T09:56:57Z</time>
      </trkpt>
      <trkpt lat="45.23993" lon="4.65916">
        <ele>351.20001220703</ele>
        <time>2022-05-01T09:57:00Z</time>
      </trkpt>
      <trkpt lat="45.2397" lon="4.6595">
        <ele>352.20001220703</ele>
        <time>2022-05-01T09:57:08Z</time>
      </trkpt>
      <trkpt lat="45.23956" lon="4.65975">
        <ele>353</ele>
        <time>2022-05-01T09:57:14Z</time>
      </trkpt>
      <trkpt lat="45.23954" lon="4.6598">
        <ele>353.39999389648</ele>
        <time>2022-05-01T09:57:15Z</time>
      </trkpt>
      <trkpt lat="45.23945" lon="4.65994">
        <ele>353.60000610352</ele>
        <time>2022-05-01T09:57:18Z</time>
      </trkpt>
      <trkpt lat="45.23932" lon="4.6601">
        <ele>354.60000610352</ele>
        <time>2022-05-01T09:57:22Z</time>
      </trkpt>
      <trkpt lat="45.23926" lon="4.66043">
        <ele>355.60000610352</ele>
        <time>2022-05-01T09:57:28Z</time>
      </trkpt>
      <trkpt lat="45.23925" lon="4.66053">
        <ele>356</ele>
        <time>2022-05-01T09:57:30Z</time>
      </trkpt>
      <trkpt lat="45.23928" lon="4.66069">
        <ele>356.60000610352</ele>
        <time>2022-05-01T09:57:33Z</time>
      </trkpt>
      <trkpt lat="45.2393" lon="4.66081">
        <ele>357</ele>
        <time>2022-05-01T09:57:35Z</time>
      </trkpt>
      <trkpt lat="45.23937" lon="4.66147">
        <ele>358.39999389648</ele>
        <time>2022-05-01T09:57:46Z</time>
      </trkpt>
      <trkpt lat="45.23937" lon="4.66153">
        <ele>358.60000610352</ele>
        <time>2022-05-01T09:57:47Z</time>
      </trkpt>
      <trkpt lat="45.23942" lon="4.66177">
        <ele>358.79998779297</ele>
        <time>2022-05-01T09:57:51Z</time>
      </trkpt>
      <trkpt lat="45.23949" lon="4.66208">
        <ele>359.39999389648</ele>
        <time>2022-05-01T09:57:56Z</time>
      </trkpt>
      <trkpt lat="45.23951" lon="4.6622">
        <ele>359.60000610352</ele>
        <time>2022-05-01T09:57:58Z</time>
      </trkpt>
      <trkpt lat="45.23952" lon="4.66232">
        <ele>359.60000610352</ele>
        <time>2022-05-01T09:58:00Z</time>
      </trkpt>
      <trkpt lat="45.23955" lon="4.66251">
        <ele>359.79998779297</ele>
        <time>2022-05-01T09:58:03Z</time>
      </trkpt>
      <trkpt lat="45.23956" lon="4.66269">
        <ele>359.79998779297</ele>
        <time>2022-05-01T09:58:06Z</time>
      </trkpt>
      <trkpt lat="45.23961" lon="4.66305">
        <ele>360.20001220703</ele>
        <time>2022-05-01T09:58:12Z</time>
      </trkpt>
      <trkpt lat="45.23963" lon="4.66318">
        <ele>360.60000610352</ele>
        <time>2022-05-01T09:58:14Z</time>
      </trkpt>
      <trkpt lat="45.23975" lon="4.6639">
        <ele>362.20001220703</ele>
        <time>2022-05-01T09:58:25Z</time>
      </trkpt>
      <trkpt lat="45.23975" lon="4.66397">
        <ele>362.39999389648</ele>
        <time>2022-05-01T09:58:26Z</time>
      </trkpt>
      <trkpt lat="45.23975" lon="4.6641">
        <ele>362.39999389648</ele>
        <time>2022-05-01T09:58:28Z</time>
      </trkpt>
      <trkpt lat="45.23978" lon="4.66438">
        <ele>363</ele>
        <time>2022-05-01T09:58:32Z</time>
      </trkpt>
      <trkpt lat="45.2398" lon="4.66465">
        <ele>363.39999389648</ele>
        <time>2022-05-01T09:58:36Z</time>
      </trkpt>
      <trkpt lat="45.23982" lon="4.66479">
        <ele>363.39999389648</ele>
        <time>2022-05-01T09:58:38Z</time>
      </trkpt>
      <trkpt lat="45.23985" lon="4.66501">
        <ele>363.60000610352</ele>
        <time>2022-05-01T09:58:41Z</time>
      </trkpt>
      <trkpt lat="45.23989" lon="4.66531">
        <ele>363.60000610352</ele>
        <time>2022-05-01T09:58:45Z</time>
      </trkpt>
      <trkpt lat="45.23989" lon="4.66545">
        <ele>363.60000610352</ele>
        <time>2022-05-01T09:58:47Z</time>
      </trkpt>
      <trkpt lat="45.23989" lon="4.66553">
        <ele>363.79998779297</ele>
        <time>2022-05-01T09:58:48Z</time>
      </trkpt>
      <trkpt lat="45.24003" lon="4.66585">
        <ele>363.79998779297</ele>
        <time>2022-05-01T09:58:53Z</time>
      </trkpt>
      <trkpt lat="45.2401" lon="4.66594">
        <ele>363.79998779297</ele>
        <time>2022-05-01T09:58:55Z</time>
      </trkpt>
      <trkpt lat="45.24032" lon="4.66622">
        <ele>364.60000610352</ele>
        <time>2022-05-01T09:59:01Z</time>
      </trkpt>
      <trkpt lat="45.2404" lon="4.66635">
        <ele>365</ele>
        <time>2022-05-01T09:59:04Z</time>
      </trkpt>
      <trkpt lat="45.24072" lon="4.66677">
        <ele>367.60000610352</ele>
        <time>2022-05-01T09:59:16Z</time>
      </trkpt>
      <trkpt lat="45.24085" lon="4.66691">
        <ele>369.20001220703</ele>
        <time>2022-05-01T09:59:22Z</time>
      </trkpt>
      <trkpt lat="45.24072" lon="4.66704">
        <ele>370</ele>
        <time>2022-05-01T09:59:28Z</time>
      </trkpt>
      <trkpt lat="45.2408" lon="4.66724">
        <ele>370.20001220703</ele>
        <time>2022-05-01T09:59:32Z</time>
      </trkpt>
      <trkpt lat="45.24082" lon="4.6673">
        <ele>370.20001220703</ele>
        <time>2022-05-01T09:59:33Z</time>
      </trkpt>
      <trkpt lat="45.24076" lon="4.66763">
        <ele>370.20001220703</ele>
        <time>2022-05-01T09:59:38Z</time>
      </trkpt>
      <trkpt lat="45.24068" lon="4.66798">
        <ele>369.79998779297</ele>
        <time>2022-05-01T09:59:45Z</time>
      </trkpt>
      <trkpt lat="45.24066" lon="4.66802">
        <ele>369.79998779297</ele>
        <time>2022-05-01T09:59:46Z</time>
      </trkpt>
      <trkpt lat="45.24045" lon="4.66807">
        <ele>369.20001220703</ele>
        <time>2022-05-01T09:59:51Z</time>
      </trkpt>
      <trkpt lat="45.24038" lon="4.66804">
        <ele>368</ele>
        <time>2022-05-01T09:59:54Z</time>
      </trkpt>
      <trkpt lat="45.24042" lon="4.66833">
        <ele>365.60000610352</ele>
        <time>2022-05-01T10:00:01Z</time>
      </trkpt>
      <trkpt lat="45.24036" lon="4.66868">
        <ele>365.60000610352</ele>
        <time>2022-05-01T10:00:06Z</time>
      </trkpt>
      <trkpt lat="45.24034" lon="4.66883">
        <ele>365.60000610352</ele>
        <time>2022-05-01T10:00:08Z</time>
      </trkpt>
      <trkpt lat="45.24011" lon="4.66928">
        <ele>364.60000610352</ele>
        <time>2022-05-01T10:00:14Z</time>
      </trkpt>
      <trkpt lat="45.24007" lon="4.66938">
        <ele>364.20001220703</ele>
        <time>2022-05-01T10:00:16Z</time>
      </trkpt>
      <trkpt lat="45.24008" lon="4.66947">
        <ele>362.39999389648</ele>
        <time>2022-05-01T10:00:18Z</time>
      </trkpt>
      <trkpt lat="45.24019" lon="4.66963">
        <ele>360.60000610352</ele>
        <time>2022-05-01T10:00:22Z</time>
      </trkpt>
      <trkpt lat="45.23996" lon="4.66986">
        <ele>354.60000610352</ele>
        <time>2022-05-01T10:00:34Z</time>
      </trkpt>
      <trkpt lat="45.23982" lon="4.67015">
        <ele>353.39999389648</ele>
        <time>2022-05-01T10:00:39Z</time>
      </trkpt>
      <trkpt lat="45.2398" lon="4.67056">
        <ele>352.39999389648</ele>
        <time>2022-05-01T10:00:44Z</time>
      </trkpt>
      <trkpt lat="45.23961" lon="4.67082">
        <ele>348.79998779297</ele>
        <time>2022-05-01T10:00:50Z</time>
      </trkpt>
      <trkpt lat="45.23957" lon="4.67094">
        <ele>347.79998779297</ele>
        <time>2022-05-01T10:00:52Z</time>
      </trkpt>
      <trkpt lat="45.23955" lon="4.67099">
        <ele>347.20001220703</ele>
        <time>2022-05-01T10:00:53Z</time>
      </trkpt>
      <trkpt lat="45.23966" lon="4.67122">
        <ele>343.60000610352</ele>
        <time>2022-05-01T10:00:57Z</time>
      </trkpt>
      <trkpt lat="45.23988" lon="4.6712">
        <ele>340.60000610352</ele>
        <time>2022-05-01T10:01:01Z</time>
      </trkpt>
      <trkpt lat="45.23993" lon="4.6712">
        <ele>340.39999389648</ele>
        <time>2022-05-01T10:01:02Z</time>
      </trkpt>
      <trkpt lat="45.24004" lon="4.6712">
        <ele>339.79998779297</ele>
        <time>2022-05-01T10:01:05Z</time>
      </trkpt>
      <trkpt lat="45.24015" lon="4.67138">
        <ele>339.39999389648</ele>
        <time>2022-05-01T10:01:10Z</time>
      </trkpt>
      <trkpt lat="45.24045" lon="4.67125">
        <ele>338.60000610352</ele>
        <time>2022-05-01T10:01:13Z</time>
      </trkpt>
      <trkpt lat="45.24053" lon="4.67118">
        <ele>338.20001220703</ele>
        <time>2022-05-01T10:01:14Z</time>
      </trkpt>
      <trkpt lat="45.2408" lon="4.67121">
        <ele>334.20001220703</ele>
        <time>2022-05-01T10:01:18Z</time>
      </trkpt>
      <trkpt lat="45.24083" lon="4.67126">
        <ele>333.20001220703</ele>
        <time>2022-05-01T10:01:19Z</time>
      </trkpt>
      <trkpt lat="45.24088" lon="4.67138">
        <ele>330.79998779297</ele>
        <time>2022-05-01T10:01:22Z</time>
      </trkpt>
      <trkpt lat="45.24092" lon="4.6714">
        <ele>330.60000610352</ele>
        <time>2022-05-01T10:01:23Z</time>
      </trkpt>
      <trkpt lat="45.24092" lon="4.67141">
        <ele>330.20001220703</ele>
        <time>2022-05-01T10:01:24Z</time>
      </trkpt>
      <trkpt lat="45.24081" lon="4.67147">
        <ele>329.60000610352</ele>
        <time>2022-05-01T10:01:27Z</time>
      </trkpt>
      <trkpt lat="45.24044" lon="4.67175">
        <ele>328.60000610352</ele>
        <time>2022-05-01T10:01:32Z</time>
      </trkpt>
      <trkpt lat="45.24017" lon="4.67201">
        <ele>328</ele>
        <time>2022-05-01T10:01:36Z</time>
      </trkpt>
      <trkpt lat="45.24004" lon="4.67214">
        <ele>327.79998779297</ele>
        <time>2022-05-01T10:01:39Z</time>
      </trkpt>
      <trkpt lat="45.24001" lon="4.67219">
        <ele>327.60000610352</ele>
        <time>2022-05-01T10:01:43Z</time>
      </trkpt>
      <trkpt lat="45.23999" lon="4.67221">
        <ele>327.39999389648</ele>
        <time>2022-05-01T10:01:45Z</time>
      </trkpt>
      <trkpt lat="45.24004" lon="4.67228">
        <ele>327.60000610352</ele>
        <time>2022-05-01T10:01:49Z</time>
      </trkpt>
      <trkpt lat="45.24002" lon="4.67237">
        <ele>328.20001220703</ele>
        <time>2022-05-01T10:01:54Z</time>
      </trkpt>
      <trkpt lat="45.23985" lon="4.67258">
        <ele>327.60000610352</ele>
        <time>2022-05-01T10:02:00Z</time>
      </trkpt>
      <trkpt lat="45.23969" lon="4.67261">
        <ele>326.20001220703</ele>
        <time>2022-05-01T10:02:10Z</time>
      </trkpt>
      <trkpt lat="45.23957" lon="4.67244">
        <ele>325.79998779297</ele>
        <time>2022-05-01T10:02:15Z</time>
      </trkpt>
      <trkpt lat="45.23954" lon="4.67239">
        <ele>325.60000610352</ele>
        <time>2022-05-01T10:02:22Z</time>
      </trkpt>
      <trkpt lat="45.2401" lon="4.67358">
        <ele>331.60000610352</ele>
        <time>2022-05-01T10:03:12Z</time>
      </trkpt>
      <trkpt lat="45.24009" lon="4.67361">
        <ele>331.79998779297</ele>
        <time>2022-05-01T10:03:13Z</time>
      </trkpt>
      <trkpt lat="45.24009" lon="4.67362">
        <ele>331.79998779297</ele>
        <time>2022-05-01T10:03:14Z</time>
      </trkpt>
      <trkpt lat="45.2402" lon="4.67377">
        <ele>333.20001220703</ele>
        <time>2022-05-01T10:03:23Z</time>
      </trkpt>
      <trkpt lat="45.24026" lon="4.67383">
        <ele>334.60000610352</ele>
        <time>2022-05-01T10:03:28Z</time>
      </trkpt>
      <trkpt lat="45.24028" lon="4.67386">
        <ele>335.20001220703</ele>
        <time>2022-05-01T10:03:30Z</time>
      </trkpt>
      <trkpt lat="45.24031" lon="4.67393">
        <ele>336.60000610352</ele>
        <time>2022-05-01T10:03:35Z</time>
      </trkpt>
      <trkpt lat="45.2403" lon="4.67396">
        <ele>337.39999389648</ele>
        <time>2022-05-01T10:03:38Z</time>
      </trkpt>
      <trkpt lat="45.24028" lon="4.67386">
        <ele>338.60000610352</ele>
        <time>2022-05-01T10:03:43Z</time>
      </trkpt>
      <trkpt lat="45.2402" lon="4.67381">
        <ele>340</ele>
        <time>2022-05-01T10:03:50Z</time>
      </trkpt>
      <trkpt lat="45.24021" lon="4.67388">
        <ele>340.60000610352</ele>
        <time>2022-05-01T10:03:53Z</time>
      </trkpt>
      <trkpt lat="45.24021" lon="4.6739">
        <ele>340.79998779297</ele>
        <time>2022-05-01T10:03:54Z</time>
      </trkpt>
      <trkpt lat="45.24035" lon="4.67405">
        <ele>343.60000610352</ele>
        <time>2022-05-01T10:04:05Z</time>
      </trkpt>
      <trkpt lat="45.2404" lon="4.67408">
        <ele>344.20001220703</ele>
        <time>2022-05-01T10:04:09Z</time>
      </trkpt>
      <trkpt lat="45.24042" lon="4.67414">
        <ele>345</ele>
        <time>2022-05-01T10:04:17Z</time>
      </trkpt>
      <trkpt lat="45.24031" lon="4.67416">
        <ele>347.79998779297</ele>
        <time>2022-05-01T10:04:26Z</time>
      </trkpt>
      <trkpt lat="45.24017" lon="4.67409">
        <ele>350</ele>
        <time>2022-05-01T10:04:34Z</time>
      </trkpt>
      <trkpt lat="45.24017" lon="4.6741">
        <ele>350.20001220703</ele>
        <time>2022-05-01T10:04:35Z</time>
      </trkpt>
      <trkpt lat="45.24015" lon="4.67411">
        <ele>351</ele>
        <time>2022-05-01T10:04:39Z</time>
      </trkpt>
      <trkpt lat="45.24011" lon="4.67408">
        <ele>353.20001220703</ele>
        <time>2022-05-01T10:04:45Z</time>
      </trkpt>
      <trkpt lat="45.23997" lon="4.67413">
        <ele>355.20001220703</ele>
        <time>2022-05-01T10:04:51Z</time>
      </trkpt>
      <trkpt lat="45.23989" lon="4.67415">
        <ele>356.79998779297</ele>
        <time>2022-05-01T10:04:56Z</time>
      </trkpt>
      <trkpt lat="45.23987" lon="4.67419">
        <ele>357.39999389648</ele>
        <time>2022-05-01T10:04:59Z</time>
      </trkpt>
      <trkpt lat="45.2399" lon="4.67422">
        <ele>358</ele>
        <time>2022-05-01T10:05:01Z</time>
      </trkpt>
      <trkpt lat="45.23988" lon="4.67428">
        <ele>359.20001220703</ele>
        <time>2022-05-01T10:05:05Z</time>
      </trkpt>
      <trkpt lat="45.23983" lon="4.67439">
        <ele>360.20001220703</ele>
        <time>2022-05-01T10:05:10Z</time>
      </trkpt>
      <trkpt lat="45.23981" lon="4.6745">
        <ele>361.60000610352</ele>
        <time>2022-05-01T10:05:15Z</time>
      </trkpt>
      <trkpt lat="45.23976" lon="4.67478">
        <ele>362.79998779297</ele>
        <time>2022-05-01T10:05:25Z</time>
      </trkpt>
      <trkpt lat="45.23964" lon="4.67499">
        <ele>363.79998779297</ele>
        <time>2022-05-01T10:05:33Z</time>
      </trkpt>
      <trkpt lat="45.23941" lon="4.67512">
        <ele>364.39999389648</ele>
        <time>2022-05-01T10:05:40Z</time>
      </trkpt>
      <trkpt lat="45.23933" lon="4.67516">
        <ele>364.79998779297</ele>
        <time>2022-05-01T10:05:43Z</time>
      </trkpt>
      <trkpt lat="45.23919" lon="4.67535">
        <ele>365</ele>
        <time>2022-05-01T10:05:48Z</time>
      </trkpt>
      <trkpt lat="45.23883" lon="4.67575">
        <ele>367</ele>
        <time>2022-05-01T10:06:00Z</time>
      </trkpt>
      <trkpt lat="45.23873" lon="4.67589">
        <ele>368.20001220703</ele>
        <time>2022-05-01T10:06:04Z</time>
      </trkpt>
      <trkpt lat="45.23867" lon="4.67599">
        <ele>368.60000610352</ele>
        <time>2022-05-01T10:06:06Z</time>
      </trkpt>
      <trkpt lat="45.23851" lon="4.67629">
        <ele>368.79998779297</ele>
        <time>2022-05-01T10:06:10Z</time>
      </trkpt>
      <trkpt lat="45.23846" lon="4.67649">
        <ele>368.20001220703</ele>
        <time>2022-05-01T10:06:12Z</time>
      </trkpt>
      <trkpt lat="45.23858" lon="4.67671">
        <ele>364.20001220703</ele>
        <time>2022-05-01T10:06:16Z</time>
      </trkpt>
      <trkpt lat="45.2386" lon="4.67674">
        <ele>364</ele>
        <time>2022-05-01T10:06:17Z</time>
      </trkpt>
      <trkpt lat="45.23862" lon="4.67676">
        <ele>363.79998779297</ele>
        <time>2022-05-01T10:06:18Z</time>
      </trkpt>
      <trkpt lat="45.23864" lon="4.67677">
        <ele>363.79998779297</ele>
        <time>2022-05-01T10:06:19Z</time>
      </trkpt>
      <trkpt lat="45.23873" lon="4.67688">
        <ele>365.20001220703</ele>
        <time>2022-05-01T10:06:26Z</time>
      </trkpt>
      <trkpt lat="45.23885" lon="4.67696">
        <ele>368.79998779297</ele>
        <time>2022-05-01T10:06:34Z</time>
      </trkpt>
      <trkpt lat="45.23893" lon="4.67699">
        <ele>370</ele>
        <time>2022-05-01T10:06:39Z</time>
      </trkpt>
      <trkpt lat="45.23915" lon="4.67707">
        <ele>373.20001220703</ele>
        <time>2022-05-01T10:06:52Z</time>
      </trkpt>
      <trkpt lat="45.23936" lon="4.6772">
        <ele>375.79998779297</ele>
        <time>2022-05-01T10:07:06Z</time>
      </trkpt>
      <trkpt lat="45.23968" lon="4.67731">
        <ele>377.79998779297</ele>
        <time>2022-05-01T10:07:19Z</time>
      </trkpt>
      <trkpt lat="45.23996" lon="4.67772">
        <ele>379.39999389648</ele>
        <time>2022-05-01T10:07:33Z</time>
      </trkpt>
      <trkpt lat="45.24017" lon="4.67816">
        <ele>381</ele>
        <time>2022-05-01T10:07:48Z</time>
      </trkpt>
      <trkpt lat="45.24033" lon="4.67834">
        <ele>384.39999389648</ele>
        <time>2022-05-01T10:07:59Z</time>
      </trkpt>
      <trkpt lat="45.24055" lon="4.67854">
        <ele>387.20001220703</ele>
        <time>2022-05-01T10:08:13Z</time>
      </trkpt>
      <trkpt lat="45.24068" lon="4.67863">
        <ele>388.39999389648</ele>
        <time>2022-05-01T10:08:21Z</time>
      </trkpt>
      <trkpt lat="45.24063" lon="4.67879">
        <ele>388.60000610352</ele>
        <time>2022-05-01T10:08:25Z</time>
      </trkpt>
      <trkpt lat="45.24058" lon="4.67937">
        <ele>388.39999389648</ele>
        <time>2022-05-01T10:08:33Z</time>
      </trkpt>
      <trkpt lat="45.24056" lon="4.67955">
        <ele>388.20001220703</ele>
        <time>2022-05-01T10:08:35Z</time>
      </trkpt>
      <trkpt lat="45.24058" lon="4.68021">
        <ele>387.20001220703</ele>
        <time>2022-05-01T10:08:43Z</time>
      </trkpt>
      <trkpt lat="45.24057" lon="4.68069">
        <ele>387</ele>
        <time>2022-05-01T10:08:49Z</time>
      </trkpt>
      <trkpt lat="45.24048" lon="4.68143">
        <ele>387.20001220703</ele>
        <time>2022-05-01T10:08:59Z</time>
      </trkpt>
      <trkpt lat="45.24046" lon="4.68159">
        <ele>387.39999389648</ele>
        <time>2022-05-01T10:09:01Z</time>
      </trkpt>
      <trkpt lat="45.24042" lon="4.68194">
        <ele>387.79998779297</ele>
        <time>2022-05-01T10:09:06Z</time>
      </trkpt>
      <trkpt lat="45.24037" lon="4.68229">
        <ele>388.39999389648</ele>
        <time>2022-05-01T10:09:12Z</time>
      </trkpt>
      <trkpt lat="45.24035" lon="4.6824">
        <ele>389</ele>
        <time>2022-05-01T10:09:14Z</time>
      </trkpt>
      <trkpt lat="45.24026" lon="4.68294">
        <ele>391</ele>
        <time>2022-05-01T10:09:23Z</time>
      </trkpt>
      <trkpt lat="45.24024" lon="4.68306">
        <ele>391.60000610352</ele>
        <time>2022-05-01T10:09:25Z</time>
      </trkpt>
      <trkpt lat="45.24023" lon="4.68318">
        <ele>392.20001220703</ele>
        <time>2022-05-01T10:09:27Z</time>
      </trkpt>
      <trkpt lat="45.24023" lon="4.68331">
        <ele>392.60000610352</ele>
        <time>2022-05-01T10:09:29Z</time>
      </trkpt>
      <trkpt lat="45.24018" lon="4.68363">
        <ele>393.60000610352</ele>
        <time>2022-05-01T10:09:34Z</time>
      </trkpt>
      <trkpt lat="45.24011" lon="4.68399">
        <ele>394.39999389648</ele>
        <time>2022-05-01T10:09:39Z</time>
      </trkpt>
      <trkpt lat="45.24004" lon="4.68448">
        <ele>394.39999389648</ele>
        <time>2022-05-01T10:09:44Z</time>
      </trkpt>
      <trkpt lat="45.24003" lon="4.6847">
        <ele>394</ele>
        <time>2022-05-01T10:09:46Z</time>
      </trkpt>
      <trkpt lat="45.23997" lon="4.68502">
        <ele>393.20001220703</ele>
        <time>2022-05-01T10:09:49Z</time>
      </trkpt>
      <trkpt lat="45.23993" lon="4.6852">
        <ele>392.79998779297</ele>
        <time>2022-05-01T10:09:51Z</time>
      </trkpt>
      <trkpt lat="45.23961" lon="4.68519">
        <ele>391</ele>
        <time>2022-05-01T10:09:56Z</time>
      </trkpt>
      <trkpt lat="45.23933" lon="4.68464">
        <ele>389.39999389648</ele>
        <time>2022-05-01T10:10:02Z</time>
      </trkpt>
      <trkpt lat="45.23928" lon="4.68454">
        <ele>389.20001220703</ele>
        <time>2022-05-01T10:10:03Z</time>
      </trkpt>
      <trkpt lat="45.23896" lon="4.68373">
        <ele>386</ele>
        <time>2022-05-01T10:10:10Z</time>
      </trkpt>
      <trkpt lat="45.23881" lon="4.68341">
        <ele>384.60000610352</ele>
        <time>2022-05-01T10:10:13Z</time>
      </trkpt>
      <trkpt lat="45.23862" lon="4.683">
        <ele>382.39999389648</ele>
        <time>2022-05-01T10:10:17Z</time>
      </trkpt>
      <trkpt lat="45.23841" lon="4.68268">
        <ele>379.79998779297</ele>
        <time>2022-05-01T10:10:21Z</time>
      </trkpt>
      <trkpt lat="45.23822" lon="4.68249">
        <ele>375.79998779297</ele>
        <time>2022-05-01T10:10:25Z</time>
      </trkpt>
      <trkpt lat="45.23814" lon="4.6824">
        <ele>372.79998779297</ele>
        <time>2022-05-01T10:10:28Z</time>
      </trkpt>
      <trkpt lat="45.2381" lon="4.68229">
        <ele>371.39999389648</ele>
        <time>2022-05-01T10:10:31Z</time>
      </trkpt>
      <trkpt lat="45.23806" lon="4.68211">
        <ele>371.79998779297</ele>
        <time>2022-05-01T10:10:39Z</time>
      </trkpt>
      <trkpt lat="45.2379" lon="4.68243">
        <ele>373.39999389648</ele>
        <time>2022-05-01T10:10:50Z</time>
      </trkpt>
      <trkpt lat="45.23787" lon="4.68246">
        <ele>373.39999389648</ele>
        <time>2022-05-01T10:10:51Z</time>
      </trkpt>
      <trkpt lat="45.23753" lon="4.68306">
        <ele>374.39999389648</ele>
        <time>2022-05-01T10:11:07Z</time>
      </trkpt>
      <trkpt lat="45.2375" lon="4.68313">
        <ele>374.60000610352</ele>
        <time>2022-05-01T10:11:09Z</time>
      </trkpt>
      <trkpt lat="45.23738" lon="4.68341">
        <ele>375.20001220703</ele>
        <time>2022-05-01T10:11:15Z</time>
      </trkpt>
      <trkpt lat="45.23725" lon="4.68372">
        <ele>375.39999389648</ele>
        <time>2022-05-01T10:11:21Z</time>
      </trkpt>
      <trkpt lat="45.23721" lon="4.68383">
        <ele>375.39999389648</ele>
        <time>2022-05-01T10:11:23Z</time>
      </trkpt>
      <trkpt lat="45.23705" lon="4.68415">
        <ele>375.79998779297</ele>
        <time>2022-05-01T10:11:29Z</time>
      </trkpt>
      <trkpt lat="45.23689" lon="4.68432">
        <ele>376</ele>
        <time>2022-05-01T10:11:32Z</time>
      </trkpt>
      <trkpt lat="45.23685" lon="4.68437">
        <ele>376</ele>
        <time>2022-05-01T10:11:33Z</time>
      </trkpt>
      <trkpt lat="45.23672" lon="4.6847">
        <ele>377</ele>
        <time>2022-05-01T10:11:39Z</time>
      </trkpt>
      <trkpt lat="45.2365" lon="4.68511">
        <ele>378</ele>
        <time>2022-05-01T10:11:47Z</time>
      </trkpt>
      <trkpt lat="45.23637" lon="4.68542">
        <ele>379</ele>
        <time>2022-05-01T10:11:52Z</time>
      </trkpt>
      <trkpt lat="45.23634" lon="4.68548">
        <ele>379.20001220703</ele>
        <time>2022-05-01T10:11:53Z</time>
      </trkpt>
      <trkpt lat="45.23632" lon="4.68555">
        <ele>379.20001220703</ele>
        <time>2022-05-01T10:11:54Z</time>
      </trkpt>
      <trkpt lat="45.23629" lon="4.68567">
        <ele>379.39999389648</ele>
        <time>2022-05-01T10:11:56Z</time>
      </trkpt>
      <trkpt lat="45.23629" lon="4.68595">
        <ele>379.60000610352</ele>
        <time>2022-05-01T10:12:00Z</time>
      </trkpt>
      <trkpt lat="45.2363" lon="4.68603">
        <ele>379.60000610352</ele>
        <time>2022-05-01T10:12:01Z</time>
      </trkpt>
      <trkpt lat="45.23617" lon="4.68648">
        <ele>379.79998779297</ele>
        <time>2022-05-01T10:12:07Z</time>
      </trkpt>
      <trkpt lat="45.23612" lon="4.68655">
        <ele>379.79998779297</ele>
        <time>2022-05-01T10:12:08Z</time>
      </trkpt>
      <trkpt lat="45.23605" lon="4.6869">
        <ele>380.20001220703</ele>
        <time>2022-05-01T10:12:13Z</time>
      </trkpt>
      <trkpt lat="45.23602" lon="4.68697">
        <ele>380.20001220703</ele>
        <time>2022-05-01T10:12:14Z</time>
      </trkpt>
      <trkpt lat="45.23585" lon="4.68735">
        <ele>381</ele>
        <time>2022-05-01T10:12:20Z</time>
      </trkpt>
      <trkpt lat="45.23565" lon="4.68786">
        <ele>381.79998779297</ele>
        <time>2022-05-01T10:12:28Z</time>
      </trkpt>
      <trkpt lat="45.2355" lon="4.68833">
        <ele>382</ele>
        <time>2022-05-01T10:12:35Z</time>
      </trkpt>
      <trkpt lat="45.23542" lon="4.68876">
        <ele>382.20001220703</ele>
        <time>2022-05-01T10:12:43Z</time>
      </trkpt>
      <trkpt lat="45.23542" lon="4.68899">
        <ele>382.39999389648</ele>
        <time>2022-05-01T10:12:48Z</time>
      </trkpt>
      <trkpt lat="45.2353" lon="4.68921">
        <ele>382.39999389648</ele>
        <time>2022-05-01T10:12:56Z</time>
      </trkpt>
      <trkpt lat="45.23521" lon="4.68952">
        <ele>382</ele>
        <time>2022-05-01T10:13:02Z</time>
      </trkpt>
      <trkpt lat="45.23517" lon="4.68967">
        <ele>382.20001220703</ele>
        <time>2022-05-01T10:13:05Z</time>
      </trkpt>
      <trkpt lat="45.23491" lon="4.69038">
        <ele>383.60000610352</ele>
        <time>2022-05-01T10:13:18Z</time>
      </trkpt>
      <trkpt lat="45.23483" lon="4.69061">
        <ele>383.79998779297</ele>
        <time>2022-05-01T10:13:22Z</time>
      </trkpt>
      <trkpt lat="45.23476" lon="4.69069">
        <ele>384.20001220703</ele>
        <time>2022-05-01T10:13:23Z</time>
      </trkpt>
      <trkpt lat="45.23471" lon="4.69098">
        <ele>384.60000610352</ele>
        <time>2022-05-01T10:13:28Z</time>
      </trkpt>
      <trkpt lat="45.23448" lon="4.69132">
        <ele>385.39999389648</ele>
        <time>2022-05-01T10:13:34Z</time>
      </trkpt>
      <trkpt lat="45.23445" lon="4.69139">
        <ele>385.39999389648</ele>
        <time>2022-05-01T10:13:35Z</time>
      </trkpt>
      <trkpt lat="45.23414" lon="4.692">
        <ele>385.79998779297</ele>
        <time>2022-05-01T10:13:44Z</time>
      </trkpt>
      <trkpt lat="45.2339" lon="4.69244">
        <ele>386.20001220703</ele>
        <time>2022-05-01T10:13:51Z</time>
      </trkpt>
      <trkpt lat="45.2334" lon="4.69331">
        <ele>387.79998779297</ele>
        <time>2022-05-01T10:14:06Z</time>
      </trkpt>
      <trkpt lat="45.23329" lon="4.69356">
        <ele>388</ele>
        <time>2022-05-01T10:14:10Z</time>
      </trkpt>
      <trkpt lat="45.23281" lon="4.69483">
        <ele>389</ele>
        <time>2022-05-01T10:14:30Z</time>
      </trkpt>
      <trkpt lat="45.23264" lon="4.69541">
        <ele>389.39999389648</ele>
        <time>2022-05-01T10:14:39Z</time>
      </trkpt>
      <trkpt lat="45.23248" lon="4.69626">
        <ele>390.79998779297</ele>
        <time>2022-05-01T10:14:51Z</time>
      </trkpt>
      <trkpt lat="45.2325" lon="4.6969">
        <ele>392.20001220703</ele>
        <time>2022-05-01T10:15:00Z</time>
      </trkpt>
      <trkpt lat="45.23253" lon="4.69704">
        <ele>392.20001220703</ele>
        <time>2022-05-01T10:15:02Z</time>
      </trkpt>
      <trkpt lat="45.23255" lon="4.69718">
        <ele>392.20001220703</ele>
        <time>2022-05-01T10:15:04Z</time>
      </trkpt>
      <trkpt lat="45.23249" lon="4.69767">
        <ele>392.60000610352</ele>
        <time>2022-05-01T10:15:11Z</time>
      </trkpt>
      <trkpt lat="45.23251" lon="4.69803">
        <ele>393</ele>
        <time>2022-05-01T10:15:16Z</time>
      </trkpt>
      <trkpt lat="45.23252" lon="4.69839">
        <ele>393.60000610352</ele>
        <time>2022-05-01T10:15:21Z</time>
      </trkpt>
      <trkpt lat="45.23256" lon="4.69868">
        <ele>395.39999389648</ele>
        <time>2022-05-01T10:15:27Z</time>
      </trkpt>
      <trkpt lat="45.23254" lon="4.69885">
        <ele>396.60000610352</ele>
        <time>2022-05-01T10:15:32Z</time>
      </trkpt>
      <trkpt lat="45.23261" lon="4.69905">
        <ele>399.79998779297</ele>
        <time>2022-05-01T10:15:38Z</time>
      </trkpt>
      <trkpt lat="45.23264" lon="4.69916">
        <ele>401.20001220703</ele>
        <time>2022-05-01T10:15:43Z</time>
      </trkpt>
      <trkpt lat="45.23271" lon="4.69962">
        <ele>402.60000610352</ele>
        <time>2022-05-01T10:15:53Z</time>
      </trkpt>
      <trkpt lat="45.23293" lon="4.70028">
        <ele>399.60000610352</ele>
        <time>2022-05-01T10:15:58Z</time>
      </trkpt>
      <trkpt lat="45.2331" lon="4.70075">
        <ele>396.60000610352</ele>
        <time>2022-05-01T10:16:02Z</time>
      </trkpt>
      <trkpt lat="45.23342" lon="4.70165">
        <ele>394</ele>
        <time>2022-05-01T10:16:14Z</time>
      </trkpt>
      <trkpt lat="45.23359" lon="4.70213">
        <ele>394</ele>
        <time>2022-05-01T10:16:20Z</time>
      </trkpt>
      <trkpt lat="45.23382" lon="4.70335">
        <ele>394.39999389648</ele>
        <time>2022-05-01T10:16:34Z</time>
      </trkpt>
      <trkpt lat="45.23388" lon="4.70388">
        <ele>394.79998779297</ele>
        <time>2022-05-01T10:16:40Z</time>
      </trkpt>
      <trkpt lat="45.23389" lon="4.7046">
        <ele>394.79998779297</ele>
        <time>2022-05-01T10:16:48Z</time>
      </trkpt>
      <trkpt lat="45.23389" lon="4.70487">
        <ele>394.60000610352</ele>
        <time>2022-05-01T10:16:51Z</time>
      </trkpt>
      <trkpt lat="45.23382" lon="4.7056">
        <ele>394.39999389648</ele>
        <time>2022-05-01T10:17:00Z</time>
      </trkpt>
      <trkpt lat="45.2337" lon="4.70665">
        <ele>393.60000610352</ele>
        <time>2022-05-01T10:17:15Z</time>
      </trkpt>
      <trkpt lat="45.23368" lon="4.70678">
        <ele>393.60000610352</ele>
        <time>2022-05-01T10:17:18Z</time>
      </trkpt>
      <trkpt lat="45.23362" lon="4.70727">
        <ele>393.39999389648</ele>
        <time>2022-05-01T10:17:28Z</time>
      </trkpt>
      <trkpt lat="45.23354" lon="4.70749">
        <ele>391.79998779297</ele>
        <time>2022-05-01T10:17:39Z</time>
      </trkpt>
      <trkpt lat="45.23353" lon="4.70783">
        <ele>392</ele>
        <time>2022-05-01T10:17:45Z</time>
      </trkpt>
      <trkpt lat="45.23347" lon="4.70821">
        <ele>393.20001220703</ele>
        <time>2022-05-01T10:17:52Z</time>
      </trkpt>
      <trkpt lat="45.2334" lon="4.70866">
        <ele>395.20001220703</ele>
        <time>2022-05-01T10:18:00Z</time>
      </trkpt>
      <trkpt lat="45.23329" lon="4.70911">
        <ele>395.20001220703</ele>
        <time>2022-05-01T10:18:06Z</time>
      </trkpt>
      <trkpt lat="45.23327" lon="4.70926">
        <ele>395</ele>
        <time>2022-05-01T10:18:08Z</time>
      </trkpt>
      <trkpt lat="45.23313" lon="4.71017">
        <ele>393.79998779297</ele>
        <time>2022-05-01T10:18:20Z</time>
      </trkpt>
      <trkpt lat="45.23311" lon="4.71024">
        <ele>393.79998779297</ele>
        <time>2022-05-01T10:18:21Z</time>
      </trkpt>
      <trkpt lat="45.2331" lon="4.71031">
        <ele>393.79998779297</ele>
        <time>2022-05-01T10:18:22Z</time>
      </trkpt>
      <trkpt lat="45.2331" lon="4.71125">
        <ele>395.39999389648</ele>
        <time>2022-05-01T10:18:36Z</time>
      </trkpt>
      <trkpt lat="45.23314" lon="4.71153">
        <ele>395.79998779297</ele>
        <time>2022-05-01T10:18:40Z</time>
      </trkpt>
      <trkpt lat="45.23308" lon="4.71191">
        <ele>396.20001220703</ele>
        <time>2022-05-01T10:18:45Z</time>
      </trkpt>
      <trkpt lat="45.23298" lon="4.71236">
        <ele>396.60000610352</ele>
        <time>2022-05-01T10:18:50Z</time>
      </trkpt>
      <trkpt lat="45.23309" lon="4.71281">
        <ele>395.60000610352</ele>
        <time>2022-05-01T10:18:56Z</time>
      </trkpt>
      <trkpt lat="45.23309" lon="4.71288">
        <ele>395.60000610352</ele>
        <time>2022-05-01T10:18:57Z</time>
      </trkpt>
      <trkpt lat="45.23298" lon="4.71421">
        <ele>394.39999389648</ele>
        <time>2022-05-01T10:19:12Z</time>
      </trkpt>
      <trkpt lat="45.23271" lon="4.717">
        <ele>394.39999389648</ele>
        <time>2022-05-01T10:19:43Z</time>
      </trkpt>
      <trkpt lat="45.23262" lon="4.71799">
        <ele>394.20001220703</ele>
        <time>2022-05-01T10:19:54Z</time>
      </trkpt>
      <trkpt lat="45.23252" lon="4.71822">
        <ele>394.20001220703</ele>
        <time>2022-05-01T10:19:59Z</time>
      </trkpt>
      <trkpt lat="45.23245" lon="4.71895">
        <ele>396.20001220703</ele>
        <time>2022-05-01T10:20:09Z</time>
      </trkpt>
      <trkpt lat="45.23207" lon="4.72109">
        <ele>393.79998779297</ele>
        <time>2022-05-01T10:20:31Z</time>
      </trkpt>
      <trkpt lat="45.23204" lon="4.72118">
        <ele>393.60000610352</ele>
        <time>2022-05-01T10:20:32Z</time>
      </trkpt>
      <trkpt lat="45.23183" lon="4.72193">
        <ele>392.20001220703</ele>
        <time>2022-05-01T10:20:40Z</time>
      </trkpt>
      <trkpt lat="45.2314" lon="4.72243">
        <ele>391</ele>
        <time>2022-05-01T10:20:50Z</time>
      </trkpt>
      <trkpt lat="45.23129" lon="4.72236">
        <ele>391</ele>
        <time>2022-05-01T10:20:52Z</time>
      </trkpt>
      <trkpt lat="45.23073" lon="4.72192">
        <ele>392.79998779297</ele>
        <time>2022-05-01T10:21:03Z</time>
      </trkpt>
      <trkpt lat="45.23016" lon="4.72143">
        <ele>394.79998779297</ele>
        <time>2022-05-01T10:21:16Z</time>
      </trkpt>
      <trkpt lat="45.22966" lon="4.72094">
        <ele>396.60000610352</ele>
        <time>2022-05-01T10:21:28Z</time>
      </trkpt>
      <trkpt lat="45.2295" lon="4.72069">
        <ele>396.79998779297</ele>
        <time>2022-05-01T10:21:33Z</time>
      </trkpt>
      <trkpt lat="45.229" lon="4.72028">
        <ele>398.20001220703</ele>
        <time>2022-05-01T10:21:44Z</time>
      </trkpt>
      <trkpt lat="45.22772" lon="4.71941">
        <ele>398.60000610352</ele>
        <time>2022-05-01T10:22:05Z</time>
      </trkpt>
      <trkpt lat="45.22711" lon="4.71891">
        <ele>398.39999389648</ele>
        <time>2022-05-01T10:22:15Z</time>
      </trkpt>
      <trkpt lat="45.2268" lon="4.71869">
        <ele>398.60000610352</ele>
        <time>2022-05-01T10:22:21Z</time>
      </trkpt>
      <trkpt lat="45.22669" lon="4.71854">
        <ele>399</ele>
        <time>2022-05-01T10:22:24Z</time>
      </trkpt>
      <trkpt lat="45.22654" lon="4.71842">
        <ele>400.20001220703</ele>
        <time>2022-05-01T10:22:28Z</time>
      </trkpt>
      <trkpt lat="45.22634" lon="4.71832">
        <ele>401.60000610352</ele>
        <time>2022-05-01T10:22:33Z</time>
      </trkpt>
      <trkpt lat="45.22565" lon="4.71805">
        <ele>403.20001220703</ele>
        <time>2022-05-01T10:22:47Z</time>
      </trkpt>
      <trkpt lat="45.22553" lon="4.71798">
        <ele>403.60000610352</ele>
        <time>2022-05-01T10:22:50Z</time>
      </trkpt>
      <trkpt lat="45.22516" lon="4.71785">
        <ele>404</ele>
        <time>2022-05-01T10:22:57Z</time>
      </trkpt>
      <trkpt lat="45.22498" lon="4.71785">
        <ele>403.60000610352</ele>
        <time>2022-05-01T10:23:00Z</time>
      </trkpt>
      <trkpt lat="45.22471" lon="4.71809">
        <ele>403.20001220703</ele>
        <time>2022-05-01T10:23:06Z</time>
      </trkpt>
      <trkpt lat="45.22451" lon="4.71833">
        <ele>402.79998779297</ele>
        <time>2022-05-01T10:23:15Z</time>
      </trkpt>
      <trkpt lat="45.2245" lon="4.71837">
        <ele>402.60000610352</ele>
        <time>2022-05-01T10:23:16Z</time>
      </trkpt>
      <trkpt lat="45.22445" lon="4.71871">
        <ele>402.20001220703</ele>
        <time>2022-05-01T10:23:26Z</time>
      </trkpt>
      <trkpt lat="45.22444" lon="4.71877">
        <ele>402.20001220703</ele>
        <time>2022-05-01T10:23:34Z</time>
      </trkpt>
      <trkpt lat="45.22441" lon="4.71887">
        <ele>402</ele>
        <time>2022-05-01T10:23:43Z</time>
      </trkpt>
      <trkpt lat="45.22442" lon="4.71889">
        <ele>402</ele>
        <time>2022-05-01T10:23:47Z</time>
      </trkpt>
      <trkpt lat="45.22439" lon="4.71889">
        <ele>402.20001220703</ele>
        <time>2022-05-01T10:23:49Z</time>
      </trkpt>
      <trkpt lat="45.22428" lon="4.71888">
        <ele>402.20001220703</ele>
        <time>2022-05-01T10:23:54Z</time>
      </trkpt>
      <trkpt lat="45.22426" lon="4.71888">
        <ele>401.79998779297</ele>
        <time>2022-05-01T10:24:06Z</time>
      </trkpt>
      <trkpt lat="45.22426" lon="4.71888">
        <ele>401.39999389648</ele>
        <time>2022-05-01T10:24:11Z</time>
      </trkpt>
    </trkseg>
  </trk>
</gpx>